<?xml version="1.0" encoding="UTF-8" standalone="no" ?>
<gpx xmlns="http://www.topografix.com/GPX/1/1" xmlns:xsi="http://www.w3.org/2001/XMLSchema-instance" xsi:schemaLocation="http://www.topografix.com/GPX/1/1 http://www.topografix.com/GPX/1/1/gpx.xsd" version="1.1" creator="VisuGPX - https://www.visugpx.com">
  <metadata>
    <name>samedi 5 avril 2014</name>
    <desc><![CDATA[club vtt des rochers]]></desc>
  </metadata>
  <trk>
    <name><![CDATA[05-AVR-14 21:34:22]]></name>
    <trkseg>
      <trkpt lat="44.47207" lon="0.93418">
        <ele>77.04</ele>
        <time>2014-04-05T12:10:45Z</time>
      </trkpt>
      <trkpt lat="44.47208" lon="0.93419">
        <ele>76.08</ele>
        <time>2014-04-05T12:11:21Z</time>
      </trkpt>
      <trkpt lat="44.47208" lon="0.93418">
        <ele>76.08</ele>
        <time>2014-04-05T12:11:51Z</time>
      </trkpt>
      <trkpt lat="44.47208" lon="0.93418">
        <ele>75.12</ele>
        <time>2014-04-05T12:12:17Z</time>
      </trkpt>
      <trkpt lat="44.47208" lon="0.93418">
        <ele>75.12</ele>
        <time>2014-04-05T12:12:48Z</time>
      </trkpt>
      <trkpt lat="44.47207" lon="0.93418">
        <ele>73.68</ele>
        <time>2014-04-05T12:13:19Z</time>
      </trkpt>
      <trkpt lat="44.47206" lon="0.93417">
        <ele>73.68</ele>
        <time>2014-04-05T12:13:50Z</time>
      </trkpt>
      <trkpt lat="44.47207" lon="0.93418">
        <ele>73.68</ele>
        <time>2014-04-05T12:14:18Z</time>
      </trkpt>
      <trkpt lat="44.47207" lon="0.93418">
        <ele>73.2</ele>
        <time>2014-04-05T12:14:49Z</time>
      </trkpt>
      <trkpt lat="44.47207" lon="0.93419">
        <ele>73.2</ele>
        <time>2014-04-05T12:15:18Z</time>
      </trkpt>
      <trkpt lat="44.47208" lon="0.93419">
        <ele>74.16</ele>
        <time>2014-04-05T12:16:02Z</time>
      </trkpt>
      <trkpt lat="44.47207" lon="0.93419">
        <ele>74.64</ele>
        <time>2014-04-05T12:16:40Z</time>
      </trkpt>
      <trkpt lat="44.47208" lon="0.93419">
        <ele>75.12</ele>
        <time>2014-04-05T12:16:53Z</time>
      </trkpt>
      <trkpt lat="44.47208" lon="0.93423">
        <ele>74.64</ele>
        <time>2014-04-05T12:16:56Z</time>
      </trkpt>
      <trkpt lat="44.47204" lon="0.93424">
        <ele>75.12</ele>
        <time>2014-04-05T12:17:02Z</time>
      </trkpt>
      <trkpt lat="44.47193" lon="0.93439">
        <ele>74.16</ele>
        <time>2014-04-05T12:17:11Z</time>
      </trkpt>
      <trkpt lat="44.4719" lon="0.93441">
        <ele>73.2</ele>
        <time>2014-04-05T12:17:24Z</time>
      </trkpt>
      <trkpt lat="44.4719" lon="0.93442">
        <ele>73.2</ele>
        <time>2014-04-05T12:17:39Z</time>
      </trkpt>
      <trkpt lat="44.47191" lon="0.93452">
        <ele>73.68</ele>
        <time>2014-04-05T12:17:44Z</time>
      </trkpt>
      <trkpt lat="44.47193" lon="0.93454">
        <ele>73.68</ele>
        <time>2014-04-05T12:17:45Z</time>
      </trkpt>
      <trkpt lat="44.47195" lon="0.93457">
        <ele>73.68</ele>
        <time>2014-04-05T12:17:46Z</time>
      </trkpt>
      <trkpt lat="44.47197" lon="0.93459">
        <ele>73.68</ele>
        <time>2014-04-05T12:17:47Z</time>
      </trkpt>
      <trkpt lat="44.47199" lon="0.93461">
        <ele>73.68</ele>
        <time>2014-04-05T12:17:48Z</time>
      </trkpt>
      <trkpt lat="44.4722" lon="0.93486">
        <ele>72.72</ele>
        <time>2014-04-05T12:17:58Z</time>
      </trkpt>
      <trkpt lat="44.4722" lon="0.93491">
        <ele>72.72</ele>
        <time>2014-04-05T12:17:59Z</time>
      </trkpt>
      <trkpt lat="44.47221" lon="0.93495">
        <ele>72.72</ele>
        <time>2014-04-05T12:18:00Z</time>
      </trkpt>
      <trkpt lat="44.47222" lon="0.93499">
        <ele>72.72</ele>
        <time>2014-04-05T12:18:01Z</time>
      </trkpt>
      <trkpt lat="44.47223" lon="0.93503">
        <ele>72.72</ele>
        <time>2014-04-05T12:18:02Z</time>
      </trkpt>
      <trkpt lat="44.47231" lon="0.93564">
        <ele>73.68</ele>
        <time>2014-04-05T12:18:15Z</time>
      </trkpt>
      <trkpt lat="44.47235" lon="0.93574">
        <ele>73.2</ele>
        <time>2014-04-05T12:18:17Z</time>
      </trkpt>
      <trkpt lat="44.47254" lon="0.93619">
        <ele>72.24</ele>
        <time>2014-04-05T12:18:26Z</time>
      </trkpt>
      <trkpt lat="44.47257" lon="0.93623">
        <ele>72.24</ele>
        <time>2014-04-05T12:18:27Z</time>
      </trkpt>
      <trkpt lat="44.4726" lon="0.93626">
        <ele>72.24</ele>
        <time>2014-04-05T12:18:28Z</time>
      </trkpt>
      <trkpt lat="44.47274" lon="0.93639">
        <ele>73.2</ele>
        <time>2014-04-05T12:18:32Z</time>
      </trkpt>
      <trkpt lat="44.47277" lon="0.93643">
        <ele>73.68</ele>
        <time>2014-04-05T12:18:33Z</time>
      </trkpt>
      <trkpt lat="44.4728" lon="0.93648">
        <ele>73.68</ele>
        <time>2014-04-05T12:18:34Z</time>
      </trkpt>
      <trkpt lat="44.47281" lon="0.93653">
        <ele>73.68</ele>
        <time>2014-04-05T12:18:35Z</time>
      </trkpt>
      <trkpt lat="44.47282" lon="0.93658">
        <ele>73.68</ele>
        <time>2014-04-05T12:18:36Z</time>
      </trkpt>
      <trkpt lat="44.47284" lon="0.93663">
        <ele>73.68</ele>
        <time>2014-04-05T12:18:37Z</time>
      </trkpt>
      <trkpt lat="44.47286" lon="0.93667">
        <ele>73.68</ele>
        <time>2014-04-05T12:18:38Z</time>
      </trkpt>
      <trkpt lat="44.47289" lon="0.93671">
        <ele>73.68</ele>
        <time>2014-04-05T12:18:39Z</time>
      </trkpt>
      <trkpt lat="44.47292" lon="0.93674">
        <ele>73.2</ele>
        <time>2014-04-05T12:18:40Z</time>
      </trkpt>
      <trkpt lat="44.47293" lon="0.93678">
        <ele>73.2</ele>
        <time>2014-04-05T12:18:41Z</time>
      </trkpt>
      <trkpt lat="44.47295" lon="0.93683">
        <ele>73.2</ele>
        <time>2014-04-05T12:18:42Z</time>
      </trkpt>
      <trkpt lat="44.47322" lon="0.93737">
        <ele>72.24</ele>
        <time>2014-04-05T12:18:54Z</time>
      </trkpt>
      <trkpt lat="44.47339" lon="0.93775">
        <ele>74.16</ele>
        <time>2014-04-05T12:19:02Z</time>
      </trkpt>
      <trkpt lat="44.47345" lon="0.93808">
        <ele>74.64</ele>
        <time>2014-04-05T12:19:08Z</time>
      </trkpt>
      <trkpt lat="44.47347" lon="0.93811">
        <ele>74.64</ele>
        <time>2014-04-05T12:19:09Z</time>
      </trkpt>
      <trkpt lat="44.4735" lon="0.93814">
        <ele>74.64</ele>
        <time>2014-04-05T12:19:10Z</time>
      </trkpt>
      <trkpt lat="44.47353" lon="0.93816">
        <ele>74.64</ele>
        <time>2014-04-05T12:19:11Z</time>
      </trkpt>
      <trkpt lat="44.47356" lon="0.93819">
        <ele>75.12</ele>
        <time>2014-04-05T12:19:12Z</time>
      </trkpt>
      <trkpt lat="44.47358" lon="0.93822">
        <ele>75.12</ele>
        <time>2014-04-05T12:19:13Z</time>
      </trkpt>
      <trkpt lat="44.47368" lon="0.93842">
        <ele>75.12</ele>
        <time>2014-04-05T12:19:17Z</time>
      </trkpt>
      <trkpt lat="44.4737" lon="0.93848">
        <ele>75.12</ele>
        <time>2014-04-05T12:19:18Z</time>
      </trkpt>
      <trkpt lat="44.47373" lon="0.9386">
        <ele>75.12</ele>
        <time>2014-04-05T12:19:20Z</time>
      </trkpt>
      <trkpt lat="44.47374" lon="0.93866">
        <ele>75.6</ele>
        <time>2014-04-05T12:19:21Z</time>
      </trkpt>
      <trkpt lat="44.4739" lon="0.93943">
        <ele>71.76</ele>
        <time>2014-04-05T12:19:36Z</time>
      </trkpt>
      <trkpt lat="44.47392" lon="0.93953">
        <ele>71.27</ele>
        <time>2014-04-05T12:19:39Z</time>
      </trkpt>
      <trkpt lat="44.47393" lon="0.93955">
        <ele>71.27</ele>
        <time>2014-04-05T12:19:40Z</time>
      </trkpt>
      <trkpt lat="44.47395" lon="0.93955">
        <ele>71.27</ele>
        <time>2014-04-05T12:19:41Z</time>
      </trkpt>
      <trkpt lat="44.47397" lon="0.93955">
        <ele>71.27</ele>
        <time>2014-04-05T12:19:42Z</time>
      </trkpt>
      <trkpt lat="44.474" lon="0.93954">
        <ele>71.76</ele>
        <time>2014-04-05T12:19:43Z</time>
      </trkpt>
      <trkpt lat="44.47404" lon="0.93952">
        <ele>72.24</ele>
        <time>2014-04-05T12:19:44Z</time>
      </trkpt>
      <trkpt lat="44.47411" lon="0.93948">
        <ele>72.72</ele>
        <time>2014-04-05T12:19:46Z</time>
      </trkpt>
      <trkpt lat="44.47416" lon="0.93945">
        <ele>72.72</ele>
        <time>2014-04-05T12:19:47Z</time>
      </trkpt>
      <trkpt lat="44.47482" lon="0.93897">
        <ele>70.31</ele>
        <time>2014-04-05T12:19:59Z</time>
      </trkpt>
      <trkpt lat="44.47487" lon="0.93896">
        <ele>70.31</ele>
        <time>2014-04-05T12:20:00Z</time>
      </trkpt>
      <trkpt lat="44.47491" lon="0.93897">
        <ele>70.31</ele>
        <time>2014-04-05T12:20:01Z</time>
      </trkpt>
      <trkpt lat="44.47495" lon="0.93902">
        <ele>70.31</ele>
        <time>2014-04-05T12:20:02Z</time>
      </trkpt>
      <trkpt lat="44.47497" lon="0.93907">
        <ele>70.31</ele>
        <time>2014-04-05T12:20:03Z</time>
      </trkpt>
      <trkpt lat="44.475" lon="0.93913">
        <ele>70.31</ele>
        <time>2014-04-05T12:20:04Z</time>
      </trkpt>
      <trkpt lat="44.4751" lon="0.93934">
        <ele>70.31</ele>
        <time>2014-04-05T12:20:08Z</time>
      </trkpt>
      <trkpt lat="44.47512" lon="0.93939">
        <ele>70.31</ele>
        <time>2014-04-05T12:20:09Z</time>
      </trkpt>
      <trkpt lat="44.47514" lon="0.93944">
        <ele>70.31</ele>
        <time>2014-04-05T12:20:10Z</time>
      </trkpt>
      <trkpt lat="44.47519" lon="0.93952">
        <ele>70.31</ele>
        <time>2014-04-05T12:20:12Z</time>
      </trkpt>
      <trkpt lat="44.47523" lon="0.93956">
        <ele>69.83</ele>
        <time>2014-04-05T12:20:13Z</time>
      </trkpt>
      <trkpt lat="44.47528" lon="0.93959">
        <ele>69.83</ele>
        <time>2014-04-05T12:20:14Z</time>
      </trkpt>
      <trkpt lat="44.47533" lon="0.9396">
        <ele>69.35</ele>
        <time>2014-04-05T12:20:15Z</time>
      </trkpt>
      <trkpt lat="44.47538" lon="0.93961">
        <ele>69.35</ele>
        <time>2014-04-05T12:20:16Z</time>
      </trkpt>
      <trkpt lat="44.47553" lon="0.93966">
        <ele>68.87</ele>
        <time>2014-04-05T12:20:19Z</time>
      </trkpt>
      <trkpt lat="44.47565" lon="0.93978">
        <ele>67.91</ele>
        <time>2014-04-05T12:20:22Z</time>
      </trkpt>
      <trkpt lat="44.4757" lon="0.93982">
        <ele>67.91</ele>
        <time>2014-04-05T12:20:23Z</time>
      </trkpt>
      <trkpt lat="44.47578" lon="0.9399">
        <ele>67.91</ele>
        <time>2014-04-05T12:20:25Z</time>
      </trkpt>
      <trkpt lat="44.47583" lon="0.93993">
        <ele>67.43</ele>
        <time>2014-04-05T12:20:26Z</time>
      </trkpt>
      <trkpt lat="44.47591" lon="0.93999">
        <ele>66.95</ele>
        <time>2014-04-05T12:20:28Z</time>
      </trkpt>
      <trkpt lat="44.47633" lon="0.94033">
        <ele>65.51</ele>
        <time>2014-04-05T12:20:40Z</time>
      </trkpt>
      <trkpt lat="44.47686" lon="0.94066">
        <ele>65.03</ele>
        <time>2014-04-05T12:20:55Z</time>
      </trkpt>
      <trkpt lat="44.4772" lon="0.94101">
        <ele>65.99</ele>
        <time>2014-04-05T12:21:07Z</time>
      </trkpt>
      <trkpt lat="44.47759" lon="0.94133">
        <ele>67.43</ele>
        <time>2014-04-05T12:21:19Z</time>
      </trkpt>
      <trkpt lat="44.47799" lon="0.94187">
        <ele>66.95</ele>
        <time>2014-04-05T12:21:33Z</time>
      </trkpt>
      <trkpt lat="44.47822" lon="0.94228">
        <ele>64.55</ele>
        <time>2014-04-05T12:21:44Z</time>
      </trkpt>
      <trkpt lat="44.47847" lon="0.94285">
        <ele>67.43</ele>
        <time>2014-04-05T12:21:57Z</time>
      </trkpt>
      <trkpt lat="44.47873" lon="0.94351">
        <ele>70.79</ele>
        <time>2014-04-05T12:22:11Z</time>
      </trkpt>
      <trkpt lat="44.47879" lon="0.94371">
        <ele>70.31</ele>
        <time>2014-04-05T12:22:15Z</time>
      </trkpt>
      <trkpt lat="44.47908" lon="0.94451">
        <ele>71.76</ele>
        <time>2014-04-05T12:22:31Z</time>
      </trkpt>
      <trkpt lat="44.47932" lon="0.94525">
        <ele>71.76</ele>
        <time>2014-04-05T12:22:46Z</time>
      </trkpt>
      <trkpt lat="44.47946" lon="0.94583">
        <ele>72.72</ele>
        <time>2014-04-05T12:22:59Z</time>
      </trkpt>
      <trkpt lat="44.47964" lon="0.94644">
        <ele>72.24</ele>
        <time>2014-04-05T12:23:11Z</time>
      </trkpt>
      <trkpt lat="44.47992" lon="0.9472">
        <ele>68.87</ele>
        <time>2014-04-05T12:23:26Z</time>
      </trkpt>
      <trkpt lat="44.48" lon="0.9474">
        <ele>68.39</ele>
        <time>2014-04-05T12:23:30Z</time>
      </trkpt>
      <trkpt lat="44.48004" lon="0.9475">
        <ele>67.91</ele>
        <time>2014-04-05T12:23:32Z</time>
      </trkpt>
      <trkpt lat="44.48006" lon="0.94755">
        <ele>67.91</ele>
        <time>2014-04-05T12:23:33Z</time>
      </trkpt>
      <trkpt lat="44.48009" lon="0.9476">
        <ele>68.39</ele>
        <time>2014-04-05T12:23:34Z</time>
      </trkpt>
      <trkpt lat="44.48015" lon="0.94772">
        <ele>69.83</ele>
        <time>2014-04-05T12:23:42Z</time>
      </trkpt>
      <trkpt lat="44.48018" lon="0.94774">
        <ele>69.83</ele>
        <time>2014-04-05T12:23:44Z</time>
      </trkpt>
      <trkpt lat="44.4802" lon="0.94773">
        <ele>69.83</ele>
        <time>2014-04-05T12:23:45Z</time>
      </trkpt>
      <trkpt lat="44.48023" lon="0.94772">
        <ele>70.31</ele>
        <time>2014-04-05T12:23:46Z</time>
      </trkpt>
      <trkpt lat="44.48026" lon="0.9477">
        <ele>70.31</ele>
        <time>2014-04-05T12:23:47Z</time>
      </trkpt>
      <trkpt lat="44.48029" lon="0.94767">
        <ele>70.79</ele>
        <time>2014-04-05T12:23:48Z</time>
      </trkpt>
      <trkpt lat="44.48067" lon="0.94735">
        <ele>70.79</ele>
        <time>2014-04-05T12:23:59Z</time>
      </trkpt>
      <trkpt lat="44.48071" lon="0.94732">
        <ele>70.79</ele>
        <time>2014-04-05T12:24:00Z</time>
      </trkpt>
      <trkpt lat="44.48126" lon="0.94686">
        <ele>69.35</ele>
        <time>2014-04-05T12:24:13Z</time>
      </trkpt>
      <trkpt lat="44.48171" lon="0.9466">
        <ele>68.39</ele>
        <time>2014-04-05T12:24:21Z</time>
      </trkpt>
      <trkpt lat="44.48201" lon="0.94638">
        <ele>69.35</ele>
        <time>2014-04-05T12:24:30Z</time>
      </trkpt>
      <trkpt lat="44.48203" lon="0.94635">
        <ele>68.87</ele>
        <time>2014-04-05T12:24:31Z</time>
      </trkpt>
      <trkpt lat="44.48232" lon="0.94583">
        <ele>66.95</ele>
        <time>2014-04-05T12:24:43Z</time>
      </trkpt>
      <trkpt lat="44.48251" lon="0.94536">
        <ele>66.47</ele>
        <time>2014-04-05T12:24:52Z</time>
      </trkpt>
      <trkpt lat="44.48255" lon="0.94526">
        <ele>65.99</ele>
        <time>2014-04-05T12:24:54Z</time>
      </trkpt>
      <trkpt lat="44.48256" lon="0.94521">
        <ele>65.99</ele>
        <time>2014-04-05T12:24:55Z</time>
      </trkpt>
      <trkpt lat="44.48257" lon="0.94515">
        <ele>66.47</ele>
        <time>2014-04-05T12:24:56Z</time>
      </trkpt>
      <trkpt lat="44.48257" lon="0.94509">
        <ele>66.47</ele>
        <time>2014-04-05T12:24:57Z</time>
      </trkpt>
      <trkpt lat="44.48258" lon="0.94504">
        <ele>66.95</ele>
        <time>2014-04-05T12:24:58Z</time>
      </trkpt>
      <trkpt lat="44.4826" lon="0.94499">
        <ele>66.95</ele>
        <time>2014-04-05T12:24:59Z</time>
      </trkpt>
      <trkpt lat="44.48262" lon="0.94495">
        <ele>66.95</ele>
        <time>2014-04-05T12:25:00Z</time>
      </trkpt>
      <trkpt lat="44.48265" lon="0.94491">
        <ele>67.43</ele>
        <time>2014-04-05T12:25:01Z</time>
      </trkpt>
      <trkpt lat="44.48267" lon="0.94487">
        <ele>67.91</ele>
        <time>2014-04-05T12:25:02Z</time>
      </trkpt>
      <trkpt lat="44.48287" lon="0.94463">
        <ele>71.27</ele>
        <time>2014-04-05T12:25:09Z</time>
      </trkpt>
      <trkpt lat="44.48291" lon="0.9446">
        <ele>71.27</ele>
        <time>2014-04-05T12:25:10Z</time>
      </trkpt>
      <trkpt lat="44.48295" lon="0.94458">
        <ele>71.27</ele>
        <time>2014-04-05T12:25:11Z</time>
      </trkpt>
      <trkpt lat="44.48299" lon="0.94456">
        <ele>71.76</ele>
        <time>2014-04-05T12:25:12Z</time>
      </trkpt>
      <trkpt lat="44.48303" lon="0.94454">
        <ele>72.24</ele>
        <time>2014-04-05T12:25:13Z</time>
      </trkpt>
      <trkpt lat="44.48312" lon="0.94449">
        <ele>73.2</ele>
        <time>2014-04-05T12:25:15Z</time>
      </trkpt>
      <trkpt lat="44.48316" lon="0.94446">
        <ele>74.16</ele>
        <time>2014-04-05T12:25:16Z</time>
      </trkpt>
      <trkpt lat="44.48328" lon="0.94438">
        <ele>75.6</ele>
        <time>2014-04-05T12:25:19Z</time>
      </trkpt>
      <trkpt lat="44.4838" lon="0.94405">
        <ele>78.48</ele>
        <time>2014-04-05T12:25:33Z</time>
      </trkpt>
      <trkpt lat="44.4839" lon="0.94405">
        <ele>78.48</ele>
        <time>2014-04-05T12:25:36Z</time>
      </trkpt>
      <trkpt lat="44.48392" lon="0.94409">
        <ele>78.97</ele>
        <time>2014-04-05T12:25:37Z</time>
      </trkpt>
      <trkpt lat="44.48393" lon="0.94413">
        <ele>78.97</ele>
        <time>2014-04-05T12:25:38Z</time>
      </trkpt>
      <trkpt lat="44.48394" lon="0.94419">
        <ele>78.48</ele>
        <time>2014-04-05T12:25:39Z</time>
      </trkpt>
      <trkpt lat="44.48395" lon="0.94425">
        <ele>78</ele>
        <time>2014-04-05T12:25:40Z</time>
      </trkpt>
      <trkpt lat="44.48412" lon="0.94481">
        <ele>74.64</ele>
        <time>2014-04-05T12:25:51Z</time>
      </trkpt>
      <trkpt lat="44.48415" lon="0.94481">
        <ele>74.64</ele>
        <time>2014-04-05T12:25:52Z</time>
      </trkpt>
      <trkpt lat="44.48419" lon="0.94481">
        <ele>74.16</ele>
        <time>2014-04-05T12:25:53Z</time>
      </trkpt>
      <trkpt lat="44.48423" lon="0.94481">
        <ele>73.68</ele>
        <time>2014-04-05T12:25:54Z</time>
      </trkpt>
      <trkpt lat="44.48427" lon="0.94482">
        <ele>73.68</ele>
        <time>2014-04-05T12:25:55Z</time>
      </trkpt>
      <trkpt lat="44.48437" lon="0.94479">
        <ele>74.16</ele>
        <time>2014-04-05T12:25:58Z</time>
      </trkpt>
      <trkpt lat="44.48438" lon="0.94476">
        <ele>73.68</ele>
        <time>2014-04-05T12:25:59Z</time>
      </trkpt>
      <trkpt lat="44.48442" lon="0.9445">
        <ele>73.68</ele>
        <time>2014-04-05T12:26:05Z</time>
      </trkpt>
      <trkpt lat="44.48454" lon="0.94439">
        <ele>73.2</ele>
        <time>2014-04-05T12:26:09Z</time>
      </trkpt>
      <trkpt lat="44.48464" lon="0.94439">
        <ele>73.2</ele>
        <time>2014-04-05T12:26:11Z</time>
      </trkpt>
      <trkpt lat="44.48534" lon="0.94413">
        <ele>72.72</ele>
        <time>2014-04-05T12:26:27Z</time>
      </trkpt>
      <trkpt lat="44.48575" lon="0.94391">
        <ele>72.72</ele>
        <time>2014-04-05T12:26:39Z</time>
      </trkpt>
      <trkpt lat="44.48578" lon="0.94385">
        <ele>71.76</ele>
        <time>2014-04-05T12:26:48Z</time>
      </trkpt>
      <trkpt lat="44.48578" lon="0.94384">
        <ele>71.76</ele>
        <time>2014-04-05T12:26:50Z</time>
      </trkpt>
      <trkpt lat="44.48583" lon="0.9437">
        <ele>73.2</ele>
        <time>2014-04-05T12:26:58Z</time>
      </trkpt>
      <trkpt lat="44.48586" lon="0.94346">
        <ele>73.2</ele>
        <time>2014-04-05T12:27:03Z</time>
      </trkpt>
      <trkpt lat="44.48597" lon="0.9434">
        <ele>73.68</ele>
        <time>2014-04-05T12:27:07Z</time>
      </trkpt>
      <trkpt lat="44.48601" lon="0.94341">
        <ele>74.16</ele>
        <time>2014-04-05T12:27:08Z</time>
      </trkpt>
      <trkpt lat="44.48605" lon="0.94342">
        <ele>74.16</ele>
        <time>2014-04-05T12:27:09Z</time>
      </trkpt>
      <trkpt lat="44.48608" lon="0.94344">
        <ele>74.16</ele>
        <time>2014-04-05T12:27:10Z</time>
      </trkpt>
      <trkpt lat="44.48652" lon="0.94371">
        <ele>74.64</ele>
        <time>2014-04-05T12:27:22Z</time>
      </trkpt>
      <trkpt lat="44.4866" lon="0.94375">
        <ele>75.12</ele>
        <time>2014-04-05T12:27:24Z</time>
      </trkpt>
      <trkpt lat="44.48725" lon="0.94395">
        <ele>78.48</ele>
        <time>2014-04-05T12:27:40Z</time>
      </trkpt>
      <trkpt lat="44.48735" lon="0.94393">
        <ele>79.93</ele>
        <time>2014-04-05T12:27:43Z</time>
      </trkpt>
      <trkpt lat="44.48738" lon="0.94391">
        <ele>80.89</ele>
        <time>2014-04-05T12:27:44Z</time>
      </trkpt>
      <trkpt lat="44.48769" lon="0.9438">
        <ele>89.54</ele>
        <time>2014-04-05T12:27:54Z</time>
      </trkpt>
      <trkpt lat="44.4877" lon="0.94379">
        <ele>90.02</ele>
        <time>2014-04-05T12:27:55Z</time>
      </trkpt>
      <trkpt lat="44.48771" lon="0.94376">
        <ele>90.98</ele>
        <time>2014-04-05T12:27:56Z</time>
      </trkpt>
      <trkpt lat="44.48772" lon="0.94374">
        <ele>91.46</ele>
        <time>2014-04-05T12:27:57Z</time>
      </trkpt>
      <trkpt lat="44.48774" lon="0.94373">
        <ele>91.94</ele>
        <time>2014-04-05T12:27:58Z</time>
      </trkpt>
      <trkpt lat="44.48777" lon="0.94372">
        <ele>91.94</ele>
        <time>2014-04-05T12:27:59Z</time>
      </trkpt>
      <trkpt lat="44.48789" lon="0.94364">
        <ele>91.46</ele>
        <time>2014-04-05T12:28:05Z</time>
      </trkpt>
      <trkpt lat="44.4879" lon="0.94362">
        <ele>91.46</ele>
        <time>2014-04-05T12:28:06Z</time>
      </trkpt>
      <trkpt lat="44.48792" lon="0.94361">
        <ele>91.46</ele>
        <time>2014-04-05T12:28:07Z</time>
      </trkpt>
      <trkpt lat="44.48794" lon="0.9436">
        <ele>90.98</ele>
        <time>2014-04-05T12:28:08Z</time>
      </trkpt>
      <trkpt lat="44.48796" lon="0.94358">
        <ele>90.5</ele>
        <time>2014-04-05T12:28:09Z</time>
      </trkpt>
      <trkpt lat="44.48798" lon="0.94358">
        <ele>90.5</ele>
        <time>2014-04-05T12:28:10Z</time>
      </trkpt>
      <trkpt lat="44.488" lon="0.94359">
        <ele>90.02</ele>
        <time>2014-04-05T12:28:11Z</time>
      </trkpt>
      <trkpt lat="44.48805" lon="0.94364">
        <ele>89.54</ele>
        <time>2014-04-05T12:28:13Z</time>
      </trkpt>
      <trkpt lat="44.48808" lon="0.94365">
        <ele>89.06</ele>
        <time>2014-04-05T12:28:14Z</time>
      </trkpt>
      <trkpt lat="44.48811" lon="0.94365">
        <ele>88.58</ele>
        <time>2014-04-05T12:28:15Z</time>
      </trkpt>
      <trkpt lat="44.48814" lon="0.94367">
        <ele>88.58</ele>
        <time>2014-04-05T12:28:16Z</time>
      </trkpt>
      <trkpt lat="44.48818" lon="0.9437">
        <ele>88.58</ele>
        <time>2014-04-05T12:28:17Z</time>
      </trkpt>
      <trkpt lat="44.48821" lon="0.94374">
        <ele>88.1</ele>
        <time>2014-04-05T12:28:18Z</time>
      </trkpt>
      <trkpt lat="44.48824" lon="0.94378">
        <ele>88.1</ele>
        <time>2014-04-05T12:28:19Z</time>
      </trkpt>
      <trkpt lat="44.48827" lon="0.94383">
        <ele>87.62</ele>
        <time>2014-04-05T12:28:20Z</time>
      </trkpt>
      <trkpt lat="44.48836" lon="0.94397">
        <ele>87.14</ele>
        <time>2014-04-05T12:28:23Z</time>
      </trkpt>
      <trkpt lat="44.48872" lon="0.94482">
        <ele>83.77</ele>
        <time>2014-04-05T12:28:37Z</time>
      </trkpt>
      <trkpt lat="44.4888" lon="0.94524">
        <ele>82.33</ele>
        <time>2014-04-05T12:28:42Z</time>
      </trkpt>
      <trkpt lat="44.48881" lon="0.94533">
        <ele>81.85</ele>
        <time>2014-04-05T12:28:43Z</time>
      </trkpt>
      <trkpt lat="44.48882" lon="0.9454">
        <ele>81.37</ele>
        <time>2014-04-05T12:28:44Z</time>
      </trkpt>
      <trkpt lat="44.48886" lon="0.94546">
        <ele>80.89</ele>
        <time>2014-04-05T12:28:45Z</time>
      </trkpt>
      <trkpt lat="44.4889" lon="0.94549">
        <ele>80.89</ele>
        <time>2014-04-05T12:28:46Z</time>
      </trkpt>
      <trkpt lat="44.48896" lon="0.9455">
        <ele>80.41</ele>
        <time>2014-04-05T12:28:47Z</time>
      </trkpt>
      <trkpt lat="44.48901" lon="0.9455">
        <ele>80.89</ele>
        <time>2014-04-05T12:28:48Z</time>
      </trkpt>
      <trkpt lat="44.48906" lon="0.9455">
        <ele>80.41</ele>
        <time>2014-04-05T12:28:49Z</time>
      </trkpt>
      <trkpt lat="44.48909" lon="0.94552">
        <ele>79.93</ele>
        <time>2014-04-05T12:28:50Z</time>
      </trkpt>
      <trkpt lat="44.48922" lon="0.94589">
        <ele>77.04</ele>
        <time>2014-04-05T12:28:57Z</time>
      </trkpt>
      <trkpt lat="44.48933" lon="0.94588">
        <ele>76.08</ele>
        <time>2014-04-05T12:29:00Z</time>
      </trkpt>
      <trkpt lat="44.48983" lon="0.9456">
        <ele>73.68</ele>
        <time>2014-04-05T12:29:12Z</time>
      </trkpt>
      <trkpt lat="44.49004" lon="0.94549">
        <ele>73.2</ele>
        <time>2014-04-05T12:29:17Z</time>
      </trkpt>
      <trkpt lat="44.49009" lon="0.94548">
        <ele>73.2</ele>
        <time>2014-04-05T12:29:18Z</time>
      </trkpt>
      <trkpt lat="44.49014" lon="0.94547">
        <ele>73.68</ele>
        <time>2014-04-05T12:29:19Z</time>
      </trkpt>
      <trkpt lat="44.49019" lon="0.94547">
        <ele>73.68</ele>
        <time>2014-04-05T12:29:20Z</time>
      </trkpt>
      <trkpt lat="44.49024" lon="0.94546">
        <ele>73.68</ele>
        <time>2014-04-05T12:29:21Z</time>
      </trkpt>
      <trkpt lat="44.49058" lon="0.94543">
        <ele>76.56</ele>
        <time>2014-04-05T12:29:28Z</time>
      </trkpt>
      <trkpt lat="44.49078" lon="0.94543">
        <ele>78.97</ele>
        <time>2014-04-05T12:29:32Z</time>
      </trkpt>
      <trkpt lat="44.49128" lon="0.94545">
        <ele>81.85</ele>
        <time>2014-04-05T12:29:42Z</time>
      </trkpt>
      <trkpt lat="44.49132" lon="0.94547">
        <ele>81.85</ele>
        <time>2014-04-05T12:29:43Z</time>
      </trkpt>
      <trkpt lat="44.49137" lon="0.94548">
        <ele>81.85</ele>
        <time>2014-04-05T12:29:44Z</time>
      </trkpt>
      <trkpt lat="44.49142" lon="0.94548">
        <ele>81.85</ele>
        <time>2014-04-05T12:29:45Z</time>
      </trkpt>
      <trkpt lat="44.49146" lon="0.94548">
        <ele>81.85</ele>
        <time>2014-04-05T12:29:46Z</time>
      </trkpt>
      <trkpt lat="44.49156" lon="0.94546">
        <ele>82.33</ele>
        <time>2014-04-05T12:29:48Z</time>
      </trkpt>
      <trkpt lat="44.4916" lon="0.94544">
        <ele>82.81</ele>
        <time>2014-04-05T12:29:49Z</time>
      </trkpt>
      <trkpt lat="44.49165" lon="0.94543">
        <ele>83.29</ele>
        <time>2014-04-05T12:29:50Z</time>
      </trkpt>
      <trkpt lat="44.49169" lon="0.94542">
        <ele>84.25</ele>
        <time>2014-04-05T12:29:51Z</time>
      </trkpt>
      <trkpt lat="44.49173" lon="0.94541">
        <ele>85.21</ele>
        <time>2014-04-05T12:29:52Z</time>
      </trkpt>
      <trkpt lat="44.49177" lon="0.9454">
        <ele>86.18</ele>
        <time>2014-04-05T12:29:53Z</time>
      </trkpt>
      <trkpt lat="44.49182" lon="0.94539">
        <ele>87.14</ele>
        <time>2014-04-05T12:29:54Z</time>
      </trkpt>
      <trkpt lat="44.49197" lon="0.94537">
        <ele>90.02</ele>
        <time>2014-04-05T12:29:57Z</time>
      </trkpt>
      <trkpt lat="44.49202" lon="0.94536">
        <ele>90.5</ele>
        <time>2014-04-05T12:29:58Z</time>
      </trkpt>
      <trkpt lat="44.49217" lon="0.94533">
        <ele>91.46</ele>
        <time>2014-04-05T12:30:01Z</time>
      </trkpt>
      <trkpt lat="44.49221" lon="0.94532">
        <ele>91.46</ele>
        <time>2014-04-05T12:30:02Z</time>
      </trkpt>
      <trkpt lat="44.49239" lon="0.94528">
        <ele>90.5</ele>
        <time>2014-04-05T12:30:06Z</time>
      </trkpt>
      <trkpt lat="44.4926" lon="0.94516">
        <ele>87.62</ele>
        <time>2014-04-05T12:30:16Z</time>
      </trkpt>
      <trkpt lat="44.49261" lon="0.94513">
        <ele>87.62</ele>
        <time>2014-04-05T12:30:17Z</time>
      </trkpt>
      <trkpt lat="44.4926" lon="0.9451">
        <ele>87.62</ele>
        <time>2014-04-05T12:30:18Z</time>
      </trkpt>
      <trkpt lat="44.4926" lon="0.94507">
        <ele>87.62</ele>
        <time>2014-04-05T12:30:19Z</time>
      </trkpt>
      <trkpt lat="44.4926" lon="0.94505">
        <ele>88.1</ele>
        <time>2014-04-05T12:30:20Z</time>
      </trkpt>
      <trkpt lat="44.49261" lon="0.945">
        <ele>89.06</ele>
        <time>2014-04-05T12:30:22Z</time>
      </trkpt>
      <trkpt lat="44.4926" lon="0.94494">
        <ele>89.06</ele>
        <time>2014-04-05T12:30:23Z</time>
      </trkpt>
      <trkpt lat="44.4926" lon="0.9447">
        <ele>89.06</ele>
        <time>2014-04-05T12:30:27Z</time>
      </trkpt>
      <trkpt lat="44.49263" lon="0.94466">
        <ele>89.06</ele>
        <time>2014-04-05T12:30:28Z</time>
      </trkpt>
      <trkpt lat="44.49265" lon="0.94461">
        <ele>89.06</ele>
        <time>2014-04-05T12:30:29Z</time>
      </trkpt>
      <trkpt lat="44.49268" lon="0.94458">
        <ele>89.06</ele>
        <time>2014-04-05T12:30:30Z</time>
      </trkpt>
      <trkpt lat="44.49271" lon="0.94453">
        <ele>88.58</ele>
        <time>2014-04-05T12:30:31Z</time>
      </trkpt>
      <trkpt lat="44.49273" lon="0.94449">
        <ele>88.58</ele>
        <time>2014-04-05T12:30:32Z</time>
      </trkpt>
      <trkpt lat="44.49276" lon="0.94445">
        <ele>88.58</ele>
        <time>2014-04-05T12:30:33Z</time>
      </trkpt>
      <trkpt lat="44.49278" lon="0.94441">
        <ele>88.58</ele>
        <time>2014-04-05T12:30:34Z</time>
      </trkpt>
      <trkpt lat="44.4928" lon="0.94437">
        <ele>89.06</ele>
        <time>2014-04-05T12:30:35Z</time>
      </trkpt>
      <trkpt lat="44.49315" lon="0.94378">
        <ele>89.54</ele>
        <time>2014-04-05T12:30:50Z</time>
      </trkpt>
      <trkpt lat="44.49338" lon="0.9434">
        <ele>93.39</ele>
        <time>2014-04-05T12:31:00Z</time>
      </trkpt>
      <trkpt lat="44.49341" lon="0.94338">
        <ele>93.39</ele>
        <time>2014-04-05T12:31:01Z</time>
      </trkpt>
      <trkpt lat="44.4939" lon="0.94326">
        <ele>95.31</ele>
        <time>2014-04-05T12:31:15Z</time>
      </trkpt>
      <trkpt lat="44.4944" lon="0.94316">
        <ele>96.75</ele>
        <time>2014-04-05T12:31:29Z</time>
      </trkpt>
      <trkpt lat="44.49479" lon="0.94298">
        <ele>97.23</ele>
        <time>2014-04-05T12:31:41Z</time>
      </trkpt>
      <trkpt lat="44.49535" lon="0.94241">
        <ele>93.39</ele>
        <time>2014-04-05T12:31:52Z</time>
      </trkpt>
      <trkpt lat="44.49574" lon="0.94181">
        <ele>90.98</ele>
        <time>2014-04-05T12:32:04Z</time>
      </trkpt>
      <trkpt lat="44.49579" lon="0.94171">
        <ele>90.5</ele>
        <time>2014-04-05T12:32:06Z</time>
      </trkpt>
      <trkpt lat="44.49582" lon="0.94167">
        <ele>90.5</ele>
        <time>2014-04-05T12:32:07Z</time>
      </trkpt>
      <trkpt lat="44.49626" lon="0.94095">
        <ele>90.98</ele>
        <time>2014-04-05T12:32:22Z</time>
      </trkpt>
      <trkpt lat="44.49665" lon="0.94041">
        <ele>90.98</ele>
        <time>2014-04-05T12:32:33Z</time>
      </trkpt>
      <trkpt lat="44.49667" lon="0.94036">
        <ele>90.98</ele>
        <time>2014-04-05T12:32:34Z</time>
      </trkpt>
      <trkpt lat="44.49681" lon="0.94006">
        <ele>92.42</ele>
        <time>2014-04-05T12:32:40Z</time>
      </trkpt>
      <trkpt lat="44.49684" lon="0.94001">
        <ele>92.9</ele>
        <time>2014-04-05T12:32:41Z</time>
      </trkpt>
      <trkpt lat="44.49697" lon="0.93984">
        <ele>94.35</ele>
        <time>2014-04-05T12:32:45Z</time>
      </trkpt>
      <trkpt lat="44.49708" lon="0.93979">
        <ele>94.35</ele>
        <time>2014-04-05T12:32:53Z</time>
      </trkpt>
      <trkpt lat="44.49707" lon="0.93979">
        <ele>94.35</ele>
        <time>2014-04-05T12:32:54Z</time>
      </trkpt>
      <trkpt lat="44.49706" lon="0.93981">
        <ele>93.87</ele>
        <time>2014-04-05T12:32:55Z</time>
      </trkpt>
      <trkpt lat="44.49706" lon="0.93983">
        <ele>93.87</ele>
        <time>2014-04-05T12:32:56Z</time>
      </trkpt>
      <trkpt lat="44.49707" lon="0.93987">
        <ele>94.35</ele>
        <time>2014-04-05T12:32:57Z</time>
      </trkpt>
      <trkpt lat="44.4971" lon="0.93992">
        <ele>94.35</ele>
        <time>2014-04-05T12:32:58Z</time>
      </trkpt>
      <trkpt lat="44.49713" lon="0.93998">
        <ele>93.87</ele>
        <time>2014-04-05T12:32:59Z</time>
      </trkpt>
      <trkpt lat="44.49764" lon="0.94079">
        <ele>86.66</ele>
        <time>2014-04-05T12:33:09Z</time>
      </trkpt>
      <trkpt lat="44.49773" lon="0.94097">
        <ele>86.18</ele>
        <time>2014-04-05T12:33:11Z</time>
      </trkpt>
      <trkpt lat="44.49776" lon="0.94106">
        <ele>86.18</ele>
        <time>2014-04-05T12:33:12Z</time>
      </trkpt>
      <trkpt lat="44.49778" lon="0.94116">
        <ele>86.18</ele>
        <time>2014-04-05T12:33:13Z</time>
      </trkpt>
      <trkpt lat="44.49786" lon="0.94205">
        <ele>80.89</ele>
        <time>2014-04-05T12:33:23Z</time>
      </trkpt>
      <trkpt lat="44.49793" lon="0.94229">
        <ele>80.41</ele>
        <time>2014-04-05T12:33:28Z</time>
      </trkpt>
      <trkpt lat="44.49797" lon="0.94231">
        <ele>80.41</ele>
        <time>2014-04-05T12:33:29Z</time>
      </trkpt>
      <trkpt lat="44.49805" lon="0.94231">
        <ele>79.93</ele>
        <time>2014-04-05T12:33:31Z</time>
      </trkpt>
      <trkpt lat="44.4981" lon="0.94229">
        <ele>79.93</ele>
        <time>2014-04-05T12:33:32Z</time>
      </trkpt>
      <trkpt lat="44.49827" lon="0.94219">
        <ele>78.97</ele>
        <time>2014-04-05T12:33:36Z</time>
      </trkpt>
      <trkpt lat="44.49832" lon="0.94218">
        <ele>78.97</ele>
        <time>2014-04-05T12:33:37Z</time>
      </trkpt>
      <trkpt lat="44.49867" lon="0.94214">
        <ele>78</ele>
        <time>2014-04-05T12:33:44Z</time>
      </trkpt>
      <trkpt lat="44.49884" lon="0.94213">
        <ele>78</ele>
        <time>2014-04-05T12:33:48Z</time>
      </trkpt>
      <trkpt lat="44.49898" lon="0.94213">
        <ele>78</ele>
        <time>2014-04-05T12:33:52Z</time>
      </trkpt>
      <trkpt lat="44.49943" lon="0.94208">
        <ele>79.93</ele>
        <time>2014-04-05T12:34:02Z</time>
      </trkpt>
      <trkpt lat="44.50012" lon="0.94204">
        <ele>81.37</ele>
        <time>2014-04-05T12:34:19Z</time>
      </trkpt>
      <trkpt lat="44.50041" lon="0.94216">
        <ele>81.85</ele>
        <time>2014-04-05T12:34:27Z</time>
      </trkpt>
      <trkpt lat="44.50101" lon="0.94213">
        <ele>85.69</ele>
        <time>2014-04-05T12:34:43Z</time>
      </trkpt>
      <trkpt lat="44.50139" lon="0.94206">
        <ele>85.69</ele>
        <time>2014-04-05T12:34:56Z</time>
      </trkpt>
      <trkpt lat="44.50208" lon="0.94192">
        <ele>81.85</ele>
        <time>2014-04-05T12:35:09Z</time>
      </trkpt>
      <trkpt lat="44.50272" lon="0.94188">
        <ele>82.33</ele>
        <time>2014-04-05T12:35:22Z</time>
      </trkpt>
      <trkpt lat="44.50281" lon="0.94186">
        <ele>82.33</ele>
        <time>2014-04-05T12:35:24Z</time>
      </trkpt>
      <trkpt lat="44.50329" lon="0.94183">
        <ele>81.37</ele>
        <time>2014-04-05T12:35:34Z</time>
      </trkpt>
      <trkpt lat="44.50357" lon="0.9418">
        <ele>81.37</ele>
        <time>2014-04-05T12:35:40Z</time>
      </trkpt>
      <trkpt lat="44.50398" lon="0.94177">
        <ele>81.37</ele>
        <time>2014-04-05T12:35:49Z</time>
      </trkpt>
      <trkpt lat="44.50429" lon="0.94175">
        <ele>81.37</ele>
        <time>2014-04-05T12:35:56Z</time>
      </trkpt>
      <trkpt lat="44.50452" lon="0.94173">
        <ele>81.37</ele>
        <time>2014-04-05T12:36:01Z</time>
      </trkpt>
      <trkpt lat="44.50496" lon="0.94172">
        <ele>82.33</ele>
        <time>2014-04-05T12:36:11Z</time>
      </trkpt>
      <trkpt lat="44.5051" lon="0.9417">
        <ele>82.33</ele>
        <time>2014-04-05T12:36:14Z</time>
      </trkpt>
      <trkpt lat="44.50551" lon="0.94167">
        <ele>83.29</ele>
        <time>2014-04-05T12:36:23Z</time>
      </trkpt>
      <trkpt lat="44.50578" lon="0.94162">
        <ele>84.25</ele>
        <time>2014-04-05T12:36:29Z</time>
      </trkpt>
      <trkpt lat="44.50614" lon="0.94158">
        <ele>84.73</ele>
        <time>2014-04-05T12:36:37Z</time>
      </trkpt>
      <trkpt lat="44.50634" lon="0.94154">
        <ele>86.18</ele>
        <time>2014-04-05T12:36:42Z</time>
      </trkpt>
      <trkpt lat="44.50653" lon="0.94156">
        <ele>86.66</ele>
        <time>2014-04-05T12:36:47Z</time>
      </trkpt>
      <trkpt lat="44.50657" lon="0.94156">
        <ele>86.66</ele>
        <time>2014-04-05T12:36:48Z</time>
      </trkpt>
      <trkpt lat="44.50661" lon="0.94155">
        <ele>86.66</ele>
        <time>2014-04-05T12:36:49Z</time>
      </trkpt>
      <trkpt lat="44.50718" lon="0.94138">
        <ele>88.1</ele>
        <time>2014-04-05T12:37:05Z</time>
      </trkpt>
      <trkpt lat="44.5072" lon="0.94134">
        <ele>89.06</ele>
        <time>2014-04-05T12:37:08Z</time>
      </trkpt>
      <trkpt lat="44.50721" lon="0.94133">
        <ele>89.06</ele>
        <time>2014-04-05T12:37:09Z</time>
      </trkpt>
      <trkpt lat="44.50735" lon="0.94116">
        <ele>89.06</ele>
        <time>2014-04-05T12:37:19Z</time>
      </trkpt>
      <trkpt lat="44.50778" lon="0.94084">
        <ele>86.18</ele>
        <time>2014-04-05T12:37:31Z</time>
      </trkpt>
      <trkpt lat="44.50819" lon="0.9405">
        <ele>84.25</ele>
        <time>2014-04-05T12:37:41Z</time>
      </trkpt>
      <trkpt lat="44.50823" lon="0.94047">
        <ele>84.25</ele>
        <time>2014-04-05T12:37:42Z</time>
      </trkpt>
      <trkpt lat="44.50865" lon="0.94016">
        <ele>82.81</ele>
        <time>2014-04-05T12:37:52Z</time>
      </trkpt>
      <trkpt lat="44.50937" lon="0.93967">
        <ele>80.41</ele>
        <time>2014-04-05T12:38:08Z</time>
      </trkpt>
      <trkpt lat="44.50957" lon="0.93951">
        <ele>79.45</ele>
        <time>2014-04-05T12:38:13Z</time>
      </trkpt>
      <trkpt lat="44.50961" lon="0.93948">
        <ele>78.97</ele>
        <time>2014-04-05T12:38:14Z</time>
      </trkpt>
      <trkpt lat="44.50997" lon="0.93923">
        <ele>80.89</ele>
        <time>2014-04-05T12:38:23Z</time>
      </trkpt>
      <trkpt lat="44.51001" lon="0.9392">
        <ele>80.89</ele>
        <time>2014-04-05T12:38:24Z</time>
      </trkpt>
      <trkpt lat="44.51012" lon="0.93911">
        <ele>82.33</ele>
        <time>2014-04-05T12:38:27Z</time>
      </trkpt>
      <trkpt lat="44.51015" lon="0.93907">
        <ele>83.29</ele>
        <time>2014-04-05T12:38:28Z</time>
      </trkpt>
      <trkpt lat="44.51019" lon="0.93904">
        <ele>83.29</ele>
        <time>2014-04-05T12:38:29Z</time>
      </trkpt>
      <trkpt lat="44.5104" lon="0.93889">
        <ele>84.73</ele>
        <time>2014-04-05T12:38:34Z</time>
      </trkpt>
      <trkpt lat="44.51069" lon="0.93868">
        <ele>85.21</ele>
        <time>2014-04-05T12:38:41Z</time>
      </trkpt>
      <trkpt lat="44.51073" lon="0.93864">
        <ele>85.21</ele>
        <time>2014-04-05T12:38:42Z</time>
      </trkpt>
      <trkpt lat="44.51091" lon="0.93854">
        <ele>85.69</ele>
        <time>2014-04-05T12:38:46Z</time>
      </trkpt>
      <trkpt lat="44.51095" lon="0.93853">
        <ele>85.21</ele>
        <time>2014-04-05T12:38:47Z</time>
      </trkpt>
      <trkpt lat="44.51125" lon="0.93845">
        <ele>84.73</ele>
        <time>2014-04-05T12:38:54Z</time>
      </trkpt>
      <trkpt lat="44.51129" lon="0.93843">
        <ele>84.73</ele>
        <time>2014-04-05T12:38:55Z</time>
      </trkpt>
      <trkpt lat="44.51142" lon="0.93835">
        <ele>84.25</ele>
        <time>2014-04-05T12:38:58Z</time>
      </trkpt>
      <trkpt lat="44.51146" lon="0.93831">
        <ele>84.25</ele>
        <time>2014-04-05T12:38:59Z</time>
      </trkpt>
      <trkpt lat="44.5115" lon="0.93827">
        <ele>83.77</ele>
        <time>2014-04-05T12:39:00Z</time>
      </trkpt>
      <trkpt lat="44.51153" lon="0.93821">
        <ele>83.77</ele>
        <time>2014-04-05T12:39:01Z</time>
      </trkpt>
      <trkpt lat="44.51156" lon="0.93816">
        <ele>83.77</ele>
        <time>2014-04-05T12:39:02Z</time>
      </trkpt>
      <trkpt lat="44.51159" lon="0.93811">
        <ele>83.77</ele>
        <time>2014-04-05T12:39:03Z</time>
      </trkpt>
      <trkpt lat="44.51162" lon="0.93806">
        <ele>84.25</ele>
        <time>2014-04-05T12:39:04Z</time>
      </trkpt>
      <trkpt lat="44.51167" lon="0.93803">
        <ele>84.25</ele>
        <time>2014-04-05T12:39:05Z</time>
      </trkpt>
      <trkpt lat="44.51172" lon="0.93801">
        <ele>83.77</ele>
        <time>2014-04-05T12:39:06Z</time>
      </trkpt>
      <trkpt lat="44.51191" lon="0.93791">
        <ele>83.29</ele>
        <time>2014-04-05T12:39:10Z</time>
      </trkpt>
      <trkpt lat="44.512" lon="0.93785">
        <ele>82.81</ele>
        <time>2014-04-05T12:39:12Z</time>
      </trkpt>
      <trkpt lat="44.51218" lon="0.93776">
        <ele>82.33</ele>
        <time>2014-04-05T12:39:16Z</time>
      </trkpt>
      <trkpt lat="44.51222" lon="0.93773">
        <ele>81.85</ele>
        <time>2014-04-05T12:39:17Z</time>
      </trkpt>
      <trkpt lat="44.51277" lon="0.93745">
        <ele>79.45</ele>
        <time>2014-04-05T12:39:30Z</time>
      </trkpt>
      <trkpt lat="44.51281" lon="0.93743">
        <ele>79.45</ele>
        <time>2014-04-05T12:39:31Z</time>
      </trkpt>
      <trkpt lat="44.51286" lon="0.93741">
        <ele>79.45</ele>
        <time>2014-04-05T12:39:32Z</time>
      </trkpt>
      <trkpt lat="44.5129" lon="0.93739">
        <ele>79.45</ele>
        <time>2014-04-05T12:39:33Z</time>
      </trkpt>
      <trkpt lat="44.51295" lon="0.93737">
        <ele>78.97</ele>
        <time>2014-04-05T12:39:34Z</time>
      </trkpt>
      <trkpt lat="44.51343" lon="0.93714">
        <ele>78.48</ele>
        <time>2014-04-05T12:39:45Z</time>
      </trkpt>
      <trkpt lat="44.51347" lon="0.93712">
        <ele>78.48</ele>
        <time>2014-04-05T12:39:46Z</time>
      </trkpt>
      <trkpt lat="44.51351" lon="0.93709">
        <ele>78.48</ele>
        <time>2014-04-05T12:39:47Z</time>
      </trkpt>
      <trkpt lat="44.51372" lon="0.93702">
        <ele>78.97</ele>
        <time>2014-04-05T12:39:52Z</time>
      </trkpt>
      <trkpt lat="44.51408" lon="0.93691">
        <ele>78.97</ele>
        <time>2014-04-05T12:40:01Z</time>
      </trkpt>
      <trkpt lat="44.51412" lon="0.9369">
        <ele>78.97</ele>
        <time>2014-04-05T12:40:02Z</time>
      </trkpt>
      <trkpt lat="44.51478" lon="0.93674">
        <ele>79.93</ele>
        <time>2014-04-05T12:40:18Z</time>
      </trkpt>
      <trkpt lat="44.51541" lon="0.93663">
        <ele>81.37</ele>
        <time>2014-04-05T12:40:34Z</time>
      </trkpt>
      <trkpt lat="44.51549" lon="0.93661">
        <ele>81.37</ele>
        <time>2014-04-05T12:40:36Z</time>
      </trkpt>
      <trkpt lat="44.51565" lon="0.93658">
        <ele>81.85</ele>
        <time>2014-04-05T12:40:40Z</time>
      </trkpt>
      <trkpt lat="44.51573" lon="0.93656">
        <ele>81.37</ele>
        <time>2014-04-05T12:40:42Z</time>
      </trkpt>
      <trkpt lat="44.51608" lon="0.93653">
        <ele>81.37</ele>
        <time>2014-04-05T12:40:50Z</time>
      </trkpt>
      <trkpt lat="44.51625" lon="0.93654">
        <ele>81.37</ele>
        <time>2014-04-05T12:40:54Z</time>
      </trkpt>
      <trkpt lat="44.51633" lon="0.93656">
        <ele>81.37</ele>
        <time>2014-04-05T12:40:56Z</time>
      </trkpt>
      <trkpt lat="44.51667" lon="0.93656">
        <ele>82.81</ele>
        <time>2014-04-05T12:41:05Z</time>
      </trkpt>
      <trkpt lat="44.51669" lon="0.93653">
        <ele>83.29</ele>
        <time>2014-04-05T12:41:06Z</time>
      </trkpt>
      <trkpt lat="44.5167" lon="0.93649">
        <ele>83.29</ele>
        <time>2014-04-05T12:41:07Z</time>
      </trkpt>
      <trkpt lat="44.5167" lon="0.93644">
        <ele>83.29</ele>
        <time>2014-04-05T12:41:08Z</time>
      </trkpt>
      <trkpt lat="44.5167" lon="0.93639">
        <ele>83.29</ele>
        <time>2014-04-05T12:41:09Z</time>
      </trkpt>
      <trkpt lat="44.5167" lon="0.93634">
        <ele>83.29</ele>
        <time>2014-04-05T12:41:10Z</time>
      </trkpt>
      <trkpt lat="44.5167" lon="0.9363">
        <ele>83.29</ele>
        <time>2014-04-05T12:41:11Z</time>
      </trkpt>
      <trkpt lat="44.5167" lon="0.93609">
        <ele>82.81</ele>
        <time>2014-04-05T12:41:15Z</time>
      </trkpt>
      <trkpt lat="44.51673" lon="0.93604">
        <ele>83.29</ele>
        <time>2014-04-05T12:41:16Z</time>
      </trkpt>
      <trkpt lat="44.51676" lon="0.93601">
        <ele>83.29</ele>
        <time>2014-04-05T12:41:17Z</time>
      </trkpt>
      <trkpt lat="44.51691" lon="0.9359">
        <ele>83.77</ele>
        <time>2014-04-05T12:41:21Z</time>
      </trkpt>
      <trkpt lat="44.51694" lon="0.93586">
        <ele>83.77</ele>
        <time>2014-04-05T12:41:22Z</time>
      </trkpt>
      <trkpt lat="44.51696" lon="0.93582">
        <ele>84.25</ele>
        <time>2014-04-05T12:41:23Z</time>
      </trkpt>
      <trkpt lat="44.51698" lon="0.93578">
        <ele>84.25</ele>
        <time>2014-04-05T12:41:24Z</time>
      </trkpt>
      <trkpt lat="44.51699" lon="0.93574">
        <ele>84.25</ele>
        <time>2014-04-05T12:41:25Z</time>
      </trkpt>
      <trkpt lat="44.517" lon="0.9357">
        <ele>84.73</ele>
        <time>2014-04-05T12:41:26Z</time>
      </trkpt>
      <trkpt lat="44.51701" lon="0.93526">
        <ele>89.54</ele>
        <time>2014-04-05T12:41:36Z</time>
      </trkpt>
      <trkpt lat="44.51704" lon="0.93471">
        <ele>93.39</ele>
        <time>2014-04-05T12:41:48Z</time>
      </trkpt>
      <trkpt lat="44.51706" lon="0.93408">
        <ele>98.19</ele>
        <time>2014-04-05T12:42:01Z</time>
      </trkpt>
      <trkpt lat="44.51706" lon="0.93354">
        <ele>99.63</ele>
        <time>2014-04-05T12:42:15Z</time>
      </trkpt>
      <trkpt lat="44.51706" lon="0.93345">
        <ele>99.63</ele>
        <time>2014-04-05T12:42:21Z</time>
      </trkpt>
      <trkpt lat="44.51707" lon="0.93344">
        <ele>99.15</ele>
        <time>2014-04-05T12:42:34Z</time>
      </trkpt>
      <trkpt lat="44.51707" lon="0.93344">
        <ele>100.11</ele>
        <time>2014-04-05T12:42:53Z</time>
      </trkpt>
      <trkpt lat="44.51707" lon="0.93343">
        <ele>101.08</ele>
        <time>2014-04-05T12:43:10Z</time>
      </trkpt>
      <trkpt lat="44.51707" lon="0.93343">
        <ele>101.08</ele>
        <time>2014-04-05T12:43:38Z</time>
      </trkpt>
      <trkpt lat="44.51715" lon="0.93342">
        <ele>101.56</ele>
        <time>2014-04-05T12:43:54Z</time>
      </trkpt>
      <trkpt lat="44.51765" lon="0.93353">
        <ele>100.11</ele>
        <time>2014-04-05T12:44:06Z</time>
      </trkpt>
      <trkpt lat="44.51769" lon="0.93353">
        <ele>100.11</ele>
        <time>2014-04-05T12:44:07Z</time>
      </trkpt>
      <trkpt lat="44.51774" lon="0.93353">
        <ele>99.63</ele>
        <time>2014-04-05T12:44:08Z</time>
      </trkpt>
      <trkpt lat="44.51869" lon="0.93321">
        <ele>95.79</ele>
        <time>2014-04-05T12:44:26Z</time>
      </trkpt>
      <trkpt lat="44.51963" lon="0.93251">
        <ele>90.98</ele>
        <time>2014-04-05T12:44:41Z</time>
      </trkpt>
      <trkpt lat="44.5205" lon="0.93205">
        <ele>87.14</ele>
        <time>2014-04-05T12:44:53Z</time>
      </trkpt>
      <trkpt lat="44.52094" lon="0.93187">
        <ele>86.66</ele>
        <time>2014-04-05T12:45:00Z</time>
      </trkpt>
      <trkpt lat="44.52099" lon="0.93186">
        <ele>86.66</ele>
        <time>2014-04-05T12:45:01Z</time>
      </trkpt>
      <trkpt lat="44.52105" lon="0.93186">
        <ele>86.66</ele>
        <time>2014-04-05T12:45:02Z</time>
      </trkpt>
      <trkpt lat="44.52111" lon="0.93188">
        <ele>86.66</ele>
        <time>2014-04-05T12:45:03Z</time>
      </trkpt>
      <trkpt lat="44.52117" lon="0.93191">
        <ele>86.18</ele>
        <time>2014-04-05T12:45:04Z</time>
      </trkpt>
      <trkpt lat="44.52122" lon="0.93194">
        <ele>86.66</ele>
        <time>2014-04-05T12:45:05Z</time>
      </trkpt>
      <trkpt lat="44.52128" lon="0.93198">
        <ele>86.66</ele>
        <time>2014-04-05T12:45:06Z</time>
      </trkpt>
      <trkpt lat="44.52132" lon="0.93203">
        <ele>86.66</ele>
        <time>2014-04-05T12:45:07Z</time>
      </trkpt>
      <trkpt lat="44.52137" lon="0.93208">
        <ele>86.66</ele>
        <time>2014-04-05T12:45:08Z</time>
      </trkpt>
      <trkpt lat="44.5214" lon="0.93214">
        <ele>87.14</ele>
        <time>2014-04-05T12:45:09Z</time>
      </trkpt>
      <trkpt lat="44.52143" lon="0.9322">
        <ele>87.14</ele>
        <time>2014-04-05T12:45:10Z</time>
      </trkpt>
      <trkpt lat="44.52146" lon="0.93226">
        <ele>87.62</ele>
        <time>2014-04-05T12:45:11Z</time>
      </trkpt>
      <trkpt lat="44.52176" lon="0.93321">
        <ele>87.14</ele>
        <time>2014-04-05T12:45:25Z</time>
      </trkpt>
      <trkpt lat="44.52179" lon="0.93367">
        <ele>87.62</ele>
        <time>2014-04-05T12:45:32Z</time>
      </trkpt>
      <trkpt lat="44.52172" lon="0.93401">
        <ele>90.5</ele>
        <time>2014-04-05T12:45:38Z</time>
      </trkpt>
      <trkpt lat="44.5217" lon="0.93406">
        <ele>91.46</ele>
        <time>2014-04-05T12:45:39Z</time>
      </trkpt>
      <trkpt lat="44.52161" lon="0.93425">
        <ele>94.35</ele>
        <time>2014-04-05T12:45:43Z</time>
      </trkpt>
      <trkpt lat="44.52138" lon="0.93463">
        <ele>98.19</ele>
        <time>2014-04-05T12:45:51Z</time>
      </trkpt>
      <trkpt lat="44.52135" lon="0.93467">
        <ele>98.67</ele>
        <time>2014-04-05T12:45:52Z</time>
      </trkpt>
      <trkpt lat="44.52132" lon="0.93472">
        <ele>98.67</ele>
        <time>2014-04-05T12:45:53Z</time>
      </trkpt>
      <trkpt lat="44.52129" lon="0.93478">
        <ele>99.15</ele>
        <time>2014-04-05T12:45:54Z</time>
      </trkpt>
      <trkpt lat="44.52126" lon="0.93483">
        <ele>99.15</ele>
        <time>2014-04-05T12:45:55Z</time>
      </trkpt>
      <trkpt lat="44.52124" lon="0.93489">
        <ele>99.15</ele>
        <time>2014-04-05T12:45:56Z</time>
      </trkpt>
      <trkpt lat="44.52122" lon="0.93495">
        <ele>99.63</ele>
        <time>2014-04-05T12:45:57Z</time>
      </trkpt>
      <trkpt lat="44.5212" lon="0.93501">
        <ele>100.11</ele>
        <time>2014-04-05T12:45:58Z</time>
      </trkpt>
      <trkpt lat="44.52119" lon="0.93508">
        <ele>100.11</ele>
        <time>2014-04-05T12:45:59Z</time>
      </trkpt>
      <trkpt lat="44.52118" lon="0.93514">
        <ele>100.6</ele>
        <time>2014-04-05T12:46:00Z</time>
      </trkpt>
      <trkpt lat="44.52118" lon="0.9352">
        <ele>101.08</ele>
        <time>2014-04-05T12:46:01Z</time>
      </trkpt>
      <trkpt lat="44.52119" lon="0.93527">
        <ele>101.56</ele>
        <time>2014-04-05T12:46:02Z</time>
      </trkpt>
      <trkpt lat="44.52119" lon="0.93533">
        <ele>101.56</ele>
        <time>2014-04-05T12:46:03Z</time>
      </trkpt>
      <trkpt lat="44.5212" lon="0.9354">
        <ele>102.04</ele>
        <time>2014-04-05T12:46:04Z</time>
      </trkpt>
      <trkpt lat="44.52122" lon="0.93546">
        <ele>102.04</ele>
        <time>2014-04-05T12:46:05Z</time>
      </trkpt>
      <trkpt lat="44.52124" lon="0.93551">
        <ele>102.04</ele>
        <time>2014-04-05T12:46:06Z</time>
      </trkpt>
      <trkpt lat="44.52126" lon="0.93557">
        <ele>102.04</ele>
        <time>2014-04-05T12:46:07Z</time>
      </trkpt>
      <trkpt lat="44.52128" lon="0.93561">
        <ele>102.04</ele>
        <time>2014-04-05T12:46:08Z</time>
      </trkpt>
      <trkpt lat="44.52131" lon="0.93566">
        <ele>102.52</ele>
        <time>2014-04-05T12:46:09Z</time>
      </trkpt>
      <trkpt lat="44.52134" lon="0.9357">
        <ele>102.52</ele>
        <time>2014-04-05T12:46:10Z</time>
      </trkpt>
      <trkpt lat="44.52137" lon="0.93574">
        <ele>102.04</ele>
        <time>2014-04-05T12:46:11Z</time>
      </trkpt>
      <trkpt lat="44.52141" lon="0.93577">
        <ele>102.04</ele>
        <time>2014-04-05T12:46:12Z</time>
      </trkpt>
      <trkpt lat="44.52144" lon="0.9358">
        <ele>102.04</ele>
        <time>2014-04-05T12:46:13Z</time>
      </trkpt>
      <trkpt lat="44.52147" lon="0.93583">
        <ele>101.56</ele>
        <time>2014-04-05T12:46:14Z</time>
      </trkpt>
      <trkpt lat="44.52147" lon="0.93587">
        <ele>101.08</ele>
        <time>2014-04-05T12:46:15Z</time>
      </trkpt>
      <trkpt lat="44.52145" lon="0.93589">
        <ele>100.6</ele>
        <time>2014-04-05T12:46:16Z</time>
      </trkpt>
      <trkpt lat="44.52143" lon="0.93591">
        <ele>99.63</ele>
        <time>2014-04-05T12:46:17Z</time>
      </trkpt>
      <trkpt lat="44.5214" lon="0.93594">
        <ele>99.15</ele>
        <time>2014-04-05T12:46:18Z</time>
      </trkpt>
      <trkpt lat="44.52125" lon="0.93631">
        <ele>95.31</ele>
        <time>2014-04-05T12:46:24Z</time>
      </trkpt>
      <trkpt lat="44.52121" lon="0.93658">
        <ele>94.83</ele>
        <time>2014-04-05T12:46:27Z</time>
      </trkpt>
      <trkpt lat="44.52114" lon="0.93686">
        <ele>93.87</ele>
        <time>2014-04-05T12:46:30Z</time>
      </trkpt>
      <trkpt lat="44.52107" lon="0.93743">
        <ele>92.42</ele>
        <time>2014-04-05T12:46:37Z</time>
      </trkpt>
      <trkpt lat="44.52112" lon="0.93748">
        <ele>91.94</ele>
        <time>2014-04-05T12:46:38Z</time>
      </trkpt>
      <trkpt lat="44.52117" lon="0.9375">
        <ele>91.46</ele>
        <time>2014-04-05T12:46:39Z</time>
      </trkpt>
      <trkpt lat="44.52123" lon="0.93751">
        <ele>90.5</ele>
        <time>2014-04-05T12:46:40Z</time>
      </trkpt>
      <trkpt lat="44.5213" lon="0.93751">
        <ele>89.54</ele>
        <time>2014-04-05T12:46:41Z</time>
      </trkpt>
      <trkpt lat="44.52137" lon="0.93751">
        <ele>89.06</ele>
        <time>2014-04-05T12:46:42Z</time>
      </trkpt>
      <trkpt lat="44.52211" lon="0.93767">
        <ele>85.21</ele>
        <time>2014-04-05T12:46:51Z</time>
      </trkpt>
      <trkpt lat="44.5228" lon="0.9379">
        <ele>84.73</ele>
        <time>2014-04-05T12:47:03Z</time>
      </trkpt>
      <trkpt lat="44.5236" lon="0.93825">
        <ele>83.29</ele>
        <time>2014-04-05T12:47:18Z</time>
      </trkpt>
      <trkpt lat="44.5242" lon="0.93858">
        <ele>83.29</ele>
        <time>2014-04-05T12:47:30Z</time>
      </trkpt>
      <trkpt lat="44.52444" lon="0.93873">
        <ele>83.29</ele>
        <time>2014-04-05T12:47:35Z</time>
      </trkpt>
      <trkpt lat="44.52516" lon="0.93926">
        <ele>83.77</ele>
        <time>2014-04-05T12:47:50Z</time>
      </trkpt>
      <trkpt lat="44.52581" lon="0.93982">
        <ele>84.73</ele>
        <time>2014-04-05T12:48:05Z</time>
      </trkpt>
      <trkpt lat="44.52634" lon="0.94025">
        <ele>85.21</ele>
        <time>2014-04-05T12:48:17Z</time>
      </trkpt>
      <trkpt lat="44.52655" lon="0.94043">
        <ele>85.69</ele>
        <time>2014-04-05T12:48:22Z</time>
      </trkpt>
      <trkpt lat="44.52694" lon="0.94074">
        <ele>87.62</ele>
        <time>2014-04-05T12:48:34Z</time>
      </trkpt>
      <trkpt lat="44.52694" lon="0.94073">
        <ele>87.62</ele>
        <time>2014-04-05T12:48:47Z</time>
      </trkpt>
      <trkpt lat="44.52694" lon="0.94074">
        <ele>87.62</ele>
        <time>2014-04-05T12:48:48Z</time>
      </trkpt>
      <trkpt lat="44.52701" lon="0.9407">
        <ele>87.62</ele>
        <time>2014-04-05T12:48:59Z</time>
      </trkpt>
      <trkpt lat="44.527" lon="0.94071">
        <ele>87.62</ele>
        <time>2014-04-05T12:49:01Z</time>
      </trkpt>
      <trkpt lat="44.52699" lon="0.94073">
        <ele>87.62</ele>
        <time>2014-04-05T12:49:02Z</time>
      </trkpt>
      <trkpt lat="44.52698" lon="0.94076">
        <ele>87.62</ele>
        <time>2014-04-05T12:49:03Z</time>
      </trkpt>
      <trkpt lat="44.52697" lon="0.9408">
        <ele>88.1</ele>
        <time>2014-04-05T12:49:04Z</time>
      </trkpt>
      <trkpt lat="44.52696" lon="0.94085">
        <ele>88.1</ele>
        <time>2014-04-05T12:49:05Z</time>
      </trkpt>
      <trkpt lat="44.52694" lon="0.94091">
        <ele>88.1</ele>
        <time>2014-04-05T12:49:06Z</time>
      </trkpt>
      <trkpt lat="44.52694" lon="0.94098">
        <ele>88.1</ele>
        <time>2014-04-05T12:49:07Z</time>
      </trkpt>
      <trkpt lat="44.52693" lon="0.94106">
        <ele>87.62</ele>
        <time>2014-04-05T12:49:08Z</time>
      </trkpt>
      <trkpt lat="44.52693" lon="0.94114">
        <ele>87.62</ele>
        <time>2014-04-05T12:49:09Z</time>
      </trkpt>
      <trkpt lat="44.52694" lon="0.94122">
        <ele>87.62</ele>
        <time>2014-04-05T12:49:10Z</time>
      </trkpt>
      <trkpt lat="44.52703" lon="0.94165">
        <ele>86.18</ele>
        <time>2014-04-05T12:49:15Z</time>
      </trkpt>
      <trkpt lat="44.52704" lon="0.94174">
        <ele>86.18</ele>
        <time>2014-04-05T12:49:16Z</time>
      </trkpt>
      <trkpt lat="44.52703" lon="0.942">
        <ele>85.69</ele>
        <time>2014-04-05T12:49:19Z</time>
      </trkpt>
      <trkpt lat="44.52696" lon="0.94288">
        <ele>85.69</ele>
        <time>2014-04-05T12:49:31Z</time>
      </trkpt>
      <trkpt lat="44.52698" lon="0.94293">
        <ele>85.69</ele>
        <time>2014-04-05T12:49:32Z</time>
      </trkpt>
      <trkpt lat="44.52702" lon="0.94296">
        <ele>85.21</ele>
        <time>2014-04-05T12:49:33Z</time>
      </trkpt>
      <trkpt lat="44.52706" lon="0.94298">
        <ele>85.21</ele>
        <time>2014-04-05T12:49:34Z</time>
      </trkpt>
      <trkpt lat="44.5271" lon="0.94299">
        <ele>84.73</ele>
        <time>2014-04-05T12:49:35Z</time>
      </trkpt>
      <trkpt lat="44.52714" lon="0.94301">
        <ele>84.73</ele>
        <time>2014-04-05T12:49:36Z</time>
      </trkpt>
      <trkpt lat="44.52725" lon="0.94305">
        <ele>84.25</ele>
        <time>2014-04-05T12:49:39Z</time>
      </trkpt>
      <trkpt lat="44.52738" lon="0.94309">
        <ele>84.25</ele>
        <time>2014-04-05T12:49:42Z</time>
      </trkpt>
      <trkpt lat="44.52742" lon="0.94311">
        <ele>84.25</ele>
        <time>2014-04-05T12:49:43Z</time>
      </trkpt>
      <trkpt lat="44.52746" lon="0.94315">
        <ele>84.25</ele>
        <time>2014-04-05T12:49:44Z</time>
      </trkpt>
      <trkpt lat="44.52749" lon="0.94319">
        <ele>83.77</ele>
        <time>2014-04-05T12:49:45Z</time>
      </trkpt>
      <trkpt lat="44.52751" lon="0.94324">
        <ele>83.77</ele>
        <time>2014-04-05T12:49:46Z</time>
      </trkpt>
      <trkpt lat="44.52751" lon="0.94329">
        <ele>84.25</ele>
        <time>2014-04-05T12:49:47Z</time>
      </trkpt>
      <trkpt lat="44.5275" lon="0.94335">
        <ele>84.25</ele>
        <time>2014-04-05T12:49:48Z</time>
      </trkpt>
      <trkpt lat="44.52749" lon="0.9434">
        <ele>84.25</ele>
        <time>2014-04-05T12:49:49Z</time>
      </trkpt>
      <trkpt lat="44.52757" lon="0.94377">
        <ele>85.21</ele>
        <time>2014-04-05T12:49:57Z</time>
      </trkpt>
      <trkpt lat="44.52772" lon="0.94389">
        <ele>85.69</ele>
        <time>2014-04-05T12:50:01Z</time>
      </trkpt>
      <trkpt lat="44.52795" lon="0.94402">
        <ele>86.66</ele>
        <time>2014-04-05T12:50:07Z</time>
      </trkpt>
      <trkpt lat="44.52828" lon="0.94441">
        <ele>87.14</ele>
        <time>2014-04-05T12:50:18Z</time>
      </trkpt>
      <trkpt lat="44.52864" lon="0.94465">
        <ele>88.1</ele>
        <time>2014-04-05T12:50:28Z</time>
      </trkpt>
      <trkpt lat="44.52871" lon="0.94482">
        <ele>89.54</ele>
        <time>2014-04-05T12:50:32Z</time>
      </trkpt>
      <trkpt lat="44.52881" lon="0.9454">
        <ele>91.46</ele>
        <time>2014-04-05T12:50:44Z</time>
      </trkpt>
      <trkpt lat="44.52898" lon="0.94589">
        <ele>94.83</ele>
        <time>2014-04-05T12:50:56Z</time>
      </trkpt>
      <trkpt lat="44.52923" lon="0.94641">
        <ele>92.9</ele>
        <time>2014-04-05T12:51:09Z</time>
      </trkpt>
      <trkpt lat="44.52945" lon="0.94659">
        <ele>92.42</ele>
        <time>2014-04-05T12:51:18Z</time>
      </trkpt>
      <trkpt lat="44.52981" lon="0.94676">
        <ele>91.46</ele>
        <time>2014-04-05T12:51:30Z</time>
      </trkpt>
      <trkpt lat="44.53019" lon="0.94687">
        <ele>91.46</ele>
        <time>2014-04-05T12:51:43Z</time>
      </trkpt>
      <trkpt lat="44.53062" lon="0.94685">
        <ele>91.94</ele>
        <time>2014-04-05T12:51:56Z</time>
      </trkpt>
      <trkpt lat="44.53102" lon="0.9469">
        <ele>91.94</ele>
        <time>2014-04-05T12:52:09Z</time>
      </trkpt>
      <trkpt lat="44.53137" lon="0.94696">
        <ele>90.98</ele>
        <time>2014-04-05T12:52:20Z</time>
      </trkpt>
      <trkpt lat="44.5318" lon="0.94683">
        <ele>90.02</ele>
        <time>2014-04-05T12:52:33Z</time>
      </trkpt>
      <trkpt lat="44.53186" lon="0.94683">
        <ele>89.54</ele>
        <time>2014-04-05T12:52:35Z</time>
      </trkpt>
      <trkpt lat="44.53198" lon="0.9468">
        <ele>89.54</ele>
        <time>2014-04-05T12:52:39Z</time>
      </trkpt>
      <trkpt lat="44.53242" lon="0.94673">
        <ele>89.54</ele>
        <time>2014-04-05T12:52:53Z</time>
      </trkpt>
      <trkpt lat="44.53292" lon="0.94658">
        <ele>89.06</ele>
        <time>2014-04-05T12:53:08Z</time>
      </trkpt>
      <trkpt lat="44.53338" lon="0.9463">
        <ele>89.06</ele>
        <time>2014-04-05T12:53:22Z</time>
      </trkpt>
      <trkpt lat="44.53382" lon="0.94598">
        <ele>88.1</ele>
        <time>2014-04-05T12:53:37Z</time>
      </trkpt>
      <trkpt lat="44.53424" lon="0.9457">
        <ele>89.06</ele>
        <time>2014-04-05T12:53:52Z</time>
      </trkpt>
      <trkpt lat="44.5346" lon="0.94557">
        <ele>89.06</ele>
        <time>2014-04-05T12:54:05Z</time>
      </trkpt>
      <trkpt lat="44.5349" lon="0.94556">
        <ele>90.02</ele>
        <time>2014-04-05T12:54:16Z</time>
      </trkpt>
      <trkpt lat="44.53522" lon="0.94554">
        <ele>90.98</ele>
        <time>2014-04-05T12:54:27Z</time>
      </trkpt>
      <trkpt lat="44.53554" lon="0.94553">
        <ele>90.5</ele>
        <time>2014-04-05T12:54:39Z</time>
      </trkpt>
      <trkpt lat="44.53577" lon="0.94557">
        <ele>91.46</ele>
        <time>2014-04-05T12:54:50Z</time>
      </trkpt>
      <trkpt lat="44.53606" lon="0.94561">
        <ele>92.9</ele>
        <time>2014-04-05T12:55:01Z</time>
      </trkpt>
      <trkpt lat="44.53619" lon="0.94568">
        <ele>95.79</ele>
        <time>2014-04-05T12:55:07Z</time>
      </trkpt>
      <trkpt lat="44.53629" lon="0.94575">
        <ele>97.23</ele>
        <time>2014-04-05T12:55:12Z</time>
      </trkpt>
      <trkpt lat="44.53657" lon="0.94592">
        <ele>97.71</ele>
        <time>2014-04-05T12:55:25Z</time>
      </trkpt>
      <trkpt lat="44.53683" lon="0.94589">
        <ele>97.71</ele>
        <time>2014-04-05T12:55:34Z</time>
      </trkpt>
      <trkpt lat="44.53711" lon="0.94575">
        <ele>100.11</ele>
        <time>2014-04-05T12:55:45Z</time>
      </trkpt>
      <trkpt lat="44.53719" lon="0.94573">
        <ele>100.6</ele>
        <time>2014-04-05T12:55:50Z</time>
      </trkpt>
      <trkpt lat="44.53729" lon="0.94564">
        <ele>101.08</ele>
        <time>2014-04-05T12:56:03Z</time>
      </trkpt>
      <trkpt lat="44.53731" lon="0.94563">
        <ele>97.23</ele>
        <time>2014-04-05T12:56:30Z</time>
      </trkpt>
      <trkpt lat="44.53732" lon="0.94562">
        <ele>97.71</ele>
        <time>2014-04-05T12:56:49Z</time>
      </trkpt>
      <trkpt lat="44.53736" lon="0.94566">
        <ele>97.71</ele>
        <time>2014-04-05T12:56:54Z</time>
      </trkpt>
      <trkpt lat="44.53738" lon="0.94571">
        <ele>97.23</ele>
        <time>2014-04-05T12:56:59Z</time>
      </trkpt>
      <trkpt lat="44.53737" lon="0.9457">
        <ele>97.23</ele>
        <time>2014-04-05T12:57:10Z</time>
      </trkpt>
      <trkpt lat="44.53733" lon="0.94566">
        <ele>95.31</ele>
        <time>2014-04-05T12:57:20Z</time>
      </trkpt>
      <trkpt lat="44.53729" lon="0.94571">
        <ele>93.39</ele>
        <time>2014-04-05T12:57:35Z</time>
      </trkpt>
      <trkpt lat="44.53729" lon="0.94575">
        <ele>92.42</ele>
        <time>2014-04-05T12:57:40Z</time>
      </trkpt>
      <trkpt lat="44.53734" lon="0.94572">
        <ele>88.1</ele>
        <time>2014-04-05T12:57:55Z</time>
      </trkpt>
      <trkpt lat="44.53742" lon="0.94569">
        <ele>89.54</ele>
        <time>2014-04-05T12:58:05Z</time>
      </trkpt>
      <trkpt lat="44.53759" lon="0.94571">
        <ele>90.02</ele>
        <time>2014-04-05T12:58:17Z</time>
      </trkpt>
      <trkpt lat="44.5376" lon="0.9457">
        <ele>91.46</ele>
        <time>2014-04-05T12:58:37Z</time>
      </trkpt>
      <trkpt lat="44.53761" lon="0.9457">
        <ele>92.9</ele>
        <time>2014-04-05T12:58:52Z</time>
      </trkpt>
      <trkpt lat="44.53762" lon="0.94571">
        <ele>91.94</ele>
        <time>2014-04-05T12:59:15Z</time>
      </trkpt>
      <trkpt lat="44.53758" lon="0.94572">
        <ele>90.98</ele>
        <time>2014-04-05T12:59:27Z</time>
      </trkpt>
      <trkpt lat="44.53755" lon="0.94572">
        <ele>90.5</ele>
        <time>2014-04-05T12:59:31Z</time>
      </trkpt>
      <trkpt lat="44.53751" lon="0.94572">
        <ele>89.54</ele>
        <time>2014-04-05T12:59:34Z</time>
      </trkpt>
      <trkpt lat="44.53746" lon="0.94569">
        <ele>89.06</ele>
        <time>2014-04-05T12:59:41Z</time>
      </trkpt>
      <trkpt lat="44.53742" lon="0.94567">
        <ele>92.9</ele>
        <time>2014-04-05T12:59:54Z</time>
      </trkpt>
      <trkpt lat="44.53737" lon="0.94564">
        <ele>94.83</ele>
        <time>2014-04-05T13:00:02Z</time>
      </trkpt>
      <trkpt lat="44.53735" lon="0.94556">
        <ele>94.35</ele>
        <time>2014-04-05T13:00:06Z</time>
      </trkpt>
      <trkpt lat="44.53733" lon="0.94549">
        <ele>94.35</ele>
        <time>2014-04-05T13:00:09Z</time>
      </trkpt>
      <trkpt lat="44.53729" lon="0.94518">
        <ele>93.87</ele>
        <time>2014-04-05T13:00:22Z</time>
      </trkpt>
      <trkpt lat="44.5373" lon="0.94515">
        <ele>94.35</ele>
        <time>2014-04-05T13:00:23Z</time>
      </trkpt>
      <trkpt lat="44.5373" lon="0.94512">
        <ele>94.35</ele>
        <time>2014-04-05T13:00:24Z</time>
      </trkpt>
      <trkpt lat="44.53724" lon="0.94464">
        <ele>95.31</ele>
        <time>2014-04-05T13:00:38Z</time>
      </trkpt>
      <trkpt lat="44.53724" lon="0.94456">
        <ele>95.79</ele>
        <time>2014-04-05T13:00:41Z</time>
      </trkpt>
      <trkpt lat="44.53725" lon="0.94454">
        <ele>95.79</ele>
        <time>2014-04-05T13:00:42Z</time>
      </trkpt>
      <trkpt lat="44.53726" lon="0.94452">
        <ele>95.79</ele>
        <time>2014-04-05T13:00:43Z</time>
      </trkpt>
      <trkpt lat="44.53728" lon="0.9445">
        <ele>95.79</ele>
        <time>2014-04-05T13:00:44Z</time>
      </trkpt>
      <trkpt lat="44.5373" lon="0.94448">
        <ele>95.79</ele>
        <time>2014-04-05T13:00:45Z</time>
      </trkpt>
      <trkpt lat="44.53732" lon="0.94447">
        <ele>95.79</ele>
        <time>2014-04-05T13:00:46Z</time>
      </trkpt>
      <trkpt lat="44.53733" lon="0.94447">
        <ele>95.79</ele>
        <time>2014-04-05T13:00:47Z</time>
      </trkpt>
      <trkpt lat="44.53735" lon="0.94448">
        <ele>95.79</ele>
        <time>2014-04-05T13:00:48Z</time>
      </trkpt>
      <trkpt lat="44.53737" lon="0.94449">
        <ele>96.27</ele>
        <time>2014-04-05T13:00:49Z</time>
      </trkpt>
      <trkpt lat="44.5374" lon="0.94451">
        <ele>95.79</ele>
        <time>2014-04-05T13:00:51Z</time>
      </trkpt>
      <trkpt lat="44.53743" lon="0.94451">
        <ele>95.31</ele>
        <time>2014-04-05T13:00:54Z</time>
      </trkpt>
      <trkpt lat="44.53744" lon="0.94452">
        <ele>95.31</ele>
        <time>2014-04-05T13:00:55Z</time>
      </trkpt>
      <trkpt lat="44.53745" lon="0.94452">
        <ele>95.31</ele>
        <time>2014-04-05T13:00:56Z</time>
      </trkpt>
      <trkpt lat="44.53746" lon="0.94452">
        <ele>95.31</ele>
        <time>2014-04-05T13:01:04Z</time>
      </trkpt>
      <trkpt lat="44.53745" lon="0.94451">
        <ele>94.83</ele>
        <time>2014-04-05T13:01:05Z</time>
      </trkpt>
      <trkpt lat="44.53743" lon="0.9445">
        <ele>94.83</ele>
        <time>2014-04-05T13:01:06Z</time>
      </trkpt>
      <trkpt lat="44.53741" lon="0.94449">
        <ele>94.83</ele>
        <time>2014-04-05T13:01:07Z</time>
      </trkpt>
      <trkpt lat="44.53739" lon="0.94448">
        <ele>94.83</ele>
        <time>2014-04-05T13:01:08Z</time>
      </trkpt>
      <trkpt lat="44.53737" lon="0.94447">
        <ele>94.35</ele>
        <time>2014-04-05T13:01:09Z</time>
      </trkpt>
      <trkpt lat="44.53735" lon="0.94447">
        <ele>94.35</ele>
        <time>2014-04-05T13:01:10Z</time>
      </trkpt>
      <trkpt lat="44.53733" lon="0.94446">
        <ele>94.35</ele>
        <time>2014-04-05T13:01:11Z</time>
      </trkpt>
      <trkpt lat="44.53731" lon="0.94446">
        <ele>94.35</ele>
        <time>2014-04-05T13:01:12Z</time>
      </trkpt>
      <trkpt lat="44.53728" lon="0.94445">
        <ele>93.87</ele>
        <time>2014-04-05T13:01:13Z</time>
      </trkpt>
      <trkpt lat="44.53726" lon="0.94444">
        <ele>93.87</ele>
        <time>2014-04-05T13:01:14Z</time>
      </trkpt>
      <trkpt lat="44.53723" lon="0.94443">
        <ele>93.87</ele>
        <time>2014-04-05T13:01:15Z</time>
      </trkpt>
      <trkpt lat="44.53687" lon="0.94436">
        <ele>93.87</ele>
        <time>2014-04-05T13:01:26Z</time>
      </trkpt>
      <trkpt lat="44.53644" lon="0.94413">
        <ele>92.42</ele>
        <time>2014-04-05T13:01:38Z</time>
      </trkpt>
      <trkpt lat="44.5364" lon="0.9441">
        <ele>91.94</ele>
        <time>2014-04-05T13:01:39Z</time>
      </trkpt>
      <trkpt lat="44.53581" lon="0.94351">
        <ele>92.9</ele>
        <time>2014-04-05T13:01:53Z</time>
      </trkpt>
      <trkpt lat="44.53527" lon="0.94314">
        <ele>93.39</ele>
        <time>2014-04-05T13:02:05Z</time>
      </trkpt>
      <trkpt lat="44.53522" lon="0.94312">
        <ele>93.39</ele>
        <time>2014-04-05T13:02:06Z</time>
      </trkpt>
      <trkpt lat="44.53508" lon="0.94307">
        <ele>93.39</ele>
        <time>2014-04-05T13:02:09Z</time>
      </trkpt>
      <trkpt lat="44.53503" lon="0.94305">
        <ele>93.39</ele>
        <time>2014-04-05T13:02:10Z</time>
      </trkpt>
      <trkpt lat="44.53498" lon="0.94301">
        <ele>93.39</ele>
        <time>2014-04-05T13:02:11Z</time>
      </trkpt>
      <trkpt lat="44.53495" lon="0.94296">
        <ele>92.9</ele>
        <time>2014-04-05T13:02:12Z</time>
      </trkpt>
      <trkpt lat="44.53493" lon="0.9429">
        <ele>92.9</ele>
        <time>2014-04-05T13:02:13Z</time>
      </trkpt>
      <trkpt lat="44.53492" lon="0.94283">
        <ele>93.39</ele>
        <time>2014-04-05T13:02:14Z</time>
      </trkpt>
      <trkpt lat="44.53492" lon="0.94277">
        <ele>93.39</ele>
        <time>2014-04-05T13:02:15Z</time>
      </trkpt>
      <trkpt lat="44.53492" lon="0.9427">
        <ele>93.39</ele>
        <time>2014-04-05T13:02:16Z</time>
      </trkpt>
      <trkpt lat="44.53495" lon="0.94265">
        <ele>93.39</ele>
        <time>2014-04-05T13:02:17Z</time>
      </trkpt>
      <trkpt lat="44.53498" lon="0.9426">
        <ele>93.87</ele>
        <time>2014-04-05T13:02:18Z</time>
      </trkpt>
      <trkpt lat="44.53502" lon="0.94257">
        <ele>93.87</ele>
        <time>2014-04-05T13:02:19Z</time>
      </trkpt>
      <trkpt lat="44.53506" lon="0.94256">
        <ele>93.87</ele>
        <time>2014-04-05T13:02:20Z</time>
      </trkpt>
      <trkpt lat="44.53511" lon="0.94256">
        <ele>93.87</ele>
        <time>2014-04-05T13:02:21Z</time>
      </trkpt>
      <trkpt lat="44.5352" lon="0.94257">
        <ele>93.87</ele>
        <time>2014-04-05T13:02:23Z</time>
      </trkpt>
      <trkpt lat="44.53524" lon="0.94258">
        <ele>93.87</ele>
        <time>2014-04-05T13:02:24Z</time>
      </trkpt>
      <trkpt lat="44.53553" lon="0.94269">
        <ele>96.27</ele>
        <time>2014-04-05T13:02:31Z</time>
      </trkpt>
      <trkpt lat="44.53557" lon="0.94271">
        <ele>96.75</ele>
        <time>2014-04-05T13:02:32Z</time>
      </trkpt>
      <trkpt lat="44.53579" lon="0.94278">
        <ele>98.19</ele>
        <time>2014-04-05T13:02:37Z</time>
      </trkpt>
      <trkpt lat="44.53583" lon="0.94281">
        <ele>98.19</ele>
        <time>2014-04-05T13:02:38Z</time>
      </trkpt>
      <trkpt lat="44.53587" lon="0.94284">
        <ele>98.19</ele>
        <time>2014-04-05T13:02:39Z</time>
      </trkpt>
      <trkpt lat="44.53591" lon="0.94286">
        <ele>98.19</ele>
        <time>2014-04-05T13:02:40Z</time>
      </trkpt>
      <trkpt lat="44.53596" lon="0.94288">
        <ele>98.67</ele>
        <time>2014-04-05T13:02:41Z</time>
      </trkpt>
      <trkpt lat="44.536" lon="0.94291">
        <ele>98.67</ele>
        <time>2014-04-05T13:02:42Z</time>
      </trkpt>
      <trkpt lat="44.53645" lon="0.94317">
        <ele>97.71</ele>
        <time>2014-04-05T13:02:53Z</time>
      </trkpt>
      <trkpt lat="44.53677" lon="0.94339">
        <ele>97.23</ele>
        <time>2014-04-05T13:03:01Z</time>
      </trkpt>
      <trkpt lat="44.53696" lon="0.94339">
        <ele>97.71</ele>
        <time>2014-04-05T13:03:05Z</time>
      </trkpt>
      <trkpt lat="44.53725" lon="0.94345">
        <ele>98.19</ele>
        <time>2014-04-05T13:03:12Z</time>
      </trkpt>
      <trkpt lat="44.53741" lon="0.94356">
        <ele>99.15</ele>
        <time>2014-04-05T13:03:16Z</time>
      </trkpt>
      <trkpt lat="44.53794" lon="0.94382">
        <ele>96.75</ele>
        <time>2014-04-05T13:03:27Z</time>
      </trkpt>
      <trkpt lat="44.53829" lon="0.94405">
        <ele>96.27</ele>
        <time>2014-04-05T13:03:35Z</time>
      </trkpt>
      <trkpt lat="44.53869" lon="0.94432">
        <ele>95.31</ele>
        <time>2014-04-05T13:03:44Z</time>
      </trkpt>
      <trkpt lat="44.53894" lon="0.94455">
        <ele>95.31</ele>
        <time>2014-04-05T13:03:50Z</time>
      </trkpt>
      <trkpt lat="44.53941" lon="0.94476">
        <ele>98.19</ele>
        <time>2014-04-05T13:04:01Z</time>
      </trkpt>
      <trkpt lat="44.53949" lon="0.94477">
        <ele>98.19</ele>
        <time>2014-04-05T13:04:03Z</time>
      </trkpt>
      <trkpt lat="44.53967" lon="0.94478">
        <ele>98.67</ele>
        <time>2014-04-05T13:04:07Z</time>
      </trkpt>
      <trkpt lat="44.54039" lon="0.94458">
        <ele>100.11</ele>
        <time>2014-04-05T13:04:24Z</time>
      </trkpt>
      <trkpt lat="44.54067" lon="0.94445">
        <ele>100.11</ele>
        <time>2014-04-05T13:04:36Z</time>
      </trkpt>
      <trkpt lat="44.54104" lon="0.9442">
        <ele>98.67</ele>
        <time>2014-04-05T13:04:48Z</time>
      </trkpt>
      <trkpt lat="44.54115" lon="0.94414">
        <ele>98.67</ele>
        <time>2014-04-05T13:04:51Z</time>
      </trkpt>
      <trkpt lat="44.54119" lon="0.94412">
        <ele>98.19</ele>
        <time>2014-04-05T13:04:52Z</time>
      </trkpt>
      <trkpt lat="44.54123" lon="0.94409">
        <ele>98.19</ele>
        <time>2014-04-05T13:04:53Z</time>
      </trkpt>
      <trkpt lat="44.54127" lon="0.94407">
        <ele>98.19</ele>
        <time>2014-04-05T13:04:54Z</time>
      </trkpt>
      <trkpt lat="44.54131" lon="0.94405">
        <ele>98.19</ele>
        <time>2014-04-05T13:04:55Z</time>
      </trkpt>
      <trkpt lat="44.54135" lon="0.94402">
        <ele>98.19</ele>
        <time>2014-04-05T13:04:56Z</time>
      </trkpt>
      <trkpt lat="44.54139" lon="0.94399">
        <ele>97.71</ele>
        <time>2014-04-05T13:04:57Z</time>
      </trkpt>
      <trkpt lat="44.54143" lon="0.94395">
        <ele>97.71</ele>
        <time>2014-04-05T13:04:58Z</time>
      </trkpt>
      <trkpt lat="44.54147" lon="0.94391">
        <ele>97.23</ele>
        <time>2014-04-05T13:04:59Z</time>
      </trkpt>
      <trkpt lat="44.54151" lon="0.94387">
        <ele>97.23</ele>
        <time>2014-04-05T13:05:00Z</time>
      </trkpt>
      <trkpt lat="44.5417" lon="0.94368">
        <ele>95.79</ele>
        <time>2014-04-05T13:05:04Z</time>
      </trkpt>
      <trkpt lat="44.54175" lon="0.94362">
        <ele>95.31</ele>
        <time>2014-04-05T13:05:05Z</time>
      </trkpt>
      <trkpt lat="44.54179" lon="0.94356">
        <ele>94.83</ele>
        <time>2014-04-05T13:05:06Z</time>
      </trkpt>
      <trkpt lat="44.54196" lon="0.94324">
        <ele>92.9</ele>
        <time>2014-04-05T13:05:11Z</time>
      </trkpt>
      <trkpt lat="44.54203" lon="0.94307">
        <ele>91.46</ele>
        <time>2014-04-05T13:05:14Z</time>
      </trkpt>
      <trkpt lat="44.54205" lon="0.94302">
        <ele>91.46</ele>
        <time>2014-04-05T13:05:15Z</time>
      </trkpt>
      <trkpt lat="44.54217" lon="0.94273">
        <ele>91.94</ele>
        <time>2014-04-05T13:05:20Z</time>
      </trkpt>
      <trkpt lat="44.54219" lon="0.94267">
        <ele>92.42</ele>
        <time>2014-04-05T13:05:21Z</time>
      </trkpt>
      <trkpt lat="44.5422" lon="0.94261">
        <ele>92.42</ele>
        <time>2014-04-05T13:05:22Z</time>
      </trkpt>
      <trkpt lat="44.54221" lon="0.94254">
        <ele>92.42</ele>
        <time>2014-04-05T13:05:23Z</time>
      </trkpt>
      <trkpt lat="44.54222" lon="0.94248">
        <ele>92.42</ele>
        <time>2014-04-05T13:05:24Z</time>
      </trkpt>
      <trkpt lat="44.54222" lon="0.94241">
        <ele>92.9</ele>
        <time>2014-04-05T13:05:25Z</time>
      </trkpt>
      <trkpt lat="44.54221" lon="0.94235">
        <ele>92.9</ele>
        <time>2014-04-05T13:05:26Z</time>
      </trkpt>
      <trkpt lat="44.5422" lon="0.94229">
        <ele>92.9</ele>
        <time>2014-04-05T13:05:27Z</time>
      </trkpt>
      <trkpt lat="44.5422" lon="0.94223">
        <ele>92.9</ele>
        <time>2014-04-05T13:05:28Z</time>
      </trkpt>
      <trkpt lat="44.54219" lon="0.94205">
        <ele>92.9</ele>
        <time>2014-04-05T13:05:31Z</time>
      </trkpt>
      <trkpt lat="44.54219" lon="0.94199">
        <ele>92.42</ele>
        <time>2014-04-05T13:05:32Z</time>
      </trkpt>
      <trkpt lat="44.54226" lon="0.94157">
        <ele>94.35</ele>
        <time>2014-04-05T13:05:42Z</time>
      </trkpt>
      <trkpt lat="44.54255" lon="0.9415">
        <ele>94.35</ele>
        <time>2014-04-05T13:05:52Z</time>
      </trkpt>
      <trkpt lat="44.54263" lon="0.94148">
        <ele>93.87</ele>
        <time>2014-04-05T13:05:54Z</time>
      </trkpt>
      <trkpt lat="44.54311" lon="0.94141">
        <ele>95.31</ele>
        <time>2014-04-05T13:06:06Z</time>
      </trkpt>
      <trkpt lat="44.54331" lon="0.94149">
        <ele>95.79</ele>
        <time>2014-04-05T13:06:13Z</time>
      </trkpt>
      <trkpt lat="44.54357" lon="0.94195">
        <ele>98.67</ele>
        <time>2014-04-05T13:06:25Z</time>
      </trkpt>
      <trkpt lat="44.54362" lon="0.94206">
        <ele>99.15</ele>
        <time>2014-04-05T13:06:27Z</time>
      </trkpt>
      <trkpt lat="44.54374" lon="0.94225">
        <ele>98.67</ele>
        <time>2014-04-05T13:06:31Z</time>
      </trkpt>
      <trkpt lat="44.54382" lon="0.94232">
        <ele>98.67</ele>
        <time>2014-04-05T13:06:33Z</time>
      </trkpt>
      <trkpt lat="44.54399" lon="0.94251">
        <ele>99.63</ele>
        <time>2014-04-05T13:06:38Z</time>
      </trkpt>
      <trkpt lat="44.54402" lon="0.94254">
        <ele>99.63</ele>
        <time>2014-04-05T13:06:39Z</time>
      </trkpt>
      <trkpt lat="44.54405" lon="0.94258">
        <ele>99.63</ele>
        <time>2014-04-05T13:06:40Z</time>
      </trkpt>
      <trkpt lat="44.54433" lon="0.94294">
        <ele>103.96</ele>
        <time>2014-04-05T13:06:51Z</time>
      </trkpt>
      <trkpt lat="44.54459" lon="0.94321">
        <ele>104.92</ele>
        <time>2014-04-05T13:07:02Z</time>
      </trkpt>
      <trkpt lat="44.54467" lon="0.94333">
        <ele>104.92</ele>
        <time>2014-04-05T13:07:06Z</time>
      </trkpt>
      <trkpt lat="44.54471" lon="0.94335">
        <ele>104.44</ele>
        <time>2014-04-05T13:07:07Z</time>
      </trkpt>
      <trkpt lat="44.54474" lon="0.94338">
        <ele>104.44</ele>
        <time>2014-04-05T13:07:08Z</time>
      </trkpt>
      <trkpt lat="44.54476" lon="0.94342">
        <ele>104.44</ele>
        <time>2014-04-05T13:07:09Z</time>
      </trkpt>
      <trkpt lat="44.5448" lon="0.94345">
        <ele>104.44</ele>
        <time>2014-04-05T13:07:10Z</time>
      </trkpt>
      <trkpt lat="44.54485" lon="0.9435">
        <ele>104.44</ele>
        <time>2014-04-05T13:07:11Z</time>
      </trkpt>
      <trkpt lat="44.54521" lon="0.94403">
        <ele>107.32</ele>
        <time>2014-04-05T13:07:24Z</time>
      </trkpt>
      <trkpt lat="44.54539" lon="0.94454">
        <ele>109.25</ele>
        <time>2014-04-05T13:07:35Z</time>
      </trkpt>
      <trkpt lat="44.5455" lon="0.94503">
        <ele>108.29</ele>
        <time>2014-04-05T13:07:46Z</time>
      </trkpt>
      <trkpt lat="44.5458" lon="0.94529">
        <ele>109.73</ele>
        <time>2014-04-05T13:07:58Z</time>
      </trkpt>
      <trkpt lat="44.54583" lon="0.94529">
        <ele>109.73</ele>
        <time>2014-04-05T13:07:59Z</time>
      </trkpt>
      <trkpt lat="44.54586" lon="0.94528">
        <ele>110.21</ele>
        <time>2014-04-05T13:08:00Z</time>
      </trkpt>
      <trkpt lat="44.54589" lon="0.94528">
        <ele>110.69</ele>
        <time>2014-04-05T13:08:01Z</time>
      </trkpt>
      <trkpt lat="44.54591" lon="0.94529">
        <ele>110.69</ele>
        <time>2014-04-05T13:08:02Z</time>
      </trkpt>
      <trkpt lat="44.54593" lon="0.9453">
        <ele>111.17</ele>
        <time>2014-04-05T13:08:03Z</time>
      </trkpt>
      <trkpt lat="44.54596" lon="0.94531">
        <ele>110.69</ele>
        <time>2014-04-05T13:08:04Z</time>
      </trkpt>
      <trkpt lat="44.54598" lon="0.94532">
        <ele>110.69</ele>
        <time>2014-04-05T13:08:05Z</time>
      </trkpt>
      <trkpt lat="44.546" lon="0.94534">
        <ele>111.17</ele>
        <time>2014-04-05T13:08:06Z</time>
      </trkpt>
      <trkpt lat="44.54617" lon="0.94543">
        <ele>113.09</ele>
        <time>2014-04-05T13:08:14Z</time>
      </trkpt>
      <trkpt lat="44.54639" lon="0.9456">
        <ele>118.86</ele>
        <time>2014-04-05T13:08:24Z</time>
      </trkpt>
      <trkpt lat="44.54654" lon="0.94575">
        <ele>122.22</ele>
        <time>2014-04-05T13:08:31Z</time>
      </trkpt>
      <trkpt lat="44.54665" lon="0.94576">
        <ele>122.22</ele>
        <time>2014-04-05T13:08:41Z</time>
      </trkpt>
      <trkpt lat="44.54676" lon="0.94557">
        <ele>123.67</ele>
        <time>2014-04-05T13:08:51Z</time>
      </trkpt>
      <trkpt lat="44.54684" lon="0.9454">
        <ele>122.22</ele>
        <time>2014-04-05T13:08:59Z</time>
      </trkpt>
      <trkpt lat="44.54686" lon="0.94535">
        <ele>121.74</ele>
        <time>2014-04-05T13:09:01Z</time>
      </trkpt>
      <trkpt lat="44.54696" lon="0.94519">
        <ele>121.74</ele>
        <time>2014-04-05T13:09:11Z</time>
      </trkpt>
      <trkpt lat="44.54705" lon="0.94506">
        <ele>125.11</ele>
        <time>2014-04-05T13:09:25Z</time>
      </trkpt>
      <trkpt lat="44.54707" lon="0.94498">
        <ele>127.03</ele>
        <time>2014-04-05T13:09:30Z</time>
      </trkpt>
      <trkpt lat="44.54708" lon="0.94491">
        <ele>127.51</ele>
        <time>2014-04-05T13:09:34Z</time>
      </trkpt>
      <trkpt lat="44.54714" lon="0.94477">
        <ele>128.95</ele>
        <time>2014-04-05T13:09:47Z</time>
      </trkpt>
      <trkpt lat="44.54721" lon="0.94466">
        <ele>131.84</ele>
        <time>2014-04-05T13:09:56Z</time>
      </trkpt>
      <trkpt lat="44.54729" lon="0.94453">
        <ele>132.32</ele>
        <time>2014-04-05T13:10:04Z</time>
      </trkpt>
      <trkpt lat="44.54739" lon="0.94432">
        <ele>133.76</ele>
        <time>2014-04-05T13:10:17Z</time>
      </trkpt>
      <trkpt lat="44.54744" lon="0.9442">
        <ele>137.13</ele>
        <time>2014-04-05T13:10:28Z</time>
      </trkpt>
      <trkpt lat="44.54755" lon="0.94399">
        <ele>140.49</ele>
        <time>2014-04-05T13:10:42Z</time>
      </trkpt>
      <trkpt lat="44.54761" lon="0.94388">
        <ele>143.37</ele>
        <time>2014-04-05T13:10:52Z</time>
      </trkpt>
      <trkpt lat="44.54769" lon="0.94377">
        <ele>149.62</ele>
        <time>2014-04-05T13:11:04Z</time>
      </trkpt>
      <trkpt lat="44.54774" lon="0.94362">
        <ele>153.47</ele>
        <time>2014-04-05T13:11:18Z</time>
      </trkpt>
      <trkpt lat="44.54776" lon="0.94352">
        <ele>154.91</ele>
        <time>2014-04-05T13:11:28Z</time>
      </trkpt>
      <trkpt lat="44.54777" lon="0.94351">
        <ele>154.91</ele>
        <time>2014-04-05T13:11:29Z</time>
      </trkpt>
      <trkpt lat="44.54785" lon="0.94333">
        <ele>156.35</ele>
        <time>2014-04-05T13:11:43Z</time>
      </trkpt>
      <trkpt lat="44.54788" lon="0.94328">
        <ele>158.27</ele>
        <time>2014-04-05T13:11:49Z</time>
      </trkpt>
      <trkpt lat="44.54796" lon="0.94316">
        <ele>160.68</ele>
        <time>2014-04-05T13:12:02Z</time>
      </trkpt>
      <trkpt lat="44.54803" lon="0.94302">
        <ele>162.12</ele>
        <time>2014-04-05T13:12:16Z</time>
      </trkpt>
      <trkpt lat="44.54803" lon="0.94301">
        <ele>162.12</ele>
        <time>2014-04-05T13:12:18Z</time>
      </trkpt>
      <trkpt lat="44.54819" lon="0.94274">
        <ele>165</ele>
        <time>2014-04-05T13:12:30Z</time>
      </trkpt>
      <trkpt lat="44.5482" lon="0.94272">
        <ele>165</ele>
        <time>2014-04-05T13:12:31Z</time>
      </trkpt>
      <trkpt lat="44.54837" lon="0.94252">
        <ele>167.89</ele>
        <time>2014-04-05T13:12:43Z</time>
      </trkpt>
      <trkpt lat="44.54846" lon="0.94242">
        <ele>167.89</ele>
        <time>2014-04-05T13:12:53Z</time>
      </trkpt>
      <trkpt lat="44.54857" lon="0.94226">
        <ele>169.81</ele>
        <time>2014-04-05T13:13:08Z</time>
      </trkpt>
      <trkpt lat="44.54861" lon="0.94222">
        <ele>170.29</ele>
        <time>2014-04-05T13:13:15Z</time>
      </trkpt>
      <trkpt lat="44.54866" lon="0.94217">
        <ele>170.77</ele>
        <time>2014-04-05T13:13:28Z</time>
      </trkpt>
      <trkpt lat="44.54867" lon="0.94216">
        <ele>170.29</ele>
        <time>2014-04-05T13:13:39Z</time>
      </trkpt>
      <trkpt lat="44.54868" lon="0.94213">
        <ele>170.29</ele>
        <time>2014-04-05T13:13:54Z</time>
      </trkpt>
      <trkpt lat="44.54867" lon="0.94211">
        <ele>170.77</ele>
        <time>2014-04-05T13:14:11Z</time>
      </trkpt>
      <trkpt lat="44.54868" lon="0.94207">
        <ele>170.29</ele>
        <time>2014-04-05T13:14:40Z</time>
      </trkpt>
      <trkpt lat="44.54868" lon="0.94207">
        <ele>170.77</ele>
        <time>2014-04-05T13:15:12Z</time>
      </trkpt>
      <trkpt lat="44.54867" lon="0.94206">
        <ele>171.73</ele>
        <time>2014-04-05T13:15:43Z</time>
      </trkpt>
      <trkpt lat="44.54867" lon="0.94206">
        <ele>170.77</ele>
        <time>2014-04-05T13:16:01Z</time>
      </trkpt>
      <trkpt lat="44.54868" lon="0.94206">
        <ele>170.77</ele>
        <time>2014-04-05T13:16:29Z</time>
      </trkpt>
      <trkpt lat="44.54868" lon="0.942">
        <ele>170.77</ele>
        <time>2014-04-05T13:16:31Z</time>
      </trkpt>
      <trkpt lat="44.54867" lon="0.94196">
        <ele>170.29</ele>
        <time>2014-04-05T13:16:32Z</time>
      </trkpt>
      <trkpt lat="44.54863" lon="0.94188">
        <ele>168.85</ele>
        <time>2014-04-05T13:16:34Z</time>
      </trkpt>
      <trkpt lat="44.54859" lon="0.94184">
        <ele>168.37</ele>
        <time>2014-04-05T13:16:35Z</time>
      </trkpt>
      <trkpt lat="44.54854" lon="0.94182">
        <ele>167.41</ele>
        <time>2014-04-05T13:16:36Z</time>
      </trkpt>
      <trkpt lat="44.54849" lon="0.9418">
        <ele>166.45</ele>
        <time>2014-04-05T13:16:37Z</time>
      </trkpt>
      <trkpt lat="44.54844" lon="0.94179">
        <ele>165.48</ele>
        <time>2014-04-05T13:16:38Z</time>
      </trkpt>
      <trkpt lat="44.5484" lon="0.94176">
        <ele>164.52</ele>
        <time>2014-04-05T13:16:39Z</time>
      </trkpt>
      <trkpt lat="44.54836" lon="0.94171">
        <ele>164.04</ele>
        <time>2014-04-05T13:16:40Z</time>
      </trkpt>
      <trkpt lat="44.54834" lon="0.94165">
        <ele>163.08</ele>
        <time>2014-04-05T13:16:41Z</time>
      </trkpt>
      <trkpt lat="44.54834" lon="0.94158">
        <ele>162.12</ele>
        <time>2014-04-05T13:16:42Z</time>
      </trkpt>
      <trkpt lat="44.54837" lon="0.9415">
        <ele>161.64</ele>
        <time>2014-04-05T13:16:43Z</time>
      </trkpt>
      <trkpt lat="44.5484" lon="0.94143">
        <ele>161.16</ele>
        <time>2014-04-05T13:16:44Z</time>
      </trkpt>
      <trkpt lat="44.54845" lon="0.94129">
        <ele>159.72</ele>
        <time>2014-04-05T13:16:46Z</time>
      </trkpt>
      <trkpt lat="44.54847" lon="0.94122">
        <ele>159.24</ele>
        <time>2014-04-05T13:16:47Z</time>
      </trkpt>
      <trkpt lat="44.54848" lon="0.94116">
        <ele>158.75</ele>
        <time>2014-04-05T13:16:48Z</time>
      </trkpt>
      <trkpt lat="44.54847" lon="0.94109">
        <ele>157.79</ele>
        <time>2014-04-05T13:16:49Z</time>
      </trkpt>
      <trkpt lat="44.54845" lon="0.94101">
        <ele>157.31</ele>
        <time>2014-04-05T13:16:50Z</time>
      </trkpt>
      <trkpt lat="44.54842" lon="0.94094">
        <ele>156.35</ele>
        <time>2014-04-05T13:16:51Z</time>
      </trkpt>
      <trkpt lat="44.54836" lon="0.94088">
        <ele>155.39</ele>
        <time>2014-04-05T13:16:52Z</time>
      </trkpt>
      <trkpt lat="44.5483" lon="0.94082">
        <ele>154.43</ele>
        <time>2014-04-05T13:16:53Z</time>
      </trkpt>
      <trkpt lat="44.54823" lon="0.94076">
        <ele>153.47</ele>
        <time>2014-04-05T13:16:54Z</time>
      </trkpt>
      <trkpt lat="44.54816" lon="0.94071">
        <ele>152.51</ele>
        <time>2014-04-05T13:16:55Z</time>
      </trkpt>
      <trkpt lat="44.54785" lon="0.94054">
        <ele>149.62</ele>
        <time>2014-04-05T13:17:00Z</time>
      </trkpt>
      <trkpt lat="44.54774" lon="0.94051">
        <ele>149.62</ele>
        <time>2014-04-05T13:17:02Z</time>
      </trkpt>
      <trkpt lat="44.54745" lon="0.94053">
        <ele>150.58</ele>
        <time>2014-04-05T13:17:08Z</time>
      </trkpt>
      <trkpt lat="44.5474" lon="0.94055">
        <ele>150.58</ele>
        <time>2014-04-05T13:17:09Z</time>
      </trkpt>
      <trkpt lat="44.54736" lon="0.94056">
        <ele>151.06</ele>
        <time>2014-04-05T13:17:10Z</time>
      </trkpt>
      <trkpt lat="44.54715" lon="0.94057">
        <ele>151.54</ele>
        <time>2014-04-05T13:17:16Z</time>
      </trkpt>
      <trkpt lat="44.54712" lon="0.94052">
        <ele>152.51</ele>
        <time>2014-04-05T13:17:25Z</time>
      </trkpt>
      <trkpt lat="44.5471" lon="0.94055">
        <ele>152.51</ele>
        <time>2014-04-05T13:17:26Z</time>
      </trkpt>
      <trkpt lat="44.54708" lon="0.94058">
        <ele>152.03</ele>
        <time>2014-04-05T13:17:27Z</time>
      </trkpt>
      <trkpt lat="44.54705" lon="0.94062">
        <ele>152.03</ele>
        <time>2014-04-05T13:17:28Z</time>
      </trkpt>
      <trkpt lat="44.54701" lon="0.94063">
        <ele>151.54</ele>
        <time>2014-04-05T13:17:29Z</time>
      </trkpt>
      <trkpt lat="44.54696" lon="0.94063">
        <ele>151.06</ele>
        <time>2014-04-05T13:17:30Z</time>
      </trkpt>
      <trkpt lat="44.5469" lon="0.94063">
        <ele>150.58</ele>
        <time>2014-04-05T13:17:31Z</time>
      </trkpt>
      <trkpt lat="44.54684" lon="0.94062">
        <ele>150.58</ele>
        <time>2014-04-05T13:17:32Z</time>
      </trkpt>
      <trkpt lat="44.54678" lon="0.9406">
        <ele>150.1</ele>
        <time>2014-04-05T13:17:33Z</time>
      </trkpt>
      <trkpt lat="44.54672" lon="0.94057">
        <ele>150.1</ele>
        <time>2014-04-05T13:17:34Z</time>
      </trkpt>
      <trkpt lat="44.54667" lon="0.94052">
        <ele>149.62</ele>
        <time>2014-04-05T13:17:35Z</time>
      </trkpt>
      <trkpt lat="44.54663" lon="0.94045">
        <ele>149.62</ele>
        <time>2014-04-05T13:17:36Z</time>
      </trkpt>
      <trkpt lat="44.54661" lon="0.94037">
        <ele>149.14</ele>
        <time>2014-04-05T13:17:37Z</time>
      </trkpt>
      <trkpt lat="44.5466" lon="0.94029">
        <ele>148.66</ele>
        <time>2014-04-05T13:17:38Z</time>
      </trkpt>
      <trkpt lat="44.5466" lon="0.9402">
        <ele>148.66</ele>
        <time>2014-04-05T13:17:39Z</time>
      </trkpt>
      <trkpt lat="44.5466" lon="0.94012">
        <ele>148.18</ele>
        <time>2014-04-05T13:17:40Z</time>
      </trkpt>
      <trkpt lat="44.54658" lon="0.93986">
        <ele>147.22</ele>
        <time>2014-04-05T13:17:43Z</time>
      </trkpt>
      <trkpt lat="44.54657" lon="0.93978">
        <ele>146.74</ele>
        <time>2014-04-05T13:17:44Z</time>
      </trkpt>
      <trkpt lat="44.54655" lon="0.9397">
        <ele>146.26</ele>
        <time>2014-04-05T13:17:45Z</time>
      </trkpt>
      <trkpt lat="44.54655" lon="0.93962">
        <ele>145.78</ele>
        <time>2014-04-05T13:17:46Z</time>
      </trkpt>
      <trkpt lat="44.54656" lon="0.93956">
        <ele>145.3</ele>
        <time>2014-04-05T13:17:47Z</time>
      </trkpt>
      <trkpt lat="44.5466" lon="0.93951">
        <ele>144.82</ele>
        <time>2014-04-05T13:17:48Z</time>
      </trkpt>
      <trkpt lat="44.54664" lon="0.93947">
        <ele>144.82</ele>
        <time>2014-04-05T13:17:49Z</time>
      </trkpt>
      <trkpt lat="44.54667" lon="0.93945">
        <ele>144.82</ele>
        <time>2014-04-05T13:17:50Z</time>
      </trkpt>
      <trkpt lat="44.5467" lon="0.93942">
        <ele>144.82</ele>
        <time>2014-04-05T13:17:51Z</time>
      </trkpt>
      <trkpt lat="44.54677" lon="0.93937">
        <ele>144.82</ele>
        <time>2014-04-05T13:17:53Z</time>
      </trkpt>
      <trkpt lat="44.54681" lon="0.93935">
        <ele>144.82</ele>
        <time>2014-04-05T13:17:54Z</time>
      </trkpt>
      <trkpt lat="44.54725" lon="0.93891">
        <ele>146.74</ele>
        <time>2014-04-05T13:18:08Z</time>
      </trkpt>
      <trkpt lat="44.54756" lon="0.93847">
        <ele>148.66</ele>
        <time>2014-04-05T13:18:20Z</time>
      </trkpt>
      <trkpt lat="44.54758" lon="0.93845">
        <ele>149.14</ele>
        <time>2014-04-05T13:18:21Z</time>
      </trkpt>
      <trkpt lat="44.5476" lon="0.93843">
        <ele>149.62</ele>
        <time>2014-04-05T13:18:22Z</time>
      </trkpt>
      <trkpt lat="44.54762" lon="0.93842">
        <ele>150.1</ele>
        <time>2014-04-05T13:18:23Z</time>
      </trkpt>
      <trkpt lat="44.54769" lon="0.93841">
        <ele>151.54</ele>
        <time>2014-04-05T13:18:26Z</time>
      </trkpt>
      <trkpt lat="44.54771" lon="0.93843">
        <ele>152.03</ele>
        <time>2014-04-05T13:18:27Z</time>
      </trkpt>
      <trkpt lat="44.54774" lon="0.93845">
        <ele>152.51</ele>
        <time>2014-04-05T13:18:28Z</time>
      </trkpt>
      <trkpt lat="44.54777" lon="0.93848">
        <ele>152.99</ele>
        <time>2014-04-05T13:18:29Z</time>
      </trkpt>
      <trkpt lat="44.54779" lon="0.93851">
        <ele>153.47</ele>
        <time>2014-04-05T13:18:30Z</time>
      </trkpt>
      <trkpt lat="44.54794" lon="0.93884">
        <ele>156.83</ele>
        <time>2014-04-05T13:18:40Z</time>
      </trkpt>
      <trkpt lat="44.54822" lon="0.93885">
        <ele>163.08</ele>
        <time>2014-04-05T13:18:51Z</time>
      </trkpt>
      <trkpt lat="44.54845" lon="0.93861">
        <ele>167.89</ele>
        <time>2014-04-05T13:19:01Z</time>
      </trkpt>
      <trkpt lat="44.54873" lon="0.93845">
        <ele>172.69</ele>
        <time>2014-04-05T13:19:13Z</time>
      </trkpt>
      <trkpt lat="44.54904" lon="0.93836">
        <ele>177.02</ele>
        <time>2014-04-05T13:19:26Z</time>
      </trkpt>
      <trkpt lat="44.5491" lon="0.93836">
        <ele>177.5</ele>
        <time>2014-04-05T13:19:28Z</time>
      </trkpt>
      <trkpt lat="44.54947" lon="0.9384">
        <ele>178.46</ele>
        <time>2014-04-05T13:19:40Z</time>
      </trkpt>
      <trkpt lat="44.54985" lon="0.93852">
        <ele>177.98</ele>
        <time>2014-04-05T13:19:53Z</time>
      </trkpt>
      <trkpt lat="44.55037" lon="0.93871">
        <ele>177.02</ele>
        <time>2014-04-05T13:20:09Z</time>
      </trkpt>
      <trkpt lat="44.55078" lon="0.93892">
        <ele>177.5</ele>
        <time>2014-04-05T13:20:22Z</time>
      </trkpt>
      <trkpt lat="44.55121" lon="0.93908">
        <ele>177.5</ele>
        <time>2014-04-05T13:20:35Z</time>
      </trkpt>
      <trkpt lat="44.55123" lon="0.93909">
        <ele>177.98</ele>
        <time>2014-04-05T13:20:36Z</time>
      </trkpt>
      <trkpt lat="44.55126" lon="0.9391">
        <ele>177.98</ele>
        <time>2014-04-05T13:20:37Z</time>
      </trkpt>
      <trkpt lat="44.55158" lon="0.9392">
        <ele>178.46</ele>
        <time>2014-04-05T13:20:49Z</time>
      </trkpt>
      <trkpt lat="44.55196" lon="0.93919">
        <ele>177.5</ele>
        <time>2014-04-05T13:21:01Z</time>
      </trkpt>
      <trkpt lat="44.55238" lon="0.93908">
        <ele>177.02</ele>
        <time>2014-04-05T13:21:12Z</time>
      </trkpt>
      <trkpt lat="44.55286" lon="0.93929">
        <ele>178.46</ele>
        <time>2014-04-05T13:21:27Z</time>
      </trkpt>
      <trkpt lat="44.55311" lon="0.93973">
        <ele>181.83</ele>
        <time>2014-04-05T13:21:40Z</time>
      </trkpt>
      <trkpt lat="44.55318" lon="0.93978">
        <ele>183.27</ele>
        <time>2014-04-05T13:21:44Z</time>
      </trkpt>
      <trkpt lat="44.55319" lon="0.9398">
        <ele>184.71</ele>
        <time>2014-04-05T13:21:56Z</time>
      </trkpt>
      <trkpt lat="44.55319" lon="0.93981">
        <ele>184.71</ele>
        <time>2014-04-05T13:22:15Z</time>
      </trkpt>
      <trkpt lat="44.55319" lon="0.93979">
        <ele>184.23</ele>
        <time>2014-04-05T13:22:45Z</time>
      </trkpt>
      <trkpt lat="44.55319" lon="0.93979">
        <ele>184.23</ele>
        <time>2014-04-05T13:22:46Z</time>
      </trkpt>
      <trkpt lat="44.55318" lon="0.93982">
        <ele>184.23</ele>
        <time>2014-04-05T13:22:47Z</time>
      </trkpt>
      <trkpt lat="44.55317" lon="0.93985">
        <ele>184.23</ele>
        <time>2014-04-05T13:22:48Z</time>
      </trkpt>
      <trkpt lat="44.55311" lon="0.93993">
        <ele>184.23</ele>
        <time>2014-04-05T13:22:50Z</time>
      </trkpt>
      <trkpt lat="44.5529" lon="0.94077">
        <ele>182.79</ele>
        <time>2014-04-05T13:23:00Z</time>
      </trkpt>
      <trkpt lat="44.55288" lon="0.94087">
        <ele>182.31</ele>
        <time>2014-04-05T13:23:01Z</time>
      </trkpt>
      <trkpt lat="44.55293" lon="0.94118">
        <ele>178.46</ele>
        <time>2014-04-05T13:23:05Z</time>
      </trkpt>
      <trkpt lat="44.55316" lon="0.94157">
        <ele>174.62</ele>
        <time>2014-04-05T13:23:10Z</time>
      </trkpt>
      <trkpt lat="44.55337" lon="0.94207">
        <ele>168.85</ele>
        <time>2014-04-05T13:23:17Z</time>
      </trkpt>
      <trkpt lat="44.55348" lon="0.94218">
        <ele>165</ele>
        <time>2014-04-05T13:23:20Z</time>
      </trkpt>
      <trkpt lat="44.55373" lon="0.94225">
        <ele>160.2</ele>
        <time>2014-04-05T13:23:28Z</time>
      </trkpt>
      <trkpt lat="44.5538" lon="0.94251">
        <ele>157.79</ele>
        <time>2014-04-05T13:23:34Z</time>
      </trkpt>
      <trkpt lat="44.55385" lon="0.94263">
        <ele>156.83</ele>
        <time>2014-04-05T13:23:36Z</time>
      </trkpt>
      <trkpt lat="44.5539" lon="0.94278">
        <ele>156.35</ele>
        <time>2014-04-05T13:23:38Z</time>
      </trkpt>
      <trkpt lat="44.55382" lon="0.94321">
        <ele>150.58</ele>
        <time>2014-04-05T13:23:45Z</time>
      </trkpt>
      <trkpt lat="44.55368" lon="0.94345">
        <ele>145.78</ele>
        <time>2014-04-05T13:23:48Z</time>
      </trkpt>
      <trkpt lat="44.55343" lon="0.94404">
        <ele>139.05</ele>
        <time>2014-04-05T13:23:53Z</time>
      </trkpt>
      <trkpt lat="44.5532" lon="0.94447">
        <ele>133.28</ele>
        <time>2014-04-05T13:23:58Z</time>
      </trkpt>
      <trkpt lat="44.55309" lon="0.9446">
        <ele>130.88</ele>
        <time>2014-04-05T13:24:00Z</time>
      </trkpt>
      <trkpt lat="44.55292" lon="0.94486">
        <ele>127.03</ele>
        <time>2014-04-05T13:24:04Z</time>
      </trkpt>
      <trkpt lat="44.55273" lon="0.94546">
        <ele>120.78</ele>
        <time>2014-04-05T13:24:11Z</time>
      </trkpt>
      <trkpt lat="44.55259" lon="0.94626">
        <ele>115.01</ele>
        <time>2014-04-05T13:24:20Z</time>
      </trkpt>
      <trkpt lat="44.55261" lon="0.94646">
        <ele>112.61</ele>
        <time>2014-04-05T13:24:24Z</time>
      </trkpt>
      <trkpt lat="44.55263" lon="0.9465">
        <ele>112.61</ele>
        <time>2014-04-05T13:24:25Z</time>
      </trkpt>
      <trkpt lat="44.55265" lon="0.94654">
        <ele>112.61</ele>
        <time>2014-04-05T13:24:26Z</time>
      </trkpt>
      <trkpt lat="44.55265" lon="0.94657">
        <ele>112.61</ele>
        <time>2014-04-05T13:24:27Z</time>
      </trkpt>
      <trkpt lat="44.55265" lon="0.9466">
        <ele>112.61</ele>
        <time>2014-04-05T13:24:28Z</time>
      </trkpt>
      <trkpt lat="44.5527" lon="0.94667">
        <ele>118.86</ele>
        <time>2014-04-05T13:24:42Z</time>
      </trkpt>
      <trkpt lat="44.55272" lon="0.94669">
        <ele>123.67</ele>
        <time>2014-04-05T13:25:11Z</time>
      </trkpt>
      <trkpt lat="44.55271" lon="0.9467">
        <ele>122.71</ele>
        <time>2014-04-05T13:25:22Z</time>
      </trkpt>
      <trkpt lat="44.55269" lon="0.94671">
        <ele>122.22</ele>
        <time>2014-04-05T13:25:23Z</time>
      </trkpt>
      <trkpt lat="44.55266" lon="0.94672">
        <ele>121.26</ele>
        <time>2014-04-05T13:25:24Z</time>
      </trkpt>
      <trkpt lat="44.55263" lon="0.94675">
        <ele>120.3</ele>
        <time>2014-04-05T13:25:25Z</time>
      </trkpt>
      <trkpt lat="44.55259" lon="0.94677">
        <ele>119.82</ele>
        <time>2014-04-05T13:25:26Z</time>
      </trkpt>
      <trkpt lat="44.55252" lon="0.94682">
        <ele>118.38</ele>
        <time>2014-04-05T13:25:28Z</time>
      </trkpt>
      <trkpt lat="44.55248" lon="0.94686">
        <ele>117.42</ele>
        <time>2014-04-05T13:25:29Z</time>
      </trkpt>
      <trkpt lat="44.55238" lon="0.947">
        <ele>113.57</ele>
        <time>2014-04-05T13:25:36Z</time>
      </trkpt>
      <trkpt lat="44.55237" lon="0.94705">
        <ele>111.65</ele>
        <time>2014-04-05T13:25:46Z</time>
      </trkpt>
      <trkpt lat="44.55238" lon="0.9471">
        <ele>111.65</ele>
        <time>2014-04-05T13:25:49Z</time>
      </trkpt>
      <trkpt lat="44.5524" lon="0.94711">
        <ele>111.17</ele>
        <time>2014-04-05T13:25:50Z</time>
      </trkpt>
      <trkpt lat="44.55242" lon="0.94712">
        <ele>110.69</ele>
        <time>2014-04-05T13:25:51Z</time>
      </trkpt>
      <trkpt lat="44.55245" lon="0.94712">
        <ele>110.21</ele>
        <time>2014-04-05T13:25:52Z</time>
      </trkpt>
      <trkpt lat="44.55248" lon="0.94711">
        <ele>110.21</ele>
        <time>2014-04-05T13:25:53Z</time>
      </trkpt>
      <trkpt lat="44.55252" lon="0.9471">
        <ele>109.73</ele>
        <time>2014-04-05T13:25:54Z</time>
      </trkpt>
      <trkpt lat="44.55316" lon="0.947">
        <ele>106.36</ele>
        <time>2014-04-05T13:26:09Z</time>
      </trkpt>
      <trkpt lat="44.55354" lon="0.94697">
        <ele>104.44</ele>
        <time>2014-04-05T13:26:17Z</time>
      </trkpt>
      <trkpt lat="44.55359" lon="0.94699">
        <ele>104.44</ele>
        <time>2014-04-05T13:26:18Z</time>
      </trkpt>
      <trkpt lat="44.55362" lon="0.94703">
        <ele>104.44</ele>
        <time>2014-04-05T13:26:19Z</time>
      </trkpt>
      <trkpt lat="44.55364" lon="0.94709">
        <ele>104.44</ele>
        <time>2014-04-05T13:26:20Z</time>
      </trkpt>
      <trkpt lat="44.55366" lon="0.94714">
        <ele>103.96</ele>
        <time>2014-04-05T13:26:21Z</time>
      </trkpt>
      <trkpt lat="44.55369" lon="0.94726">
        <ele>103.96</ele>
        <time>2014-04-05T13:26:23Z</time>
      </trkpt>
      <trkpt lat="44.55372" lon="0.94744">
        <ele>103.96</ele>
        <time>2014-04-05T13:26:26Z</time>
      </trkpt>
      <trkpt lat="44.55371" lon="0.94774">
        <ele>103</ele>
        <time>2014-04-05T13:26:31Z</time>
      </trkpt>
      <trkpt lat="44.5537" lon="0.9478">
        <ele>103</ele>
        <time>2014-04-05T13:26:32Z</time>
      </trkpt>
      <trkpt lat="44.55368" lon="0.94791">
        <ele>103</ele>
        <time>2014-04-05T13:26:34Z</time>
      </trkpt>
      <trkpt lat="44.5536" lon="0.94826">
        <ele>103</ele>
        <time>2014-04-05T13:26:40Z</time>
      </trkpt>
      <trkpt lat="44.55358" lon="0.94832">
        <ele>103</ele>
        <time>2014-04-05T13:26:41Z</time>
      </trkpt>
      <trkpt lat="44.55352" lon="0.94868">
        <ele>103</ele>
        <time>2014-04-05T13:26:47Z</time>
      </trkpt>
      <trkpt lat="44.55352" lon="0.94874">
        <ele>103</ele>
        <time>2014-04-05T13:26:48Z</time>
      </trkpt>
      <trkpt lat="44.55353" lon="0.9488">
        <ele>103</ele>
        <time>2014-04-05T13:26:49Z</time>
      </trkpt>
      <trkpt lat="44.55355" lon="0.94886">
        <ele>103</ele>
        <time>2014-04-05T13:26:50Z</time>
      </trkpt>
      <trkpt lat="44.55357" lon="0.94891">
        <ele>103</ele>
        <time>2014-04-05T13:26:51Z</time>
      </trkpt>
      <trkpt lat="44.5536" lon="0.94896">
        <ele>103</ele>
        <time>2014-04-05T13:26:52Z</time>
      </trkpt>
      <trkpt lat="44.55363" lon="0.94901">
        <ele>103</ele>
        <time>2014-04-05T13:26:53Z</time>
      </trkpt>
      <trkpt lat="44.55365" lon="0.94905">
        <ele>103</ele>
        <time>2014-04-05T13:26:54Z</time>
      </trkpt>
      <trkpt lat="44.55385" lon="0.94947">
        <ele>105.88</ele>
        <time>2014-04-05T13:27:04Z</time>
      </trkpt>
      <trkpt lat="44.55384" lon="0.94952">
        <ele>105.88</ele>
        <time>2014-04-05T13:27:05Z</time>
      </trkpt>
      <trkpt lat="44.55382" lon="0.94955">
        <ele>106.36</ele>
        <time>2014-04-05T13:27:06Z</time>
      </trkpt>
      <trkpt lat="44.5538" lon="0.94958">
        <ele>106.36</ele>
        <time>2014-04-05T13:27:07Z</time>
      </trkpt>
      <trkpt lat="44.55378" lon="0.94961">
        <ele>106.84</ele>
        <time>2014-04-05T13:27:08Z</time>
      </trkpt>
      <trkpt lat="44.55375" lon="0.94962">
        <ele>106.84</ele>
        <time>2014-04-05T13:27:09Z</time>
      </trkpt>
      <trkpt lat="44.55373" lon="0.94963">
        <ele>107.32</ele>
        <time>2014-04-05T13:27:10Z</time>
      </trkpt>
      <trkpt lat="44.55341" lon="0.94988">
        <ele>107.32</ele>
        <time>2014-04-05T13:27:21Z</time>
      </trkpt>
      <trkpt lat="44.55338" lon="0.94993">
        <ele>107.32</ele>
        <time>2014-04-05T13:27:22Z</time>
      </trkpt>
      <trkpt lat="44.55334" lon="0.94997">
        <ele>106.84</ele>
        <time>2014-04-05T13:27:23Z</time>
      </trkpt>
      <trkpt lat="44.5533" lon="0.95001">
        <ele>106.84</ele>
        <time>2014-04-05T13:27:24Z</time>
      </trkpt>
      <trkpt lat="44.55325" lon="0.95004">
        <ele>106.84</ele>
        <time>2014-04-05T13:27:25Z</time>
      </trkpt>
      <trkpt lat="44.55319" lon="0.95007">
        <ele>106.36</ele>
        <time>2014-04-05T13:27:26Z</time>
      </trkpt>
      <trkpt lat="44.55285" lon="0.95023">
        <ele>104.44</ele>
        <time>2014-04-05T13:27:33Z</time>
      </trkpt>
      <trkpt lat="44.55266" lon="0.95038">
        <ele>104.92</ele>
        <time>2014-04-05T13:27:39Z</time>
      </trkpt>
      <trkpt lat="44.55265" lon="0.95042">
        <ele>104.92</ele>
        <time>2014-04-05T13:27:40Z</time>
      </trkpt>
      <trkpt lat="44.55274" lon="0.95064">
        <ele>106.84</ele>
        <time>2014-04-05T13:27:47Z</time>
      </trkpt>
      <trkpt lat="44.55293" lon="0.95097">
        <ele>109.73</ele>
        <time>2014-04-05T13:27:58Z</time>
      </trkpt>
      <trkpt lat="44.55304" lon="0.95145">
        <ele>107.81</ele>
        <time>2014-04-05T13:28:09Z</time>
      </trkpt>
      <trkpt lat="44.55303" lon="0.95184">
        <ele>103.96</ele>
        <time>2014-04-05T13:28:18Z</time>
      </trkpt>
      <trkpt lat="44.5531" lon="0.95223">
        <ele>103</ele>
        <time>2014-04-05T13:28:28Z</time>
      </trkpt>
      <trkpt lat="44.55316" lon="0.95226">
        <ele>105.4</ele>
        <time>2014-04-05T13:28:39Z</time>
      </trkpt>
      <trkpt lat="44.55317" lon="0.95239">
        <ele>106.36</ele>
        <time>2014-04-05T13:28:43Z</time>
      </trkpt>
      <trkpt lat="44.55317" lon="0.95259">
        <ele>103.96</ele>
        <time>2014-04-05T13:28:48Z</time>
      </trkpt>
      <trkpt lat="44.55312" lon="0.9528">
        <ele>102.04</ele>
        <time>2014-04-05T13:28:53Z</time>
      </trkpt>
      <trkpt lat="44.55306" lon="0.95306">
        <ele>102.52</ele>
        <time>2014-04-05T13:28:59Z</time>
      </trkpt>
      <trkpt lat="44.553" lon="0.95326">
        <ele>102.04</ele>
        <time>2014-04-05T13:29:04Z</time>
      </trkpt>
      <trkpt lat="44.55296" lon="0.95351">
        <ele>102.52</ele>
        <time>2014-04-05T13:29:11Z</time>
      </trkpt>
      <trkpt lat="44.55286" lon="0.95394">
        <ele>101.08</ele>
        <time>2014-04-05T13:29:24Z</time>
      </trkpt>
      <trkpt lat="44.55287" lon="0.95399">
        <ele>100.6</ele>
        <time>2014-04-05T13:29:26Z</time>
      </trkpt>
      <trkpt lat="44.55286" lon="0.9541">
        <ele>100.11</ele>
        <time>2014-04-05T13:29:30Z</time>
      </trkpt>
      <trkpt lat="44.55288" lon="0.95432">
        <ele>100.11</ele>
        <time>2014-04-05T13:29:37Z</time>
      </trkpt>
      <trkpt lat="44.55296" lon="0.95455">
        <ele>103.48</ele>
        <time>2014-04-05T13:29:44Z</time>
      </trkpt>
      <trkpt lat="44.55299" lon="0.95469">
        <ele>107.81</ele>
        <time>2014-04-05T13:29:54Z</time>
      </trkpt>
      <trkpt lat="44.55296" lon="0.95479">
        <ele>108.29</ele>
        <time>2014-04-05T13:30:05Z</time>
      </trkpt>
      <trkpt lat="44.55292" lon="0.95483">
        <ele>108.29</ele>
        <time>2014-04-05T13:30:08Z</time>
      </trkpt>
      <trkpt lat="44.55292" lon="0.95519">
        <ele>113.09</ele>
        <time>2014-04-05T13:30:19Z</time>
      </trkpt>
      <trkpt lat="44.55286" lon="0.95554">
        <ele>113.57</ele>
        <time>2014-04-05T13:30:27Z</time>
      </trkpt>
      <trkpt lat="44.55287" lon="0.95587">
        <ele>119.82</ele>
        <time>2014-04-05T13:30:35Z</time>
      </trkpt>
      <trkpt lat="44.55286" lon="0.95593">
        <ele>120.78</ele>
        <time>2014-04-05T13:30:37Z</time>
      </trkpt>
      <trkpt lat="44.55281" lon="0.95613">
        <ele>123.67</ele>
        <time>2014-04-05T13:30:44Z</time>
      </trkpt>
      <trkpt lat="44.55277" lon="0.95638">
        <ele>126.07</ele>
        <time>2014-04-05T13:30:54Z</time>
      </trkpt>
      <trkpt lat="44.55278" lon="0.95651">
        <ele>124.15</ele>
        <time>2014-04-05T13:31:05Z</time>
      </trkpt>
      <trkpt lat="44.55279" lon="0.95655">
        <ele>123.19</ele>
        <time>2014-04-05T13:31:20Z</time>
      </trkpt>
      <trkpt lat="44.55278" lon="0.95662">
        <ele>124.63</ele>
        <time>2014-04-05T13:31:30Z</time>
      </trkpt>
      <trkpt lat="44.55276" lon="0.95668">
        <ele>124.63</ele>
        <time>2014-04-05T13:31:34Z</time>
      </trkpt>
      <trkpt lat="44.55269" lon="0.95674">
        <ele>124.15</ele>
        <time>2014-04-05T13:31:40Z</time>
      </trkpt>
      <trkpt lat="44.55258" lon="0.95691">
        <ele>127.51</ele>
        <time>2014-04-05T13:31:53Z</time>
      </trkpt>
      <trkpt lat="44.55256" lon="0.95693">
        <ele>128.47</ele>
        <time>2014-04-05T13:32:05Z</time>
      </trkpt>
      <trkpt lat="44.5525" lon="0.95691">
        <ele>132.8</ele>
        <time>2014-04-05T13:32:17Z</time>
      </trkpt>
      <trkpt lat="44.55248" lon="0.95692">
        <ele>134.24</ele>
        <time>2014-04-05T13:32:21Z</time>
      </trkpt>
      <trkpt lat="44.55239" lon="0.95687">
        <ele>137.13</ele>
        <time>2014-04-05T13:32:35Z</time>
      </trkpt>
      <trkpt lat="44.55232" lon="0.95679">
        <ele>142.41</ele>
        <time>2014-04-05T13:32:48Z</time>
      </trkpt>
      <trkpt lat="44.55227" lon="0.95671">
        <ele>144.82</ele>
        <time>2014-04-05T13:33:01Z</time>
      </trkpt>
      <trkpt lat="44.55222" lon="0.95664">
        <ele>146.26</ele>
        <time>2014-04-05T13:33:13Z</time>
      </trkpt>
      <trkpt lat="44.55213" lon="0.95653">
        <ele>150.58</ele>
        <time>2014-04-05T13:33:28Z</time>
      </trkpt>
      <trkpt lat="44.55205" lon="0.95644">
        <ele>153.47</ele>
        <time>2014-04-05T13:33:42Z</time>
      </trkpt>
      <trkpt lat="44.55194" lon="0.95629">
        <ele>155.87</ele>
        <time>2014-04-05T13:33:57Z</time>
      </trkpt>
      <trkpt lat="44.55186" lon="0.95618">
        <ele>156.83</ele>
        <time>2014-04-05T13:34:13Z</time>
      </trkpt>
      <trkpt lat="44.55173" lon="0.95606">
        <ele>157.79</ele>
        <time>2014-04-05T13:34:29Z</time>
      </trkpt>
      <trkpt lat="44.55164" lon="0.95595">
        <ele>157.79</ele>
        <time>2014-04-05T13:34:42Z</time>
      </trkpt>
      <trkpt lat="44.55161" lon="0.95594">
        <ele>155.87</ele>
        <time>2014-04-05T13:34:56Z</time>
      </trkpt>
      <trkpt lat="44.55162" lon="0.95593">
        <ele>152.03</ele>
        <time>2014-04-05T13:35:35Z</time>
      </trkpt>
      <trkpt lat="44.55161" lon="0.95593">
        <ele>150.58</ele>
        <time>2014-04-05T13:35:56Z</time>
      </trkpt>
      <trkpt lat="44.5516" lon="0.95592">
        <ele>151.54</ele>
        <time>2014-04-05T13:36:14Z</time>
      </trkpt>
      <trkpt lat="44.55161" lon="0.95591">
        <ele>152.03</ele>
        <time>2014-04-05T13:36:44Z</time>
      </trkpt>
      <trkpt lat="44.5516" lon="0.95591">
        <ele>151.54</ele>
        <time>2014-04-05T13:37:12Z</time>
      </trkpt>
      <trkpt lat="44.5516" lon="0.95589">
        <ele>151.54</ele>
        <time>2014-04-05T13:37:28Z</time>
      </trkpt>
      <trkpt lat="44.55151" lon="0.95577">
        <ele>151.06</ele>
        <time>2014-04-05T13:37:37Z</time>
      </trkpt>
      <trkpt lat="44.55147" lon="0.95572">
        <ele>151.54</ele>
        <time>2014-04-05T13:37:50Z</time>
      </trkpt>
      <trkpt lat="44.55146" lon="0.95571">
        <ele>152.03</ele>
        <time>2014-04-05T13:37:53Z</time>
      </trkpt>
      <trkpt lat="44.55141" lon="0.95566">
        <ele>152.03</ele>
        <time>2014-04-05T13:38:01Z</time>
      </trkpt>
      <trkpt lat="44.5512" lon="0.95538">
        <ele>149.62</ele>
        <time>2014-04-05T13:38:11Z</time>
      </trkpt>
      <trkpt lat="44.55054" lon="0.9548">
        <ele>143.85</ele>
        <time>2014-04-05T13:38:20Z</time>
      </trkpt>
      <trkpt lat="44.54999" lon="0.95434">
        <ele>141.93</ele>
        <time>2014-04-05T13:38:29Z</time>
      </trkpt>
      <trkpt lat="44.54978" lon="0.95408">
        <ele>138.57</ele>
        <time>2014-04-05T13:38:32Z</time>
      </trkpt>
      <trkpt lat="44.54941" lon="0.95321">
        <ele>138.57</ele>
        <time>2014-04-05T13:38:41Z</time>
      </trkpt>
      <trkpt lat="44.54932" lon="0.95295">
        <ele>140.97</ele>
        <time>2014-04-05T13:38:45Z</time>
      </trkpt>
      <trkpt lat="44.54906" lon="0.95239">
        <ele>147.7</ele>
        <time>2014-04-05T13:38:58Z</time>
      </trkpt>
      <trkpt lat="44.5487" lon="0.95209">
        <ele>151.06</ele>
        <time>2014-04-05T13:39:10Z</time>
      </trkpt>
      <trkpt lat="44.54827" lon="0.95193">
        <ele>152.51</ele>
        <time>2014-04-05T13:39:23Z</time>
      </trkpt>
      <trkpt lat="44.54818" lon="0.95183">
        <ele>151.54</ele>
        <time>2014-04-05T13:39:26Z</time>
      </trkpt>
      <trkpt lat="44.54814" lon="0.95178">
        <ele>150.58</ele>
        <time>2014-04-05T13:39:27Z</time>
      </trkpt>
      <trkpt lat="44.5481" lon="0.95174">
        <ele>150.1</ele>
        <time>2014-04-05T13:39:28Z</time>
      </trkpt>
      <trkpt lat="44.54783" lon="0.95147">
        <ele>147.22</ele>
        <time>2014-04-05T13:39:33Z</time>
      </trkpt>
      <trkpt lat="44.54759" lon="0.95132">
        <ele>145.78</ele>
        <time>2014-04-05T13:39:37Z</time>
      </trkpt>
      <trkpt lat="44.54743" lon="0.95123">
        <ele>144.82</ele>
        <time>2014-04-05T13:39:40Z</time>
      </trkpt>
      <trkpt lat="44.54738" lon="0.95124">
        <ele>144.82</ele>
        <time>2014-04-05T13:39:41Z</time>
      </trkpt>
      <trkpt lat="44.54734" lon="0.95127">
        <ele>144.82</ele>
        <time>2014-04-05T13:39:42Z</time>
      </trkpt>
      <trkpt lat="44.5473" lon="0.9513">
        <ele>144.82</ele>
        <time>2014-04-05T13:39:43Z</time>
      </trkpt>
      <trkpt lat="44.54728" lon="0.95134">
        <ele>145.3</ele>
        <time>2014-04-05T13:39:44Z</time>
      </trkpt>
      <trkpt lat="44.54725" lon="0.95141">
        <ele>146.74</ele>
        <time>2014-04-05T13:39:52Z</time>
      </trkpt>
      <trkpt lat="44.54727" lon="0.95156">
        <ele>149.14</ele>
        <time>2014-04-05T13:40:02Z</time>
      </trkpt>
      <trkpt lat="44.54728" lon="0.95157">
        <ele>149.62</ele>
        <time>2014-04-05T13:40:03Z</time>
      </trkpt>
      <trkpt lat="44.54743" lon="0.9516">
        <ele>152.99</ele>
        <time>2014-04-05T13:40:18Z</time>
      </trkpt>
      <trkpt lat="44.54744" lon="0.95161">
        <ele>153.47</ele>
        <time>2014-04-05T13:40:34Z</time>
      </trkpt>
      <trkpt lat="44.54745" lon="0.95159">
        <ele>155.39</ele>
        <time>2014-04-05T13:41:17Z</time>
      </trkpt>
      <trkpt lat="44.54745" lon="0.95159">
        <ele>155.87</ele>
        <time>2014-04-05T13:41:58Z</time>
      </trkpt>
      <trkpt lat="44.54745" lon="0.95159">
        <ele>155.39</ele>
        <time>2014-04-05T13:42:32Z</time>
      </trkpt>
      <trkpt lat="44.54743" lon="0.95158">
        <ele>155.39</ele>
        <time>2014-04-05T13:42:47Z</time>
      </trkpt>
      <trkpt lat="44.54733" lon="0.95164">
        <ele>155.39</ele>
        <time>2014-04-05T13:42:53Z</time>
      </trkpt>
      <trkpt lat="44.54732" lon="0.95168">
        <ele>155.39</ele>
        <time>2014-04-05T13:42:54Z</time>
      </trkpt>
      <trkpt lat="44.54732" lon="0.95172">
        <ele>155.87</ele>
        <time>2014-04-05T13:42:55Z</time>
      </trkpt>
      <trkpt lat="44.54733" lon="0.95176">
        <ele>155.87</ele>
        <time>2014-04-05T13:42:56Z</time>
      </trkpt>
      <trkpt lat="44.54734" lon="0.9518">
        <ele>155.87</ele>
        <time>2014-04-05T13:42:57Z</time>
      </trkpt>
      <trkpt lat="44.54751" lon="0.95203">
        <ele>158.75</ele>
        <time>2014-04-05T13:43:07Z</time>
      </trkpt>
      <trkpt lat="44.54757" lon="0.95214">
        <ele>158.75</ele>
        <time>2014-04-05T13:43:11Z</time>
      </trkpt>
      <trkpt lat="44.54757" lon="0.95217">
        <ele>158.75</ele>
        <time>2014-04-05T13:43:12Z</time>
      </trkpt>
      <trkpt lat="44.54756" lon="0.9522">
        <ele>159.24</ele>
        <time>2014-04-05T13:43:13Z</time>
      </trkpt>
      <trkpt lat="44.54756" lon="0.95223">
        <ele>159.24</ele>
        <time>2014-04-05T13:43:14Z</time>
      </trkpt>
      <trkpt lat="44.54755" lon="0.95226">
        <ele>159.24</ele>
        <time>2014-04-05T13:43:15Z</time>
      </trkpt>
      <trkpt lat="44.54755" lon="0.95229">
        <ele>159.72</ele>
        <time>2014-04-05T13:43:16Z</time>
      </trkpt>
      <trkpt lat="44.54752" lon="0.9525">
        <ele>162.6</ele>
        <time>2014-04-05T13:43:25Z</time>
      </trkpt>
      <trkpt lat="44.54743" lon="0.95286">
        <ele>170.29</ele>
        <time>2014-04-05T13:43:38Z</time>
      </trkpt>
      <trkpt lat="44.54731" lon="0.95323">
        <ele>171.73</ele>
        <time>2014-04-05T13:43:50Z</time>
      </trkpt>
      <trkpt lat="44.5473" lon="0.95326">
        <ele>171.73</ele>
        <time>2014-04-05T13:43:51Z</time>
      </trkpt>
      <trkpt lat="44.5473" lon="0.95329">
        <ele>171.73</ele>
        <time>2014-04-05T13:43:52Z</time>
      </trkpt>
      <trkpt lat="44.54724" lon="0.95374">
        <ele>171.25</ele>
        <time>2014-04-05T13:44:06Z</time>
      </trkpt>
      <trkpt lat="44.54721" lon="0.95411">
        <ele>169.33</ele>
        <time>2014-04-05T13:44:17Z</time>
      </trkpt>
      <trkpt lat="44.54717" lon="0.95443">
        <ele>169.81</ele>
        <time>2014-04-05T13:44:26Z</time>
      </trkpt>
      <trkpt lat="44.54717" lon="0.95446">
        <ele>170.77</ele>
        <time>2014-04-05T13:44:27Z</time>
      </trkpt>
      <trkpt lat="44.54717" lon="0.95449">
        <ele>171.25</ele>
        <time>2014-04-05T13:44:28Z</time>
      </trkpt>
      <trkpt lat="44.54718" lon="0.95476">
        <ele>176.54</ele>
        <time>2014-04-05T13:44:38Z</time>
      </trkpt>
      <trkpt lat="44.54718" lon="0.95478">
        <ele>177.02</ele>
        <time>2014-04-05T13:44:39Z</time>
      </trkpt>
      <trkpt lat="44.54717" lon="0.95483">
        <ele>178.46</ele>
        <time>2014-04-05T13:44:41Z</time>
      </trkpt>
      <trkpt lat="44.54716" lon="0.95487">
        <ele>178.94</ele>
        <time>2014-04-05T13:44:42Z</time>
      </trkpt>
      <trkpt lat="44.54715" lon="0.95509">
        <ele>180.38</ele>
        <time>2014-04-05T13:44:49Z</time>
      </trkpt>
      <trkpt lat="44.54708" lon="0.95543">
        <ele>181.83</ele>
        <time>2014-04-05T13:45:03Z</time>
      </trkpt>
      <trkpt lat="44.547" lon="0.9557">
        <ele>186.63</ele>
        <time>2014-04-05T13:45:15Z</time>
      </trkpt>
      <trkpt lat="44.54693" lon="0.95605">
        <ele>188.08</ele>
        <time>2014-04-05T13:45:29Z</time>
      </trkpt>
      <trkpt lat="44.54685" lon="0.9563">
        <ele>191.44</ele>
        <time>2014-04-05T13:45:39Z</time>
      </trkpt>
      <trkpt lat="44.54678" lon="0.95653">
        <ele>192.4</ele>
        <time>2014-04-05T13:45:48Z</time>
      </trkpt>
      <trkpt lat="44.54675" lon="0.95658">
        <ele>191.92</ele>
        <time>2014-04-05T13:45:50Z</time>
      </trkpt>
      <trkpt lat="44.54658" lon="0.95688">
        <ele>189.04</ele>
        <time>2014-04-05T13:46:01Z</time>
      </trkpt>
      <trkpt lat="44.54645" lon="0.95718">
        <ele>196.73</ele>
        <time>2014-04-05T13:46:14Z</time>
      </trkpt>
      <trkpt lat="44.54639" lon="0.95737">
        <ele>201.05</ele>
        <time>2014-04-05T13:46:20Z</time>
      </trkpt>
      <trkpt lat="44.54629" lon="0.95761">
        <ele>201.05</ele>
        <time>2014-04-05T13:46:30Z</time>
      </trkpt>
      <trkpt lat="44.54628" lon="0.95772">
        <ele>199.61</ele>
        <time>2014-04-05T13:46:40Z</time>
      </trkpt>
      <trkpt lat="44.54618" lon="0.95794">
        <ele>195.28</ele>
        <time>2014-04-05T13:46:54Z</time>
      </trkpt>
      <trkpt lat="44.5461" lon="0.95812">
        <ele>197.69</ele>
        <time>2014-04-05T13:47:05Z</time>
      </trkpt>
      <trkpt lat="44.5461" lon="0.95819">
        <ele>195.77</ele>
        <time>2014-04-05T13:47:22Z</time>
      </trkpt>
      <trkpt lat="44.5461" lon="0.9582">
        <ele>195.28</ele>
        <time>2014-04-05T13:47:43Z</time>
      </trkpt>
      <trkpt lat="44.5461" lon="0.95822">
        <ele>196.25</ele>
        <time>2014-04-05T13:48:02Z</time>
      </trkpt>
      <trkpt lat="44.54611" lon="0.95823">
        <ele>195.28</ele>
        <time>2014-04-05T13:48:25Z</time>
      </trkpt>
      <trkpt lat="44.5461" lon="0.95823">
        <ele>194.8</ele>
        <time>2014-04-05T13:48:47Z</time>
      </trkpt>
      <trkpt lat="44.5461" lon="0.95823">
        <ele>195.28</ele>
        <time>2014-04-05T13:49:12Z</time>
      </trkpt>
      <trkpt lat="44.5461" lon="0.95823">
        <ele>194.8</ele>
        <time>2014-04-05T13:49:39Z</time>
      </trkpt>
      <trkpt lat="44.5461" lon="0.95823">
        <ele>195.77</ele>
        <time>2014-04-05T13:50:04Z</time>
      </trkpt>
      <trkpt lat="44.5461" lon="0.95823">
        <ele>194.8</ele>
        <time>2014-04-05T13:50:35Z</time>
      </trkpt>
      <trkpt lat="44.54609" lon="0.95823">
        <ele>195.77</ele>
        <time>2014-04-05T13:51:02Z</time>
      </trkpt>
      <trkpt lat="44.5461" lon="0.95823">
        <ele>195.77</ele>
        <time>2014-04-05T13:51:26Z</time>
      </trkpt>
      <trkpt lat="44.5461" lon="0.95823">
        <ele>195.28</ele>
        <time>2014-04-05T13:51:55Z</time>
      </trkpt>
      <trkpt lat="44.5461" lon="0.95823">
        <ele>194.8</ele>
        <time>2014-04-05T13:52:30Z</time>
      </trkpt>
      <trkpt lat="44.5461" lon="0.95822">
        <ele>194.8</ele>
        <time>2014-04-05T13:52:50Z</time>
      </trkpt>
      <trkpt lat="44.5461" lon="0.95822">
        <ele>194.8</ele>
        <time>2014-04-05T13:53:13Z</time>
      </trkpt>
      <trkpt lat="44.5461" lon="0.95823">
        <ele>195.28</ele>
        <time>2014-04-05T13:53:38Z</time>
      </trkpt>
      <trkpt lat="44.5461" lon="0.95823">
        <ele>195.28</ele>
        <time>2014-04-05T13:54:07Z</time>
      </trkpt>
      <trkpt lat="44.54609" lon="0.95824">
        <ele>195.77</ele>
        <time>2014-04-05T13:54:35Z</time>
      </trkpt>
      <trkpt lat="44.54608" lon="0.95826">
        <ele>195.77</ele>
        <time>2014-04-05T13:54:37Z</time>
      </trkpt>
      <trkpt lat="44.54602" lon="0.95843">
        <ele>193.84</ele>
        <time>2014-04-05T13:54:46Z</time>
      </trkpt>
      <trkpt lat="44.54593" lon="0.95868">
        <ele>196.73</ele>
        <time>2014-04-05T13:54:59Z</time>
      </trkpt>
      <trkpt lat="44.54584" lon="0.95892">
        <ele>198.17</ele>
        <time>2014-04-05T13:55:07Z</time>
      </trkpt>
      <trkpt lat="44.54578" lon="0.95907">
        <ele>197.21</ele>
        <time>2014-04-05T13:55:12Z</time>
      </trkpt>
      <trkpt lat="44.54575" lon="0.95912">
        <ele>195.77</ele>
        <time>2014-04-05T13:55:14Z</time>
      </trkpt>
      <trkpt lat="44.54565" lon="0.95938">
        <ele>189.52</ele>
        <time>2014-04-05T13:55:23Z</time>
      </trkpt>
      <trkpt lat="44.54562" lon="0.95948">
        <ele>186.63</ele>
        <time>2014-04-05T13:55:27Z</time>
      </trkpt>
      <trkpt lat="44.5456" lon="0.95975">
        <ele>185.19</ele>
        <time>2014-04-05T13:55:36Z</time>
      </trkpt>
      <trkpt lat="44.54557" lon="0.95984">
        <ele>185.67</ele>
        <time>2014-04-05T13:55:39Z</time>
      </trkpt>
      <trkpt lat="44.54567" lon="0.96004">
        <ele>193.84</ele>
        <time>2014-04-05T13:55:52Z</time>
      </trkpt>
      <trkpt lat="44.54568" lon="0.96007">
        <ele>194.8</ele>
        <time>2014-04-05T13:55:54Z</time>
      </trkpt>
      <trkpt lat="44.54565" lon="0.96038">
        <ele>192.4</ele>
        <time>2014-04-05T13:56:03Z</time>
      </trkpt>
      <trkpt lat="44.5456" lon="0.96068">
        <ele>190</ele>
        <time>2014-04-05T13:56:09Z</time>
      </trkpt>
      <trkpt lat="44.54583" lon="0.96111">
        <ele>189.52</ele>
        <time>2014-04-05T13:56:19Z</time>
      </trkpt>
      <trkpt lat="44.54591" lon="0.96123">
        <ele>190.96</ele>
        <time>2014-04-05T13:56:29Z</time>
      </trkpt>
      <trkpt lat="44.54598" lon="0.96123">
        <ele>191.44</ele>
        <time>2014-04-05T13:56:33Z</time>
      </trkpt>
      <trkpt lat="44.546" lon="0.96122">
        <ele>191.44</ele>
        <time>2014-04-05T13:56:34Z</time>
      </trkpt>
      <trkpt lat="44.54603" lon="0.96122">
        <ele>191.44</ele>
        <time>2014-04-05T13:56:35Z</time>
      </trkpt>
      <trkpt lat="44.54605" lon="0.96122">
        <ele>191.44</ele>
        <time>2014-04-05T13:56:36Z</time>
      </trkpt>
      <trkpt lat="44.54608" lon="0.96122">
        <ele>191.92</ele>
        <time>2014-04-05T13:56:37Z</time>
      </trkpt>
      <trkpt lat="44.5461" lon="0.96123">
        <ele>191.92</ele>
        <time>2014-04-05T13:56:38Z</time>
      </trkpt>
      <trkpt lat="44.54613" lon="0.96124">
        <ele>191.92</ele>
        <time>2014-04-05T13:56:39Z</time>
      </trkpt>
      <trkpt lat="44.54641" lon="0.96127">
        <ele>196.25</ele>
        <time>2014-04-05T13:56:49Z</time>
      </trkpt>
      <trkpt lat="44.54643" lon="0.96126">
        <ele>196.73</ele>
        <time>2014-04-05T13:56:50Z</time>
      </trkpt>
      <trkpt lat="44.54647" lon="0.96125">
        <ele>197.21</ele>
        <time>2014-04-05T13:56:51Z</time>
      </trkpt>
      <trkpt lat="44.54651" lon="0.96123">
        <ele>197.69</ele>
        <time>2014-04-05T13:56:52Z</time>
      </trkpt>
      <trkpt lat="44.54655" lon="0.9612">
        <ele>198.17</ele>
        <time>2014-04-05T13:56:53Z</time>
      </trkpt>
      <trkpt lat="44.54694" lon="0.96082">
        <ele>197.69</ele>
        <time>2014-04-05T13:57:00Z</time>
      </trkpt>
      <trkpt lat="44.54752" lon="0.96027">
        <ele>194.8</ele>
        <time>2014-04-05T13:57:11Z</time>
      </trkpt>
      <trkpt lat="44.54755" lon="0.96023">
        <ele>194.32</ele>
        <time>2014-04-05T13:57:12Z</time>
      </trkpt>
      <trkpt lat="44.54758" lon="0.96019">
        <ele>194.32</ele>
        <time>2014-04-05T13:57:13Z</time>
      </trkpt>
      <trkpt lat="44.54761" lon="0.96017">
        <ele>193.84</ele>
        <time>2014-04-05T13:57:14Z</time>
      </trkpt>
      <trkpt lat="44.54764" lon="0.96016">
        <ele>193.36</ele>
        <time>2014-04-05T13:57:15Z</time>
      </trkpt>
      <trkpt lat="44.54768" lon="0.96016">
        <ele>192.88</ele>
        <time>2014-04-05T13:57:16Z</time>
      </trkpt>
      <trkpt lat="44.5477" lon="0.96017">
        <ele>191.92</ele>
        <time>2014-04-05T13:57:17Z</time>
      </trkpt>
      <trkpt lat="44.54773" lon="0.96018">
        <ele>191.44</ele>
        <time>2014-04-05T13:57:18Z</time>
      </trkpt>
      <trkpt lat="44.54792" lon="0.9604">
        <ele>186.15</ele>
        <time>2014-04-05T13:57:32Z</time>
      </trkpt>
      <trkpt lat="44.548" lon="0.96087">
        <ele>182.31</ele>
        <time>2014-04-05T13:57:45Z</time>
      </trkpt>
      <trkpt lat="44.54811" lon="0.96149">
        <ele>181.83</ele>
        <time>2014-04-05T13:58:01Z</time>
      </trkpt>
      <trkpt lat="44.54818" lon="0.96174">
        <ele>182.79</ele>
        <time>2014-04-05T13:58:10Z</time>
      </trkpt>
      <trkpt lat="44.5482" lon="0.96175">
        <ele>183.27</ele>
        <time>2014-04-05T13:58:12Z</time>
      </trkpt>
      <trkpt lat="44.54837" lon="0.96172">
        <ele>186.15</ele>
        <time>2014-04-05T13:58:25Z</time>
      </trkpt>
      <trkpt lat="44.54839" lon="0.96178">
        <ele>187.59</ele>
        <time>2014-04-05T13:58:36Z</time>
      </trkpt>
      <trkpt lat="44.54844" lon="0.96178">
        <ele>188.56</ele>
        <time>2014-04-05T13:58:47Z</time>
      </trkpt>
      <trkpt lat="44.54855" lon="0.96178">
        <ele>190</ele>
        <time>2014-04-05T13:59:00Z</time>
      </trkpt>
      <trkpt lat="44.5486" lon="0.96174">
        <ele>189.52</ele>
        <time>2014-04-05T13:59:05Z</time>
      </trkpt>
      <trkpt lat="44.5487" lon="0.96173">
        <ele>189.52</ele>
        <time>2014-04-05T13:59:16Z</time>
      </trkpt>
      <trkpt lat="44.5488" lon="0.96167">
        <ele>190</ele>
        <time>2014-04-05T13:59:29Z</time>
      </trkpt>
      <trkpt lat="44.54883" lon="0.96168">
        <ele>187.59</ele>
        <time>2014-04-05T13:59:41Z</time>
      </trkpt>
      <trkpt lat="44.54882" lon="0.96171">
        <ele>187.11</ele>
        <time>2014-04-05T13:59:44Z</time>
      </trkpt>
      <trkpt lat="44.54886" lon="0.96191">
        <ele>185.19</ele>
        <time>2014-04-05T13:59:58Z</time>
      </trkpt>
      <trkpt lat="44.5489" lon="0.96202">
        <ele>185.67</ele>
        <time>2014-04-05T14:00:10Z</time>
      </trkpt>
      <trkpt lat="44.54892" lon="0.96204">
        <ele>186.63</ele>
        <time>2014-04-05T14:00:20Z</time>
      </trkpt>
      <trkpt lat="44.54892" lon="0.96206">
        <ele>186.15</ele>
        <time>2014-04-05T14:00:22Z</time>
      </trkpt>
      <trkpt lat="44.54893" lon="0.96216">
        <ele>186.15</ele>
        <time>2014-04-05T14:00:36Z</time>
      </trkpt>
      <trkpt lat="44.54896" lon="0.96219">
        <ele>187.59</ele>
        <time>2014-04-05T14:00:47Z</time>
      </trkpt>
      <trkpt lat="44.54904" lon="0.96223">
        <ele>185.67</ele>
        <time>2014-04-05T14:00:54Z</time>
      </trkpt>
      <trkpt lat="44.54911" lon="0.96227">
        <ele>184.23</ele>
        <time>2014-04-05T14:01:04Z</time>
      </trkpt>
      <trkpt lat="44.54915" lon="0.96231">
        <ele>182.79</ele>
        <time>2014-04-05T14:01:16Z</time>
      </trkpt>
      <trkpt lat="44.54918" lon="0.96233">
        <ele>183.27</ele>
        <time>2014-04-05T14:01:26Z</time>
      </trkpt>
      <trkpt lat="44.54921" lon="0.96238">
        <ele>181.35</ele>
        <time>2014-04-05T14:01:30Z</time>
      </trkpt>
      <trkpt lat="44.54923" lon="0.9624">
        <ele>180.38</ele>
        <time>2014-04-05T14:01:32Z</time>
      </trkpt>
      <trkpt lat="44.54928" lon="0.96251">
        <ele>173.66</ele>
        <time>2014-04-05T14:01:42Z</time>
      </trkpt>
      <trkpt lat="44.54932" lon="0.96256">
        <ele>174.14</ele>
        <time>2014-04-05T14:02:02Z</time>
      </trkpt>
      <trkpt lat="44.54932" lon="0.96259">
        <ele>173.66</ele>
        <time>2014-04-05T14:02:20Z</time>
      </trkpt>
      <trkpt lat="44.54933" lon="0.96261">
        <ele>174.14</ele>
        <time>2014-04-05T14:02:41Z</time>
      </trkpt>
      <trkpt lat="44.54934" lon="0.96261">
        <ele>174.14</ele>
        <time>2014-04-05T14:02:49Z</time>
      </trkpt>
      <trkpt lat="44.54938" lon="0.96259">
        <ele>174.62</ele>
        <time>2014-04-05T14:03:02Z</time>
      </trkpt>
      <trkpt lat="44.54943" lon="0.96257">
        <ele>173.17</ele>
        <time>2014-04-05T14:03:16Z</time>
      </trkpt>
      <trkpt lat="44.54947" lon="0.96262">
        <ele>171.73</ele>
        <time>2014-04-05T14:03:28Z</time>
      </trkpt>
      <trkpt lat="44.54949" lon="0.96265">
        <ele>170.77</ele>
        <time>2014-04-05T14:03:32Z</time>
      </trkpt>
      <trkpt lat="44.54949" lon="0.96274">
        <ele>166.93</ele>
        <time>2014-04-05T14:03:45Z</time>
      </trkpt>
      <trkpt lat="44.5495" lon="0.96281">
        <ele>165.48</ele>
        <time>2014-04-05T14:03:56Z</time>
      </trkpt>
      <trkpt lat="44.54954" lon="0.96284">
        <ele>166.45</ele>
        <time>2014-04-05T14:04:13Z</time>
      </trkpt>
      <trkpt lat="44.54955" lon="0.96287">
        <ele>166.93</ele>
        <time>2014-04-05T14:04:33Z</time>
      </trkpt>
      <trkpt lat="44.54961" lon="0.9629">
        <ele>171.73</ele>
        <time>2014-04-05T14:04:56Z</time>
      </trkpt>
      <trkpt lat="44.54962" lon="0.9629">
        <ele>171.73</ele>
        <time>2014-04-05T14:05:06Z</time>
      </trkpt>
      <trkpt lat="44.5498" lon="0.96299">
        <ele>166.93</ele>
        <time>2014-04-05T14:05:16Z</time>
      </trkpt>
      <trkpt lat="44.55008" lon="0.96318">
        <ele>159.24</ele>
        <time>2014-04-05T14:05:26Z</time>
      </trkpt>
      <trkpt lat="44.55029" lon="0.96327">
        <ele>152.99</ele>
        <time>2014-04-05T14:05:36Z</time>
      </trkpt>
      <trkpt lat="44.55061" lon="0.96326">
        <ele>153.47</ele>
        <time>2014-04-05T14:05:46Z</time>
      </trkpt>
      <trkpt lat="44.55092" lon="0.96337">
        <ele>153.47</ele>
        <time>2014-04-05T14:05:55Z</time>
      </trkpt>
      <trkpt lat="44.55098" lon="0.96346">
        <ele>154.91</ele>
        <time>2014-04-05T14:05:59Z</time>
      </trkpt>
      <trkpt lat="44.55098" lon="0.96356">
        <ele>155.39</ele>
        <time>2014-04-05T14:06:03Z</time>
      </trkpt>
      <trkpt lat="44.55108" lon="0.96375">
        <ele>156.35</ele>
        <time>2014-04-05T14:06:15Z</time>
      </trkpt>
      <trkpt lat="44.55109" lon="0.96377">
        <ele>156.35</ele>
        <time>2014-04-05T14:06:19Z</time>
      </trkpt>
      <trkpt lat="44.55111" lon="0.96403">
        <ele>155.87</ele>
        <time>2014-04-05T14:06:28Z</time>
      </trkpt>
      <trkpt lat="44.55115" lon="0.96419">
        <ele>155.39</ele>
        <time>2014-04-05T14:06:31Z</time>
      </trkpt>
      <trkpt lat="44.55137" lon="0.96464">
        <ele>154.91</ele>
        <time>2014-04-05T14:06:41Z</time>
      </trkpt>
      <trkpt lat="44.55149" lon="0.96503">
        <ele>152.99</ele>
        <time>2014-04-05T14:06:51Z</time>
      </trkpt>
      <trkpt lat="44.55151" lon="0.96506">
        <ele>152.99</ele>
        <time>2014-04-05T14:06:52Z</time>
      </trkpt>
      <trkpt lat="44.5516" lon="0.96513">
        <ele>152.51</ele>
        <time>2014-04-05T14:06:58Z</time>
      </trkpt>
      <trkpt lat="44.55174" lon="0.96516">
        <ele>152.03</ele>
        <time>2014-04-05T14:07:04Z</time>
      </trkpt>
      <trkpt lat="44.5518" lon="0.96524">
        <ele>151.06</ele>
        <time>2014-04-05T14:07:08Z</time>
      </trkpt>
      <trkpt lat="44.55197" lon="0.96559">
        <ele>150.58</ele>
        <time>2014-04-05T14:07:17Z</time>
      </trkpt>
      <trkpt lat="44.55204" lon="0.9658">
        <ele>150.58</ele>
        <time>2014-04-05T14:07:22Z</time>
      </trkpt>
      <trkpt lat="44.55205" lon="0.96622">
        <ele>148.66</ele>
        <time>2014-04-05T14:07:32Z</time>
      </trkpt>
      <trkpt lat="44.55205" lon="0.96629">
        <ele>148.66</ele>
        <time>2014-04-05T14:07:34Z</time>
      </trkpt>
      <trkpt lat="44.55206" lon="0.96647">
        <ele>147.7</ele>
        <time>2014-04-05T14:07:40Z</time>
      </trkpt>
      <trkpt lat="44.55198" lon="0.96684">
        <ele>147.7</ele>
        <time>2014-04-05T14:07:50Z</time>
      </trkpt>
      <trkpt lat="44.552" lon="0.96706">
        <ele>148.18</ele>
        <time>2014-04-05T14:07:57Z</time>
      </trkpt>
      <trkpt lat="44.55196" lon="0.96727">
        <ele>148.66</ele>
        <time>2014-04-05T14:08:03Z</time>
      </trkpt>
      <trkpt lat="44.55194" lon="0.96753">
        <ele>149.14</ele>
        <time>2014-04-05T14:08:10Z</time>
      </trkpt>
      <trkpt lat="44.55187" lon="0.96785">
        <ele>149.62</ele>
        <time>2014-04-05T14:08:19Z</time>
      </trkpt>
      <trkpt lat="44.55186" lon="0.96791">
        <ele>150.1</ele>
        <time>2014-04-05T14:08:21Z</time>
      </trkpt>
      <trkpt lat="44.55184" lon="0.96847">
        <ele>149.62</ele>
        <time>2014-04-05T14:08:34Z</time>
      </trkpt>
      <trkpt lat="44.55172" lon="0.96861">
        <ele>148.18</ele>
        <time>2014-04-05T14:08:39Z</time>
      </trkpt>
      <trkpt lat="44.55163" lon="0.96871">
        <ele>147.22</ele>
        <time>2014-04-05T14:08:46Z</time>
      </trkpt>
      <trkpt lat="44.55151" lon="0.96894">
        <ele>149.62</ele>
        <time>2014-04-05T14:08:57Z</time>
      </trkpt>
      <trkpt lat="44.55145" lon="0.96914">
        <ele>150.1</ele>
        <time>2014-04-05T14:09:04Z</time>
      </trkpt>
      <trkpt lat="44.5514" lon="0.96925">
        <ele>150.1</ele>
        <time>2014-04-05T14:09:09Z</time>
      </trkpt>
      <trkpt lat="44.55131" lon="0.9693">
        <ele>150.1</ele>
        <time>2014-04-05T14:09:14Z</time>
      </trkpt>
      <trkpt lat="44.55116" lon="0.96944">
        <ele>151.06</ele>
        <time>2014-04-05T14:09:21Z</time>
      </trkpt>
      <trkpt lat="44.55106" lon="0.96949">
        <ele>151.54</ele>
        <time>2014-04-05T14:09:35Z</time>
      </trkpt>
      <trkpt lat="44.55099" lon="0.96959">
        <ele>154.43</ele>
        <time>2014-04-05T14:09:50Z</time>
      </trkpt>
      <trkpt lat="44.55091" lon="0.96968">
        <ele>160.68</ele>
        <time>2014-04-05T14:10:04Z</time>
      </trkpt>
      <trkpt lat="44.55088" lon="0.9698">
        <ele>168.37</ele>
        <time>2014-04-05T14:10:14Z</time>
      </trkpt>
      <trkpt lat="44.55084" lon="0.96992">
        <ele>173.66</ele>
        <time>2014-04-05T14:10:23Z</time>
      </trkpt>
      <trkpt lat="44.55081" lon="0.97008">
        <ele>178.46</ele>
        <time>2014-04-05T14:10:33Z</time>
      </trkpt>
      <trkpt lat="44.55079" lon="0.97031">
        <ele>182.31</ele>
        <time>2014-04-05T14:10:48Z</time>
      </trkpt>
      <trkpt lat="44.55075" lon="0.97038">
        <ele>182.79</ele>
        <time>2014-04-05T14:10:56Z</time>
      </trkpt>
      <trkpt lat="44.55067" lon="0.97051">
        <ele>184.71</ele>
        <time>2014-04-05T14:11:08Z</time>
      </trkpt>
      <trkpt lat="44.55061" lon="0.97073">
        <ele>183.27</ele>
        <time>2014-04-05T14:11:24Z</time>
      </trkpt>
      <trkpt lat="44.55061" lon="0.97077">
        <ele>183.27</ele>
        <time>2014-04-05T14:11:31Z</time>
      </trkpt>
      <trkpt lat="44.55061" lon="0.97081">
        <ele>183.75</ele>
        <time>2014-04-05T14:11:33Z</time>
      </trkpt>
      <trkpt lat="44.5506" lon="0.97092">
        <ele>183.75</ele>
        <time>2014-04-05T14:11:37Z</time>
      </trkpt>
      <trkpt lat="44.5506" lon="0.97097">
        <ele>183.75</ele>
        <time>2014-04-05T14:11:39Z</time>
      </trkpt>
      <trkpt lat="44.55062" lon="0.9711">
        <ele>183.75</ele>
        <time>2014-04-05T14:11:44Z</time>
      </trkpt>
      <trkpt lat="44.5506" lon="0.97131">
        <ele>184.23</ele>
        <time>2014-04-05T14:11:51Z</time>
      </trkpt>
      <trkpt lat="44.5506" lon="0.9714">
        <ele>184.23</ele>
        <time>2014-04-05T14:11:56Z</time>
      </trkpt>
      <trkpt lat="44.5506" lon="0.97145">
        <ele>183.75</ele>
        <time>2014-04-05T14:11:58Z</time>
      </trkpt>
      <trkpt lat="44.55053" lon="0.97183">
        <ele>183.27</ele>
        <time>2014-04-05T14:12:11Z</time>
      </trkpt>
      <trkpt lat="44.55047" lon="0.97198">
        <ele>184.71</ele>
        <time>2014-04-05T14:12:14Z</time>
      </trkpt>
      <trkpt lat="44.55037" lon="0.97228">
        <ele>190</ele>
        <time>2014-04-05T14:12:28Z</time>
      </trkpt>
      <trkpt lat="44.55031" lon="0.97244">
        <ele>200.09</ele>
        <time>2014-04-05T14:12:42Z</time>
      </trkpt>
      <trkpt lat="44.55027" lon="0.9725">
        <ele>202.98</ele>
        <time>2014-04-05T14:12:53Z</time>
      </trkpt>
      <trkpt lat="44.55019" lon="0.97258">
        <ele>201.53</ele>
        <time>2014-04-05T14:13:04Z</time>
      </trkpt>
      <trkpt lat="44.55007" lon="0.97265">
        <ele>201.05</ele>
        <time>2014-04-05T14:13:16Z</time>
      </trkpt>
      <trkpt lat="44.54998" lon="0.97275">
        <ele>199.61</ele>
        <time>2014-04-05T14:13:24Z</time>
      </trkpt>
      <trkpt lat="44.54994" lon="0.97282">
        <ele>200.57</ele>
        <time>2014-04-05T14:13:30Z</time>
      </trkpt>
      <trkpt lat="44.54982" lon="0.97297">
        <ele>202.98</ele>
        <time>2014-04-05T14:13:48Z</time>
      </trkpt>
      <trkpt lat="44.54978" lon="0.97302">
        <ele>203.46</ele>
        <time>2014-04-05T14:14:08Z</time>
      </trkpt>
      <trkpt lat="44.54974" lon="0.97306">
        <ele>202.98</ele>
        <time>2014-04-05T14:14:27Z</time>
      </trkpt>
      <trkpt lat="44.54973" lon="0.97307">
        <ele>204.9</ele>
        <time>2014-04-05T14:14:52Z</time>
      </trkpt>
      <trkpt lat="44.54973" lon="0.97307">
        <ele>203.46</ele>
        <time>2014-04-05T14:15:16Z</time>
      </trkpt>
      <trkpt lat="44.54966" lon="0.9733">
        <ele>198.65</ele>
        <time>2014-04-05T14:15:26Z</time>
      </trkpt>
      <trkpt lat="44.54956" lon="0.97352">
        <ele>194.8</ele>
        <time>2014-04-05T14:15:31Z</time>
      </trkpt>
      <trkpt lat="44.54941" lon="0.97376">
        <ele>188.08</ele>
        <time>2014-04-05T14:15:36Z</time>
      </trkpt>
      <trkpt lat="44.54938" lon="0.9741">
        <ele>178.46</ele>
        <time>2014-04-05T14:15:43Z</time>
      </trkpt>
      <trkpt lat="44.54944" lon="0.97429">
        <ele>177.5</ele>
        <time>2014-04-05T14:15:48Z</time>
      </trkpt>
      <trkpt lat="44.54952" lon="0.97468">
        <ele>176.54</ele>
        <time>2014-04-05T14:16:00Z</time>
      </trkpt>
      <trkpt lat="44.54951" lon="0.97479">
        <ele>175.58</ele>
        <time>2014-04-05T14:16:03Z</time>
      </trkpt>
      <trkpt lat="44.54949" lon="0.97488">
        <ele>174.14</ele>
        <time>2014-04-05T14:16:06Z</time>
      </trkpt>
      <trkpt lat="44.54948" lon="0.97502">
        <ele>172.21</ele>
        <time>2014-04-05T14:16:12Z</time>
      </trkpt>
      <trkpt lat="44.54948" lon="0.97513">
        <ele>171.25</ele>
        <time>2014-04-05T14:16:16Z</time>
      </trkpt>
      <trkpt lat="44.54946" lon="0.9755">
        <ele>177.5</ele>
        <time>2014-04-05T14:16:27Z</time>
      </trkpt>
      <trkpt lat="44.54944" lon="0.9756">
        <ele>178.46</ele>
        <time>2014-04-05T14:16:31Z</time>
      </trkpt>
      <trkpt lat="44.54944" lon="0.97568">
        <ele>179.42</ele>
        <time>2014-04-05T14:16:34Z</time>
      </trkpt>
      <trkpt lat="44.5494" lon="0.97585">
        <ele>181.83</ele>
        <time>2014-04-05T14:16:41Z</time>
      </trkpt>
      <trkpt lat="44.54939" lon="0.97606">
        <ele>185.19</ele>
        <time>2014-04-05T14:16:47Z</time>
      </trkpt>
      <trkpt lat="44.54937" lon="0.97632">
        <ele>190</ele>
        <time>2014-04-05T14:16:55Z</time>
      </trkpt>
      <trkpt lat="44.5494" lon="0.97655">
        <ele>192.4</ele>
        <time>2014-04-05T14:17:02Z</time>
      </trkpt>
      <trkpt lat="44.54946" lon="0.97665">
        <ele>193.36</ele>
        <time>2014-04-05T14:17:07Z</time>
      </trkpt>
      <trkpt lat="44.54947" lon="0.97675">
        <ele>193.36</ele>
        <time>2014-04-05T14:17:12Z</time>
      </trkpt>
      <trkpt lat="44.54947" lon="0.97703">
        <ele>192.88</ele>
        <time>2014-04-05T14:17:23Z</time>
      </trkpt>
      <trkpt lat="44.5494" lon="0.97736">
        <ele>188.08</ele>
        <time>2014-04-05T14:17:33Z</time>
      </trkpt>
      <trkpt lat="44.54936" lon="0.97745">
        <ele>186.63</ele>
        <time>2014-04-05T14:17:35Z</time>
      </trkpt>
      <trkpt lat="44.54929" lon="0.97824">
        <ele>180.87</ele>
        <time>2014-04-05T14:17:46Z</time>
      </trkpt>
      <trkpt lat="44.54923" lon="0.97838">
        <ele>181.83</ele>
        <time>2014-04-05T14:17:50Z</time>
      </trkpt>
      <trkpt lat="44.54894" lon="0.97868">
        <ele>186.15</ele>
        <time>2014-04-05T14:17:58Z</time>
      </trkpt>
      <trkpt lat="44.54863" lon="0.97861">
        <ele>188.08</ele>
        <time>2014-04-05T14:18:07Z</time>
      </trkpt>
      <trkpt lat="44.54822" lon="0.9787">
        <ele>184.71</ele>
        <time>2014-04-05T14:18:14Z</time>
      </trkpt>
      <trkpt lat="44.54784" lon="0.97916">
        <ele>188.56</ele>
        <time>2014-04-05T14:18:24Z</time>
      </trkpt>
      <trkpt lat="44.54775" lon="0.97932">
        <ele>190</ele>
        <time>2014-04-05T14:18:27Z</time>
      </trkpt>
      <trkpt lat="44.54759" lon="0.97952">
        <ele>190.96</ele>
        <time>2014-04-05T14:18:31Z</time>
      </trkpt>
      <trkpt lat="44.54747" lon="0.97961">
        <ele>191.44</ele>
        <time>2014-04-05T14:18:35Z</time>
      </trkpt>
      <trkpt lat="44.54742" lon="0.97961">
        <ele>192.4</ele>
        <time>2014-04-05T14:18:38Z</time>
      </trkpt>
      <trkpt lat="44.54735" lon="0.97955">
        <ele>193.36</ele>
        <time>2014-04-05T14:18:42Z</time>
      </trkpt>
      <trkpt lat="44.54691" lon="0.97922">
        <ele>194.8</ele>
        <time>2014-04-05T14:18:54Z</time>
      </trkpt>
      <trkpt lat="44.54679" lon="0.9792">
        <ele>193.84</ele>
        <time>2014-04-05T14:19:06Z</time>
      </trkpt>
      <trkpt lat="44.54664" lon="0.97943">
        <ele>194.8</ele>
        <time>2014-04-05T14:19:16Z</time>
      </trkpt>
      <trkpt lat="44.54649" lon="0.97958">
        <ele>194.8</ele>
        <time>2014-04-05T14:19:22Z</time>
      </trkpt>
      <trkpt lat="44.54626" lon="0.97983">
        <ele>197.21</ele>
        <time>2014-04-05T14:19:32Z</time>
      </trkpt>
      <trkpt lat="44.54614" lon="0.9802">
        <ele>200.57</ele>
        <time>2014-04-05T14:19:42Z</time>
      </trkpt>
      <trkpt lat="44.54608" lon="0.98037">
        <ele>200.57</ele>
        <time>2014-04-05T14:19:47Z</time>
      </trkpt>
      <trkpt lat="44.54602" lon="0.98039">
        <ele>200.57</ele>
        <time>2014-04-05T14:19:49Z</time>
      </trkpt>
      <trkpt lat="44.54586" lon="0.98062">
        <ele>200.57</ele>
        <time>2014-04-05T14:19:55Z</time>
      </trkpt>
      <trkpt lat="44.54562" lon="0.98115">
        <ele>205.38</ele>
        <time>2014-04-05T14:20:07Z</time>
      </trkpt>
      <trkpt lat="44.54555" lon="0.98154">
        <ele>213.55</ele>
        <time>2014-04-05T14:20:17Z</time>
      </trkpt>
      <trkpt lat="44.54548" lon="0.98199">
        <ele>221.24</ele>
        <time>2014-04-05T14:20:30Z</time>
      </trkpt>
      <trkpt lat="44.54536" lon="0.98231">
        <ele>223.16</ele>
        <time>2014-04-05T14:20:42Z</time>
      </trkpt>
      <trkpt lat="44.54532" lon="0.9824">
        <ele>221.24</ele>
        <time>2014-04-05T14:20:52Z</time>
      </trkpt>
      <trkpt lat="44.54532" lon="0.98241">
        <ele>220.76</ele>
        <time>2014-04-05T14:21:06Z</time>
      </trkpt>
      <trkpt lat="44.54532" lon="0.9824">
        <ele>218.36</ele>
        <time>2014-04-05T14:21:30Z</time>
      </trkpt>
      <trkpt lat="44.54532" lon="0.98241">
        <ele>217.4</ele>
        <time>2014-04-05T14:21:52Z</time>
      </trkpt>
      <trkpt lat="44.54531" lon="0.98241">
        <ele>216.91</ele>
        <time>2014-04-05T14:22:08Z</time>
      </trkpt>
      <trkpt lat="44.54532" lon="0.9824">
        <ele>216.43</ele>
        <time>2014-04-05T14:22:28Z</time>
      </trkpt>
      <trkpt lat="44.54528" lon="0.9824">
        <ele>216.43</ele>
        <time>2014-04-05T14:22:31Z</time>
      </trkpt>
      <trkpt lat="44.54526" lon="0.9824">
        <ele>216.43</ele>
        <time>2014-04-05T14:22:32Z</time>
      </trkpt>
      <trkpt lat="44.54522" lon="0.98239">
        <ele>215.95</ele>
        <time>2014-04-05T14:22:33Z</time>
      </trkpt>
      <trkpt lat="44.54504" lon="0.98232">
        <ele>214.51</ele>
        <time>2014-04-05T14:22:37Z</time>
      </trkpt>
      <trkpt lat="44.545" lon="0.98229">
        <ele>214.03</ele>
        <time>2014-04-05T14:22:38Z</time>
      </trkpt>
      <trkpt lat="44.54495" lon="0.98224">
        <ele>214.03</ele>
        <time>2014-04-05T14:22:39Z</time>
      </trkpt>
      <trkpt lat="44.5449" lon="0.98219">
        <ele>213.55</ele>
        <time>2014-04-05T14:22:40Z</time>
      </trkpt>
      <trkpt lat="44.54485" lon="0.98213">
        <ele>213.07</ele>
        <time>2014-04-05T14:22:41Z</time>
      </trkpt>
      <trkpt lat="44.54481" lon="0.98206">
        <ele>212.59</ele>
        <time>2014-04-05T14:22:42Z</time>
      </trkpt>
      <trkpt lat="44.54472" lon="0.98192">
        <ele>212.11</ele>
        <time>2014-04-05T14:22:44Z</time>
      </trkpt>
      <trkpt lat="44.54469" lon="0.98186">
        <ele>211.63</ele>
        <time>2014-04-05T14:22:45Z</time>
      </trkpt>
      <trkpt lat="44.54459" lon="0.98168">
        <ele>209.7</ele>
        <time>2014-04-05T14:22:48Z</time>
      </trkpt>
      <trkpt lat="44.54454" lon="0.9816">
        <ele>208.74</ele>
        <time>2014-04-05T14:22:50Z</time>
      </trkpt>
      <trkpt lat="44.54451" lon="0.9816">
        <ele>208.26</ele>
        <time>2014-04-05T14:22:51Z</time>
      </trkpt>
      <trkpt lat="44.54447" lon="0.98161">
        <ele>208.26</ele>
        <time>2014-04-05T14:22:52Z</time>
      </trkpt>
      <trkpt lat="44.54443" lon="0.98165">
        <ele>207.78</ele>
        <time>2014-04-05T14:22:53Z</time>
      </trkpt>
      <trkpt lat="44.5444" lon="0.98169">
        <ele>207.3</ele>
        <time>2014-04-05T14:22:54Z</time>
      </trkpt>
      <trkpt lat="44.54436" lon="0.98174">
        <ele>207.3</ele>
        <time>2014-04-05T14:22:55Z</time>
      </trkpt>
      <trkpt lat="44.54431" lon="0.98178">
        <ele>206.82</ele>
        <time>2014-04-05T14:22:56Z</time>
      </trkpt>
      <trkpt lat="44.54425" lon="0.98182">
        <ele>206.34</ele>
        <time>2014-04-05T14:22:57Z</time>
      </trkpt>
      <trkpt lat="44.54419" lon="0.98184">
        <ele>206.34</ele>
        <time>2014-04-05T14:22:58Z</time>
      </trkpt>
      <trkpt lat="44.54413" lon="0.98187">
        <ele>205.86</ele>
        <time>2014-04-05T14:22:59Z</time>
      </trkpt>
      <trkpt lat="44.54365" lon="0.98209">
        <ele>203.94</ele>
        <time>2014-04-05T14:23:07Z</time>
      </trkpt>
      <trkpt lat="44.5436" lon="0.98214">
        <ele>203.94</ele>
        <time>2014-04-05T14:23:08Z</time>
      </trkpt>
      <trkpt lat="44.54338" lon="0.98244">
        <ele>201.05</ele>
        <time>2014-04-05T14:23:13Z</time>
      </trkpt>
      <trkpt lat="44.5433" lon="0.98261">
        <ele>199.13</ele>
        <time>2014-04-05T14:23:15Z</time>
      </trkpt>
      <trkpt lat="44.54328" lon="0.98271">
        <ele>198.17</ele>
        <time>2014-04-05T14:23:16Z</time>
      </trkpt>
      <trkpt lat="44.54326" lon="0.98292">
        <ele>196.25</ele>
        <time>2014-04-05T14:23:18Z</time>
      </trkpt>
      <trkpt lat="44.54323" lon="0.98333">
        <ele>191.92</ele>
        <time>2014-04-05T14:23:22Z</time>
      </trkpt>
      <trkpt lat="44.54321" lon="0.98341">
        <ele>190.96</ele>
        <time>2014-04-05T14:23:23Z</time>
      </trkpt>
      <trkpt lat="44.54319" lon="0.98349">
        <ele>190</ele>
        <time>2014-04-05T14:23:24Z</time>
      </trkpt>
      <trkpt lat="44.54315" lon="0.98357">
        <ele>189.52</ele>
        <time>2014-04-05T14:23:25Z</time>
      </trkpt>
      <trkpt lat="44.54311" lon="0.98363">
        <ele>189.04</ele>
        <time>2014-04-05T14:23:26Z</time>
      </trkpt>
      <trkpt lat="44.54306" lon="0.98369">
        <ele>188.56</ele>
        <time>2014-04-05T14:23:27Z</time>
      </trkpt>
      <trkpt lat="44.54302" lon="0.98374">
        <ele>187.59</ele>
        <time>2014-04-05T14:23:28Z</time>
      </trkpt>
      <trkpt lat="44.54297" lon="0.98381">
        <ele>187.11</ele>
        <time>2014-04-05T14:23:29Z</time>
      </trkpt>
      <trkpt lat="44.54293" lon="0.98388">
        <ele>186.63</ele>
        <time>2014-04-05T14:23:30Z</time>
      </trkpt>
      <trkpt lat="44.54287" lon="0.98394">
        <ele>185.67</ele>
        <time>2014-04-05T14:23:31Z</time>
      </trkpt>
      <trkpt lat="44.54253" lon="0.98423">
        <ele>184.23</ele>
        <time>2014-04-05T14:23:36Z</time>
      </trkpt>
      <trkpt lat="44.54247" lon="0.9843">
        <ele>183.75</ele>
        <time>2014-04-05T14:23:37Z</time>
      </trkpt>
      <trkpt lat="44.54219" lon="0.98483">
        <ele>180.38</ele>
        <time>2014-04-05T14:23:43Z</time>
      </trkpt>
      <trkpt lat="44.54217" lon="0.98492">
        <ele>179.9</ele>
        <time>2014-04-05T14:23:44Z</time>
      </trkpt>
      <trkpt lat="44.54217" lon="0.985">
        <ele>179.42</ele>
        <time>2014-04-05T14:23:45Z</time>
      </trkpt>
      <trkpt lat="44.54217" lon="0.98516">
        <ele>177.98</ele>
        <time>2014-04-05T14:23:47Z</time>
      </trkpt>
      <trkpt lat="44.54222" lon="0.98546">
        <ele>174.62</ele>
        <time>2014-04-05T14:23:51Z</time>
      </trkpt>
      <trkpt lat="44.54234" lon="0.98587">
        <ele>173.17</ele>
        <time>2014-04-05T14:24:00Z</time>
      </trkpt>
      <trkpt lat="44.54241" lon="0.98594">
        <ele>177.5</ele>
        <time>2014-04-05T14:24:20Z</time>
      </trkpt>
      <trkpt lat="44.54248" lon="0.98602">
        <ele>182.31</ele>
        <time>2014-04-05T14:24:49Z</time>
      </trkpt>
      <trkpt lat="44.54247" lon="0.98605">
        <ele>180.87</ele>
        <time>2014-04-05T14:25:20Z</time>
      </trkpt>
      <trkpt lat="44.54245" lon="0.98605">
        <ele>181.35</ele>
        <time>2014-04-05T14:25:21Z</time>
      </trkpt>
      <trkpt lat="44.54232" lon="0.98616">
        <ele>181.83</ele>
        <time>2014-04-05T14:25:26Z</time>
      </trkpt>
      <trkpt lat="44.54223" lon="0.98621">
        <ele>181.83</ele>
        <time>2014-04-05T14:25:28Z</time>
      </trkpt>
      <trkpt lat="44.54204" lon="0.98638">
        <ele>181.35</ele>
        <time>2014-04-05T14:25:33Z</time>
      </trkpt>
      <trkpt lat="44.54194" lon="0.98658">
        <ele>178.94</ele>
        <time>2014-04-05T14:25:37Z</time>
      </trkpt>
      <trkpt lat="44.54172" lon="0.98693">
        <ele>174.14</ele>
        <time>2014-04-05T14:25:43Z</time>
      </trkpt>
      <trkpt lat="44.54135" lon="0.98737">
        <ele>170.29</ele>
        <time>2014-04-05T14:25:53Z</time>
      </trkpt>
      <trkpt lat="44.54109" lon="0.98767">
        <ele>173.66</ele>
        <time>2014-04-05T14:26:01Z</time>
      </trkpt>
      <trkpt lat="44.54094" lon="0.98784">
        <ele>175.58</ele>
        <time>2014-04-05T14:26:05Z</time>
      </trkpt>
      <trkpt lat="44.54068" lon="0.9881">
        <ele>176.54</ele>
        <time>2014-04-05T14:26:14Z</time>
      </trkpt>
      <trkpt lat="44.54017" lon="0.9884">
        <ele>177.02</ele>
        <time>2014-04-05T14:26:26Z</time>
      </trkpt>
      <trkpt lat="44.5401" lon="0.98847">
        <ele>177.02</ele>
        <time>2014-04-05T14:26:28Z</time>
      </trkpt>
      <trkpt lat="44.53964" lon="0.98896">
        <ele>182.79</ele>
        <time>2014-04-05T14:26:42Z</time>
      </trkpt>
      <trkpt lat="44.53956" lon="0.98901">
        <ele>182.31</ele>
        <time>2014-04-05T14:26:44Z</time>
      </trkpt>
      <trkpt lat="44.5393" lon="0.98902">
        <ele>179.9</ele>
        <time>2014-04-05T14:26:51Z</time>
      </trkpt>
      <trkpt lat="44.53909" lon="0.98904">
        <ele>175.1</ele>
        <time>2014-04-05T14:27:05Z</time>
      </trkpt>
      <trkpt lat="44.53905" lon="0.98903">
        <ele>174.14</ele>
        <time>2014-04-05T14:27:14Z</time>
      </trkpt>
      <trkpt lat="44.53927" lon="0.98901">
        <ele>173.66</ele>
        <time>2014-04-05T14:27:27Z</time>
      </trkpt>
      <trkpt lat="44.53932" lon="0.98908">
        <ele>171.73</ele>
        <time>2014-04-05T14:27:35Z</time>
      </trkpt>
      <trkpt lat="44.53932" lon="0.9891">
        <ele>170.77</ele>
        <time>2014-04-05T14:27:36Z</time>
      </trkpt>
      <trkpt lat="44.53931" lon="0.98915">
        <ele>168.85</ele>
        <time>2014-04-05T14:27:39Z</time>
      </trkpt>
      <trkpt lat="44.5391" lon="0.98935">
        <ele>169.33</ele>
        <time>2014-04-05T14:27:52Z</time>
      </trkpt>
      <trkpt lat="44.53884" lon="0.98943">
        <ele>172.69</ele>
        <time>2014-04-05T14:28:02Z</time>
      </trkpt>
      <trkpt lat="44.53868" lon="0.98951">
        <ele>175.58</ele>
        <time>2014-04-05T14:28:09Z</time>
      </trkpt>
      <trkpt lat="44.53864" lon="0.98969">
        <ele>174.14</ele>
        <time>2014-04-05T14:28:19Z</time>
      </trkpt>
      <trkpt lat="44.53865" lon="0.98973">
        <ele>172.69</ele>
        <time>2014-04-05T14:28:22Z</time>
      </trkpt>
      <trkpt lat="44.53872" lon="0.98989">
        <ele>174.14</ele>
        <time>2014-04-05T14:28:36Z</time>
      </trkpt>
      <trkpt lat="44.53871" lon="0.99003">
        <ele>174.62</ele>
        <time>2014-04-05T14:28:51Z</time>
      </trkpt>
      <trkpt lat="44.53872" lon="0.99007">
        <ele>172.69</ele>
        <time>2014-04-05T14:29:05Z</time>
      </trkpt>
      <trkpt lat="44.53881" lon="0.99011">
        <ele>174.62</ele>
        <time>2014-04-05T14:29:20Z</time>
      </trkpt>
      <trkpt lat="44.53901" lon="0.99013">
        <ele>179.42</ele>
        <time>2014-04-05T14:29:36Z</time>
      </trkpt>
      <trkpt lat="44.53927" lon="0.99018">
        <ele>182.79</ele>
        <time>2014-04-05T14:29:51Z</time>
      </trkpt>
      <trkpt lat="44.53946" lon="0.99026">
        <ele>188.08</ele>
        <time>2014-04-05T14:30:06Z</time>
      </trkpt>
      <trkpt lat="44.53946" lon="0.99038">
        <ele>191.92</ele>
        <time>2014-04-05T14:30:17Z</time>
      </trkpt>
      <trkpt lat="44.53936" lon="0.99054">
        <ele>198.65</ele>
        <time>2014-04-05T14:30:33Z</time>
      </trkpt>
      <trkpt lat="44.53931" lon="0.99065">
        <ele>199.13</ele>
        <time>2014-04-05T14:30:44Z</time>
      </trkpt>
      <trkpt lat="44.53927" lon="0.99073">
        <ele>200.09</ele>
        <time>2014-04-05T14:30:51Z</time>
      </trkpt>
      <trkpt lat="44.53921" lon="0.99076">
        <ele>201.05</ele>
        <time>2014-04-05T14:30:56Z</time>
      </trkpt>
      <trkpt lat="44.53907" lon="0.99101">
        <ele>199.61</ele>
        <time>2014-04-05T14:31:11Z</time>
      </trkpt>
      <trkpt lat="44.53897" lon="0.99111">
        <ele>201.05</ele>
        <time>2014-04-05T14:31:24Z</time>
      </trkpt>
      <trkpt lat="44.53884" lon="0.99119">
        <ele>201.53</ele>
        <time>2014-04-05T14:31:36Z</time>
      </trkpt>
      <trkpt lat="44.53857" lon="0.9914">
        <ele>202.98</ele>
        <time>2014-04-05T14:31:49Z</time>
      </trkpt>
      <trkpt lat="44.53839" lon="0.99156">
        <ele>205.38</ele>
        <time>2014-04-05T14:32:01Z</time>
      </trkpt>
      <trkpt lat="44.53833" lon="0.9916">
        <ele>207.3</ele>
        <time>2014-04-05T14:32:06Z</time>
      </trkpt>
      <trkpt lat="44.53824" lon="0.99163">
        <ele>210.67</ele>
        <time>2014-04-05T14:32:19Z</time>
      </trkpt>
      <trkpt lat="44.53812" lon="0.99161">
        <ele>213.07</ele>
        <time>2014-04-05T14:32:31Z</time>
      </trkpt>
      <trkpt lat="44.53801" lon="0.99162">
        <ele>213.55</ele>
        <time>2014-04-05T14:32:44Z</time>
      </trkpt>
      <trkpt lat="44.53788" lon="0.99161">
        <ele>215.47</ele>
        <time>2014-04-05T14:32:58Z</time>
      </trkpt>
      <trkpt lat="44.53775" lon="0.99155">
        <ele>217.4</ele>
        <time>2014-04-05T14:33:11Z</time>
      </trkpt>
      <trkpt lat="44.53762" lon="0.99153">
        <ele>219.32</ele>
        <time>2014-04-05T14:33:24Z</time>
      </trkpt>
      <trkpt lat="44.53754" lon="0.99153">
        <ele>219.8</ele>
        <time>2014-04-05T14:33:31Z</time>
      </trkpt>
      <trkpt lat="44.53744" lon="0.99161">
        <ele>219.8</ele>
        <time>2014-04-05T14:33:42Z</time>
      </trkpt>
      <trkpt lat="44.53743" lon="0.99178">
        <ele>221.72</ele>
        <time>2014-04-05T14:33:56Z</time>
      </trkpt>
      <trkpt lat="44.53742" lon="0.99182">
        <ele>222.2</ele>
        <time>2014-04-05T14:33:59Z</time>
      </trkpt>
      <trkpt lat="44.53742" lon="0.99192">
        <ele>221.24</ele>
        <time>2014-04-05T14:34:07Z</time>
      </trkpt>
      <trkpt lat="44.53745" lon="0.992">
        <ele>220.76</ele>
        <time>2014-04-05T14:34:11Z</time>
      </trkpt>
      <trkpt lat="44.53751" lon="0.99225">
        <ele>221.24</ele>
        <time>2014-04-05T14:34:25Z</time>
      </trkpt>
      <trkpt lat="44.53755" lon="0.99236">
        <ele>220.76</ele>
        <time>2014-04-05T14:34:37Z</time>
      </trkpt>
      <trkpt lat="44.53754" lon="0.99236">
        <ele>219.8</ele>
        <time>2014-04-05T14:35:01Z</time>
      </trkpt>
      <trkpt lat="44.53755" lon="0.99236">
        <ele>219.8</ele>
        <time>2014-04-05T14:35:23Z</time>
      </trkpt>
      <trkpt lat="44.53755" lon="0.99238">
        <ele>218.36</ele>
        <time>2014-04-05T14:35:45Z</time>
      </trkpt>
      <trkpt lat="44.53756" lon="0.99238">
        <ele>218.84</ele>
        <time>2014-04-05T14:36:22Z</time>
      </trkpt>
      <trkpt lat="44.53756" lon="0.99239">
        <ele>218.36</ele>
        <time>2014-04-05T14:36:54Z</time>
      </trkpt>
      <trkpt lat="44.53755" lon="0.99239">
        <ele>217.4</ele>
        <time>2014-04-05T14:37:14Z</time>
      </trkpt>
      <trkpt lat="44.53755" lon="0.99239">
        <ele>216.43</ele>
        <time>2014-04-05T14:37:40Z</time>
      </trkpt>
      <trkpt lat="44.53755" lon="0.99238">
        <ele>215.95</ele>
        <time>2014-04-05T14:38:04Z</time>
      </trkpt>
      <trkpt lat="44.53755" lon="0.99239">
        <ele>215.95</ele>
        <time>2014-04-05T14:38:26Z</time>
      </trkpt>
      <trkpt lat="44.53754" lon="0.99239">
        <ele>215.47</ele>
        <time>2014-04-05T14:38:54Z</time>
      </trkpt>
      <trkpt lat="44.53755" lon="0.99238">
        <ele>216.43</ele>
        <time>2014-04-05T14:39:08Z</time>
      </trkpt>
      <trkpt lat="44.53757" lon="0.99239">
        <ele>217.88</ele>
        <time>2014-04-05T14:39:25Z</time>
      </trkpt>
      <trkpt lat="44.53757" lon="0.99238">
        <ele>218.84</ele>
        <time>2014-04-05T14:39:50Z</time>
      </trkpt>
      <trkpt lat="44.53756" lon="0.99237">
        <ele>219.8</ele>
        <time>2014-04-05T14:40:25Z</time>
      </trkpt>
      <trkpt lat="44.53755" lon="0.99237">
        <ele>219.8</ele>
        <time>2014-04-05T14:41:01Z</time>
      </trkpt>
      <trkpt lat="44.53753" lon="0.99239">
        <ele>219.32</ele>
        <time>2014-04-05T14:41:31Z</time>
      </trkpt>
      <trkpt lat="44.53752" lon="0.9924">
        <ele>218.84</ele>
        <time>2014-04-05T14:41:57Z</time>
      </trkpt>
      <trkpt lat="44.53754" lon="0.99243">
        <ele>220.28</ele>
        <time>2014-04-05T14:42:18Z</time>
      </trkpt>
      <trkpt lat="44.53753" lon="0.99243">
        <ele>221.72</ele>
        <time>2014-04-05T14:42:49Z</time>
      </trkpt>
      <trkpt lat="44.53754" lon="0.99241">
        <ele>219.8</ele>
        <time>2014-04-05T14:43:25Z</time>
      </trkpt>
      <trkpt lat="44.53755" lon="0.9924">
        <ele>219.8</ele>
        <time>2014-04-05T14:43:55Z</time>
      </trkpt>
      <trkpt lat="44.53757" lon="0.99243">
        <ele>221.24</ele>
        <time>2014-04-05T14:44:30Z</time>
      </trkpt>
      <trkpt lat="44.53756" lon="0.99241">
        <ele>219.32</ele>
        <time>2014-04-05T14:45:04Z</time>
      </trkpt>
      <trkpt lat="44.53755" lon="0.9924">
        <ele>219.8</ele>
        <time>2014-04-05T14:45:38Z</time>
      </trkpt>
      <trkpt lat="44.5377" lon="0.99245">
        <ele>217.88</ele>
        <time>2014-04-05T14:45:46Z</time>
      </trkpt>
      <trkpt lat="44.53796" lon="0.99253">
        <ele>216.91</ele>
        <time>2014-04-05T14:45:55Z</time>
      </trkpt>
      <trkpt lat="44.53826" lon="0.99273">
        <ele>214.51</ele>
        <time>2014-04-05T14:46:03Z</time>
      </trkpt>
      <trkpt lat="44.53846" lon="0.99279">
        <ele>215.95</ele>
        <time>2014-04-05T14:46:09Z</time>
      </trkpt>
      <trkpt lat="44.5387" lon="0.99288">
        <ele>217.88</ele>
        <time>2014-04-05T14:46:19Z</time>
      </trkpt>
      <trkpt lat="44.53884" lon="0.99294">
        <ele>218.84</ele>
        <time>2014-04-05T14:46:32Z</time>
      </trkpt>
      <trkpt lat="44.53884" lon="0.99295">
        <ele>218.36</ele>
        <time>2014-04-05T14:46:39Z</time>
      </trkpt>
      <trkpt lat="44.53881" lon="0.99307">
        <ele>217.88</ele>
        <time>2014-04-05T14:46:46Z</time>
      </trkpt>
      <trkpt lat="44.53868" lon="0.99349">
        <ele>219.32</ele>
        <time>2014-04-05T14:47:01Z</time>
      </trkpt>
      <trkpt lat="44.53851" lon="0.99373">
        <ele>221.72</ele>
        <time>2014-04-05T14:47:11Z</time>
      </trkpt>
      <trkpt lat="44.53848" lon="0.99374">
        <ele>221.24</ele>
        <time>2014-04-05T14:47:12Z</time>
      </trkpt>
      <trkpt lat="44.53845" lon="0.99375">
        <ele>220.76</ele>
        <time>2014-04-05T14:47:13Z</time>
      </trkpt>
      <trkpt lat="44.53841" lon="0.99374">
        <ele>220.28</ele>
        <time>2014-04-05T14:47:14Z</time>
      </trkpt>
      <trkpt lat="44.53838" lon="0.99372">
        <ele>219.8</ele>
        <time>2014-04-05T14:47:15Z</time>
      </trkpt>
      <trkpt lat="44.53776" lon="0.9934">
        <ele>216.43</ele>
        <time>2014-04-05T14:47:29Z</time>
      </trkpt>
      <trkpt lat="44.53747" lon="0.99329">
        <ele>217.4</ele>
        <time>2014-04-05T14:47:40Z</time>
      </trkpt>
      <trkpt lat="44.53722" lon="0.99319">
        <ele>217.4</ele>
        <time>2014-04-05T14:47:50Z</time>
      </trkpt>
      <trkpt lat="44.53681" lon="0.99303">
        <ele>219.32</ele>
        <time>2014-04-05T14:48:02Z</time>
      </trkpt>
      <trkpt lat="44.53645" lon="0.99296">
        <ele>225.57</ele>
        <time>2014-04-05T14:48:13Z</time>
      </trkpt>
      <trkpt lat="44.53612" lon="0.99308">
        <ele>232.3</ele>
        <time>2014-04-05T14:48:22Z</time>
      </trkpt>
      <trkpt lat="44.53608" lon="0.99311">
        <ele>232.78</ele>
        <time>2014-04-05T14:48:23Z</time>
      </trkpt>
      <trkpt lat="44.53604" lon="0.99313">
        <ele>233.26</ele>
        <time>2014-04-05T14:48:24Z</time>
      </trkpt>
      <trkpt lat="44.536" lon="0.99316">
        <ele>233.74</ele>
        <time>2014-04-05T14:48:25Z</time>
      </trkpt>
      <trkpt lat="44.53597" lon="0.99318">
        <ele>234.22</ele>
        <time>2014-04-05T14:48:26Z</time>
      </trkpt>
      <trkpt lat="44.53552" lon="0.99344">
        <ele>243.35</ele>
        <time>2014-04-05T14:48:37Z</time>
      </trkpt>
      <trkpt lat="44.53548" lon="0.99347">
        <ele>243.83</ele>
        <time>2014-04-05T14:48:38Z</time>
      </trkpt>
      <trkpt lat="44.53507" lon="0.99385">
        <ele>240.95</ele>
        <time>2014-04-05T14:48:49Z</time>
      </trkpt>
      <trkpt lat="44.53477" lon="0.99411">
        <ele>239.51</ele>
        <time>2014-04-05T14:48:56Z</time>
      </trkpt>
      <trkpt lat="44.53472" lon="0.99414">
        <ele>239.51</ele>
        <time>2014-04-05T14:48:57Z</time>
      </trkpt>
      <trkpt lat="44.53397" lon="0.99436">
        <ele>234.22</ele>
        <time>2014-04-05T14:49:07Z</time>
      </trkpt>
      <trkpt lat="44.53289" lon="0.99465">
        <ele>225.09</ele>
        <time>2014-04-05T14:49:17Z</time>
      </trkpt>
      <trkpt lat="44.5328" lon="0.99469">
        <ele>224.12</ele>
        <time>2014-04-05T14:49:18Z</time>
      </trkpt>
      <trkpt lat="44.53271" lon="0.99474">
        <ele>223.16</ele>
        <time>2014-04-05T14:49:19Z</time>
      </trkpt>
      <trkpt lat="44.53256" lon="0.99486">
        <ele>221.24</ele>
        <time>2014-04-05T14:49:21Z</time>
      </trkpt>
      <trkpt lat="44.53249" lon="0.99494">
        <ele>220.76</ele>
        <time>2014-04-05T14:49:22Z</time>
      </trkpt>
      <trkpt lat="44.53243" lon="0.99503">
        <ele>219.32</ele>
        <time>2014-04-05T14:49:23Z</time>
      </trkpt>
      <trkpt lat="44.53238" lon="0.99513">
        <ele>217.88</ele>
        <time>2014-04-05T14:49:24Z</time>
      </trkpt>
      <trkpt lat="44.53235" lon="0.99526">
        <ele>216.43</ele>
        <time>2014-04-05T14:49:25Z</time>
      </trkpt>
      <trkpt lat="44.53233" lon="0.99539">
        <ele>214.51</ele>
        <time>2014-04-05T14:49:26Z</time>
      </trkpt>
      <trkpt lat="44.53223" lon="0.99572">
        <ele>210.19</ele>
        <time>2014-04-05T14:49:29Z</time>
      </trkpt>
      <trkpt lat="44.53216" lon="0.9958">
        <ele>208.74</ele>
        <time>2014-04-05T14:49:30Z</time>
      </trkpt>
      <trkpt lat="44.53192" lon="0.99608">
        <ele>204.42</ele>
        <time>2014-04-05T14:49:33Z</time>
      </trkpt>
      <trkpt lat="44.53187" lon="0.9962">
        <ele>202.98</ele>
        <time>2014-04-05T14:49:34Z</time>
      </trkpt>
      <trkpt lat="44.53174" lon="0.99643">
        <ele>200.09</ele>
        <time>2014-04-05T14:49:36Z</time>
      </trkpt>
      <trkpt lat="44.53166" lon="0.99653">
        <ele>199.61</ele>
        <time>2014-04-05T14:49:37Z</time>
      </trkpt>
      <trkpt lat="44.53134" lon="0.99687">
        <ele>193.84</ele>
        <time>2014-04-05T14:49:41Z</time>
      </trkpt>
      <trkpt lat="44.53125" lon="0.99692">
        <ele>192.88</ele>
        <time>2014-04-05T14:49:42Z</time>
      </trkpt>
      <trkpt lat="44.53116" lon="0.99695">
        <ele>191.92</ele>
        <time>2014-04-05T14:49:43Z</time>
      </trkpt>
      <trkpt lat="44.53107" lon="0.99697">
        <ele>190.96</ele>
        <time>2014-04-05T14:49:44Z</time>
      </trkpt>
      <trkpt lat="44.53099" lon="0.99696">
        <ele>190</ele>
        <time>2014-04-05T14:49:45Z</time>
      </trkpt>
      <trkpt lat="44.53092" lon="0.99695">
        <ele>188.56</ele>
        <time>2014-04-05T14:49:46Z</time>
      </trkpt>
      <trkpt lat="44.53086" lon="0.99693">
        <ele>188.08</ele>
        <time>2014-04-05T14:49:47Z</time>
      </trkpt>
      <trkpt lat="44.53081" lon="0.99691">
        <ele>187.11</ele>
        <time>2014-04-05T14:49:48Z</time>
      </trkpt>
      <trkpt lat="44.53078" lon="0.99691">
        <ele>186.15</ele>
        <time>2014-04-05T14:49:49Z</time>
      </trkpt>
      <trkpt lat="44.53075" lon="0.99692">
        <ele>185.67</ele>
        <time>2014-04-05T14:49:50Z</time>
      </trkpt>
      <trkpt lat="44.53074" lon="0.99695">
        <ele>184.71</ele>
        <time>2014-04-05T14:49:51Z</time>
      </trkpt>
      <trkpt lat="44.53073" lon="0.99696">
        <ele>184.23</ele>
        <time>2014-04-05T14:49:52Z</time>
      </trkpt>
      <trkpt lat="44.53073" lon="0.99698">
        <ele>183.75</ele>
        <time>2014-04-05T14:49:53Z</time>
      </trkpt>
      <trkpt lat="44.53073" lon="0.997">
        <ele>183.75</ele>
        <time>2014-04-05T14:49:54Z</time>
      </trkpt>
      <trkpt lat="44.53073" lon="0.99702">
        <ele>183.27</ele>
        <time>2014-04-05T14:49:55Z</time>
      </trkpt>
      <trkpt lat="44.53074" lon="0.99706">
        <ele>182.31</ele>
        <time>2014-04-05T14:50:03Z</time>
      </trkpt>
      <trkpt lat="44.53075" lon="0.9971">
        <ele>182.31</ele>
        <time>2014-04-05T14:50:04Z</time>
      </trkpt>
      <trkpt lat="44.53075" lon="0.99713">
        <ele>181.83</ele>
        <time>2014-04-05T14:50:05Z</time>
      </trkpt>
      <trkpt lat="44.53076" lon="0.99717">
        <ele>181.35</ele>
        <time>2014-04-05T14:50:06Z</time>
      </trkpt>
      <trkpt lat="44.53077" lon="0.99723">
        <ele>181.35</ele>
        <time>2014-04-05T14:50:07Z</time>
      </trkpt>
      <trkpt lat="44.53077" lon="0.99728">
        <ele>181.35</ele>
        <time>2014-04-05T14:50:08Z</time>
      </trkpt>
      <trkpt lat="44.53077" lon="0.99734">
        <ele>180.87</ele>
        <time>2014-04-05T14:50:09Z</time>
      </trkpt>
      <trkpt lat="44.53076" lon="0.99739">
        <ele>180.87</ele>
        <time>2014-04-05T14:50:10Z</time>
      </trkpt>
      <trkpt lat="44.53076" lon="0.99746">
        <ele>180.38</ele>
        <time>2014-04-05T14:50:11Z</time>
      </trkpt>
      <trkpt lat="44.53075" lon="0.99753">
        <ele>179.9</ele>
        <time>2014-04-05T14:50:12Z</time>
      </trkpt>
      <trkpt lat="44.53073" lon="0.99758">
        <ele>179.42</ele>
        <time>2014-04-05T14:50:13Z</time>
      </trkpt>
      <trkpt lat="44.53071" lon="0.99763">
        <ele>178.46</ele>
        <time>2014-04-05T14:50:14Z</time>
      </trkpt>
      <trkpt lat="44.53069" lon="0.99768">
        <ele>177.98</ele>
        <time>2014-04-05T14:50:15Z</time>
      </trkpt>
      <trkpt lat="44.53067" lon="0.99773">
        <ele>177.02</ele>
        <time>2014-04-05T14:50:16Z</time>
      </trkpt>
      <trkpt lat="44.53065" lon="0.99778">
        <ele>176.54</ele>
        <time>2014-04-05T14:50:17Z</time>
      </trkpt>
      <trkpt lat="44.53063" lon="0.99783">
        <ele>175.58</ele>
        <time>2014-04-05T14:50:18Z</time>
      </trkpt>
      <trkpt lat="44.53062" lon="0.99787">
        <ele>175.1</ele>
        <time>2014-04-05T14:50:19Z</time>
      </trkpt>
      <trkpt lat="44.5306" lon="0.9979">
        <ele>174.14</ele>
        <time>2014-04-05T14:50:20Z</time>
      </trkpt>
      <trkpt lat="44.53059" lon="0.99791">
        <ele>173.66</ele>
        <time>2014-04-05T14:50:21Z</time>
      </trkpt>
      <trkpt lat="44.53058" lon="0.99793">
        <ele>173.17</ele>
        <time>2014-04-05T14:50:27Z</time>
      </trkpt>
      <trkpt lat="44.53056" lon="0.99795">
        <ele>172.69</ele>
        <time>2014-04-05T14:50:28Z</time>
      </trkpt>
      <trkpt lat="44.53054" lon="0.99799">
        <ele>172.21</ele>
        <time>2014-04-05T14:50:29Z</time>
      </trkpt>
      <trkpt lat="44.53036" lon="0.99828">
        <ele>168.37</ele>
        <time>2014-04-05T14:50:35Z</time>
      </trkpt>
      <trkpt lat="44.53032" lon="0.99833">
        <ele>167.89</ele>
        <time>2014-04-05T14:50:36Z</time>
      </trkpt>
      <trkpt lat="44.52994" lon="0.99866">
        <ele>162.6</ele>
        <time>2014-04-05T14:50:43Z</time>
      </trkpt>
      <trkpt lat="44.52965" lon="0.99881">
        <ele>158.75</ele>
        <time>2014-04-05T14:50:52Z</time>
      </trkpt>
      <trkpt lat="44.5296" lon="0.99884">
        <ele>158.27</ele>
        <time>2014-04-05T14:50:55Z</time>
      </trkpt>
      <trkpt lat="44.52948" lon="0.99891">
        <ele>157.31</ele>
        <time>2014-04-05T14:51:00Z</time>
      </trkpt>
      <trkpt lat="44.52918" lon="0.99905">
        <ele>155.39</ele>
        <time>2014-04-05T14:51:12Z</time>
      </trkpt>
      <trkpt lat="44.52904" lon="0.99909">
        <ele>153.95</ele>
        <time>2014-04-05T14:51:18Z</time>
      </trkpt>
      <trkpt lat="44.52887" lon="0.99912">
        <ele>151.54</ele>
        <time>2014-04-05T14:51:24Z</time>
      </trkpt>
      <trkpt lat="44.52868" lon="0.99914">
        <ele>148.18</ele>
        <time>2014-04-05T14:51:29Z</time>
      </trkpt>
      <trkpt lat="44.52855" lon="0.99912">
        <ele>146.26</ele>
        <time>2014-04-05T14:51:34Z</time>
      </trkpt>
      <trkpt lat="44.52818" lon="0.99912">
        <ele>138.57</ele>
        <time>2014-04-05T14:51:45Z</time>
      </trkpt>
      <trkpt lat="44.52808" lon="0.99917">
        <ele>134.72</ele>
        <time>2014-04-05T14:51:49Z</time>
      </trkpt>
      <trkpt lat="44.52785" lon="0.99935">
        <ele>125.11</ele>
        <time>2014-04-05T14:52:00Z</time>
      </trkpt>
      <trkpt lat="44.52758" lon="0.9996">
        <ele>120.3</ele>
        <time>2014-04-05T14:52:11Z</time>
      </trkpt>
      <trkpt lat="44.52734" lon="0.99978">
        <ele>115.5</ele>
        <time>2014-04-05T14:52:21Z</time>
      </trkpt>
      <trkpt lat="44.52733" lon="0.99979">
        <ele>114.05</ele>
        <time>2014-04-05T14:52:33Z</time>
      </trkpt>
      <trkpt lat="44.52733" lon="0.99979">
        <ele>113.57</ele>
        <time>2014-04-05T14:52:54Z</time>
      </trkpt>
      <trkpt lat="44.52718" lon="0.99955">
        <ele>111.65</ele>
        <time>2014-04-05T14:53:04Z</time>
      </trkpt>
      <trkpt lat="44.52702" lon="0.99934">
        <ele>110.69</ele>
        <time>2014-04-05T14:53:11Z</time>
      </trkpt>
      <trkpt lat="44.52698" lon="0.99934">
        <ele>110.69</ele>
        <time>2014-04-05T14:53:12Z</time>
      </trkpt>
      <trkpt lat="44.52693" lon="0.99935">
        <ele>110.69</ele>
        <time>2014-04-05T14:53:13Z</time>
      </trkpt>
      <trkpt lat="44.52689" lon="0.99936">
        <ele>110.69</ele>
        <time>2014-04-05T14:53:14Z</time>
      </trkpt>
      <trkpt lat="44.52685" lon="0.99939">
        <ele>110.69</ele>
        <time>2014-04-05T14:53:15Z</time>
      </trkpt>
      <trkpt lat="44.52681" lon="0.99942">
        <ele>110.69</ele>
        <time>2014-04-05T14:53:16Z</time>
      </trkpt>
      <trkpt lat="44.52645" lon="0.99965">
        <ele>115.5</ele>
        <time>2014-04-05T14:53:26Z</time>
      </trkpt>
      <trkpt lat="44.52636" lon="0.99969">
        <ele>116.46</ele>
        <time>2014-04-05T14:53:28Z</time>
      </trkpt>
      <trkpt lat="44.52632" lon="0.9997">
        <ele>116.94</ele>
        <time>2014-04-05T14:53:29Z</time>
      </trkpt>
      <trkpt lat="44.52623" lon="0.99973">
        <ele>117.9</ele>
        <time>2014-04-05T14:53:31Z</time>
      </trkpt>
      <trkpt lat="44.52608" lon="0.99976">
        <ele>118.38</ele>
        <time>2014-04-05T14:53:34Z</time>
      </trkpt>
      <trkpt lat="44.52569" lon="0.99979">
        <ele>117.9</ele>
        <time>2014-04-05T14:53:42Z</time>
      </trkpt>
      <trkpt lat="44.52564" lon="0.9998">
        <ele>117.9</ele>
        <time>2014-04-05T14:53:43Z</time>
      </trkpt>
      <trkpt lat="44.5256" lon="0.9998">
        <ele>118.38</ele>
        <time>2014-04-05T14:53:44Z</time>
      </trkpt>
      <trkpt lat="44.5255" lon="0.99982">
        <ele>119.82</ele>
        <time>2014-04-05T14:53:46Z</time>
      </trkpt>
      <trkpt lat="44.52498" lon="0.99982">
        <ele>125.11</ele>
        <time>2014-04-05T14:53:57Z</time>
      </trkpt>
      <trkpt lat="44.52423" lon="0.99973">
        <ele>124.63</ele>
        <time>2014-04-05T14:54:09Z</time>
      </trkpt>
      <trkpt lat="44.52416" lon="0.99975">
        <ele>124.15</ele>
        <time>2014-04-05T14:54:10Z</time>
      </trkpt>
      <trkpt lat="44.52411" lon="0.99979">
        <ele>124.15</ele>
        <time>2014-04-05T14:54:11Z</time>
      </trkpt>
      <trkpt lat="44.52406" lon="0.99985">
        <ele>124.15</ele>
        <time>2014-04-05T14:54:12Z</time>
      </trkpt>
      <trkpt lat="44.52402" lon="0.99992">
        <ele>123.67</ele>
        <time>2014-04-05T14:54:13Z</time>
      </trkpt>
      <trkpt lat="44.52396" lon="0.99997">
        <ele>123.19</ele>
        <time>2014-04-05T14:54:14Z</time>
      </trkpt>
      <trkpt lat="44.5239" lon="1.00001">
        <ele>122.71</ele>
        <time>2014-04-05T14:54:15Z</time>
      </trkpt>
      <trkpt lat="44.52383" lon="1.00003">
        <ele>122.22</ele>
        <time>2014-04-05T14:54:16Z</time>
      </trkpt>
      <trkpt lat="44.52301" lon="1.00051">
        <ele>117.42</ele>
        <time>2014-04-05T14:54:29Z</time>
      </trkpt>
      <trkpt lat="44.52257" lon="1.00071">
        <ele>115.01</ele>
        <time>2014-04-05T14:54:37Z</time>
      </trkpt>
      <trkpt lat="44.52252" lon="1.00072">
        <ele>114.53</ele>
        <time>2014-04-05T14:54:38Z</time>
      </trkpt>
      <trkpt lat="44.52248" lon="1.00074">
        <ele>113.57</ele>
        <time>2014-04-05T14:54:39Z</time>
      </trkpt>
      <trkpt lat="44.52187" lon="1.00112">
        <ele>110.69</ele>
        <time>2014-04-05T14:54:51Z</time>
      </trkpt>
      <trkpt lat="44.52112" lon="1.00188">
        <ele>110.69</ele>
        <time>2014-04-05T14:55:06Z</time>
      </trkpt>
      <trkpt lat="44.52078" lon="1.00221">
        <ele>108.77</ele>
        <time>2014-04-05T14:55:13Z</time>
      </trkpt>
      <trkpt lat="44.5202" lon="1.00293">
        <ele>113.57</ele>
        <time>2014-04-05T14:55:27Z</time>
      </trkpt>
      <trkpt lat="44.51989" lon="1.00341">
        <ele>116.94</ele>
        <time>2014-04-05T14:55:35Z</time>
      </trkpt>
      <trkpt lat="44.5195" lon="1.00412">
        <ele>114.05</ele>
        <time>2014-04-05T14:55:46Z</time>
      </trkpt>
      <trkpt lat="44.51933" lon="1.00443">
        <ele>110.69</ele>
        <time>2014-04-05T14:55:51Z</time>
      </trkpt>
      <trkpt lat="44.51912" lon="1.00461">
        <ele>109.73</ele>
        <time>2014-04-05T14:55:56Z</time>
      </trkpt>
      <trkpt lat="44.51855" lon="1.00477">
        <ele>106.84</ele>
        <time>2014-04-05T14:56:07Z</time>
      </trkpt>
      <trkpt lat="44.51826" lon="1.00489">
        <ele>104.44</ele>
        <time>2014-04-05T14:56:12Z</time>
      </trkpt>
      <trkpt lat="44.51745" lon="1.00549">
        <ele>97.71</ele>
        <time>2014-04-05T14:56:26Z</time>
      </trkpt>
      <trkpt lat="44.51696" lon="1.00576">
        <ele>95.79</ele>
        <time>2014-04-05T14:56:34Z</time>
      </trkpt>
      <trkpt lat="44.51633" lon="1.00625">
        <ele>99.63</ele>
        <time>2014-04-05T14:56:47Z</time>
      </trkpt>
      <trkpt lat="44.51628" lon="1.00627">
        <ele>99.63</ele>
        <time>2014-04-05T14:56:48Z</time>
      </trkpt>
      <trkpt lat="44.51623" lon="1.00626">
        <ele>99.15</ele>
        <time>2014-04-05T14:56:49Z</time>
      </trkpt>
      <trkpt lat="44.51618" lon="1.00624">
        <ele>99.15</ele>
        <time>2014-04-05T14:56:50Z</time>
      </trkpt>
      <trkpt lat="44.51614" lon="1.00621">
        <ele>99.15</ele>
        <time>2014-04-05T14:56:51Z</time>
      </trkpt>
      <trkpt lat="44.51604" lon="1.00616">
        <ele>98.67</ele>
        <time>2014-04-05T14:56:53Z</time>
      </trkpt>
      <trkpt lat="44.51554" lon="1.00598">
        <ele>97.71</ele>
        <time>2014-04-05T14:57:03Z</time>
      </trkpt>
      <trkpt lat="44.51483" lon="1.00562">
        <ele>99.63</ele>
        <time>2014-04-05T14:57:19Z</time>
      </trkpt>
      <trkpt lat="44.51479" lon="1.00559">
        <ele>99.63</ele>
        <time>2014-04-05T14:57:20Z</time>
      </trkpt>
      <trkpt lat="44.51475" lon="1.00556">
        <ele>100.11</ele>
        <time>2014-04-05T14:57:21Z</time>
      </trkpt>
      <trkpt lat="44.51472" lon="1.00553">
        <ele>100.6</ele>
        <time>2014-04-05T14:57:22Z</time>
      </trkpt>
      <trkpt lat="44.51464" lon="1.00546">
        <ele>101.08</ele>
        <time>2014-04-05T14:57:24Z</time>
      </trkpt>
      <trkpt lat="44.51417" lon="1.005">
        <ele>100.11</ele>
        <time>2014-04-05T14:57:37Z</time>
      </trkpt>
      <trkpt lat="44.51346" lon="1.00449">
        <ele>99.63</ele>
        <time>2014-04-05T14:57:50Z</time>
      </trkpt>
      <trkpt lat="44.51333" lon="1.00443">
        <ele>99.15</ele>
        <time>2014-04-05T14:57:52Z</time>
      </trkpt>
      <trkpt lat="44.513" lon="1.00436">
        <ele>96.75</ele>
        <time>2014-04-05T14:58:01Z</time>
      </trkpt>
      <trkpt lat="44.51297" lon="1.00435">
        <ele>96.27</ele>
        <time>2014-04-05T14:58:14Z</time>
      </trkpt>
      <trkpt lat="44.51296" lon="1.00436">
        <ele>96.27</ele>
        <time>2014-04-05T14:58:15Z</time>
      </trkpt>
      <trkpt lat="44.51294" lon="1.00435">
        <ele>96.27</ele>
        <time>2014-04-05T14:58:16Z</time>
      </trkpt>
      <trkpt lat="44.51293" lon="1.00433">
        <ele>96.27</ele>
        <time>2014-04-05T14:58:17Z</time>
      </trkpt>
      <trkpt lat="44.51291" lon="1.00431">
        <ele>96.27</ele>
        <time>2014-04-05T14:58:18Z</time>
      </trkpt>
      <trkpt lat="44.51289" lon="1.00428">
        <ele>96.27</ele>
        <time>2014-04-05T14:58:19Z</time>
      </trkpt>
      <trkpt lat="44.51258" lon="1.00385">
        <ele>97.23</ele>
        <time>2014-04-05T14:58:30Z</time>
      </trkpt>
      <trkpt lat="44.51201" lon="1.00307">
        <ele>99.63</ele>
        <time>2014-04-05T14:58:45Z</time>
      </trkpt>
      <trkpt lat="44.51154" lon="1.00247">
        <ele>98.67</ele>
        <time>2014-04-05T14:58:57Z</time>
      </trkpt>
      <trkpt lat="44.51102" lon="1.00205">
        <ele>97.71</ele>
        <time>2014-04-05T14:59:08Z</time>
      </trkpt>
      <trkpt lat="44.51076" lon="1.00177">
        <ele>95.79</ele>
        <time>2014-04-05T14:59:15Z</time>
      </trkpt>
      <trkpt lat="44.51071" lon="1.00176">
        <ele>95.31</ele>
        <time>2014-04-05T14:59:16Z</time>
      </trkpt>
      <trkpt lat="44.51066" lon="1.00177">
        <ele>95.31</ele>
        <time>2014-04-05T14:59:17Z</time>
      </trkpt>
      <trkpt lat="44.51062" lon="1.00179">
        <ele>94.83</ele>
        <time>2014-04-05T14:59:18Z</time>
      </trkpt>
      <trkpt lat="44.51057" lon="1.00181">
        <ele>94.83</ele>
        <time>2014-04-05T14:59:19Z</time>
      </trkpt>
      <trkpt lat="44.51052" lon="1.00182">
        <ele>94.35</ele>
        <time>2014-04-05T14:59:20Z</time>
      </trkpt>
      <trkpt lat="44.51047" lon="1.00183">
        <ele>93.87</ele>
        <time>2014-04-05T14:59:21Z</time>
      </trkpt>
      <trkpt lat="44.50993" lon="1.00193">
        <ele>91.46</ele>
        <time>2014-04-05T14:59:31Z</time>
      </trkpt>
      <trkpt lat="44.50989" lon="1.00198">
        <ele>90.98</ele>
        <time>2014-04-05T14:59:32Z</time>
      </trkpt>
      <trkpt lat="44.50986" lon="1.00205">
        <ele>90.5</ele>
        <time>2014-04-05T14:59:33Z</time>
      </trkpt>
      <trkpt lat="44.50984" lon="1.00213">
        <ele>90.5</ele>
        <time>2014-04-05T14:59:34Z</time>
      </trkpt>
      <trkpt lat="44.50981" lon="1.00222">
        <ele>90.02</ele>
        <time>2014-04-05T14:59:35Z</time>
      </trkpt>
      <trkpt lat="44.50979" lon="1.00231">
        <ele>89.54</ele>
        <time>2014-04-05T14:59:36Z</time>
      </trkpt>
      <trkpt lat="44.50977" lon="1.00241">
        <ele>89.06</ele>
        <time>2014-04-05T14:59:37Z</time>
      </trkpt>
      <trkpt lat="44.50957" lon="1.00336">
        <ele>87.62</ele>
        <time>2014-04-05T14:59:48Z</time>
      </trkpt>
      <trkpt lat="44.50946" lon="1.00393">
        <ele>87.14</ele>
        <time>2014-04-05T14:59:55Z</time>
      </trkpt>
      <trkpt lat="44.50944" lon="1.004">
        <ele>87.14</ele>
        <time>2014-04-05T14:59:56Z</time>
      </trkpt>
      <trkpt lat="44.50942" lon="1.00406">
        <ele>87.62</ele>
        <time>2014-04-05T14:59:57Z</time>
      </trkpt>
      <trkpt lat="44.50939" lon="1.00412">
        <ele>87.62</ele>
        <time>2014-04-05T14:59:58Z</time>
      </trkpt>
      <trkpt lat="44.50935" lon="1.00417">
        <ele>88.1</ele>
        <time>2014-04-05T14:59:59Z</time>
      </trkpt>
      <trkpt lat="44.50931" lon="1.00421">
        <ele>88.58</ele>
        <time>2014-04-05T15:00:00Z</time>
      </trkpt>
      <trkpt lat="44.50919" lon="1.00433">
        <ele>89.06</ele>
        <time>2014-04-05T15:00:03Z</time>
      </trkpt>
      <trkpt lat="44.50884" lon="1.00469">
        <ele>91.94</ele>
        <time>2014-04-05T15:00:14Z</time>
      </trkpt>
      <trkpt lat="44.50882" lon="1.00469">
        <ele>92.42</ele>
        <time>2014-04-05T15:00:15Z</time>
      </trkpt>
      <trkpt lat="44.5088" lon="1.00469">
        <ele>92.42</ele>
        <time>2014-04-05T15:00:16Z</time>
      </trkpt>
      <trkpt lat="44.50877" lon="1.00468">
        <ele>92.42</ele>
        <time>2014-04-05T15:00:17Z</time>
      </trkpt>
      <trkpt lat="44.50875" lon="1.00465">
        <ele>91.94</ele>
        <time>2014-04-05T15:00:18Z</time>
      </trkpt>
      <trkpt lat="44.50873" lon="1.00462">
        <ele>92.42</ele>
        <time>2014-04-05T15:00:19Z</time>
      </trkpt>
      <trkpt lat="44.50855" lon="1.00436">
        <ele>91.46</ele>
        <time>2014-04-05T15:00:25Z</time>
      </trkpt>
      <trkpt lat="44.50807" lon="1.00369">
        <ele>88.1</ele>
        <time>2014-04-05T15:00:37Z</time>
      </trkpt>
      <trkpt lat="44.50794" lon="1.00353">
        <ele>87.14</ele>
        <time>2014-04-05T15:00:40Z</time>
      </trkpt>
      <trkpt lat="44.50746" lon="1.00288">
        <ele>85.69</ele>
        <time>2014-04-05T15:00:53Z</time>
      </trkpt>
      <trkpt lat="44.50741" lon="1.00278">
        <ele>85.69</ele>
        <time>2014-04-05T15:00:55Z</time>
      </trkpt>
      <trkpt lat="44.50738" lon="1.00272">
        <ele>86.18</ele>
        <time>2014-04-05T15:00:56Z</time>
      </trkpt>
      <trkpt lat="44.50735" lon="1.00266">
        <ele>86.66</ele>
        <time>2014-04-05T15:00:57Z</time>
      </trkpt>
      <trkpt lat="44.50715" lon="1.0022">
        <ele>92.42</ele>
        <time>2014-04-05T15:01:07Z</time>
      </trkpt>
      <trkpt lat="44.50695" lon="1.00144">
        <ele>94.35</ele>
        <time>2014-04-05T15:01:19Z</time>
      </trkpt>
      <trkpt lat="44.50678" lon="1.00076">
        <ele>98.19</ele>
        <time>2014-04-05T15:01:32Z</time>
      </trkpt>
      <trkpt lat="44.50645" lon="1.00024">
        <ele>99.63</ele>
        <time>2014-04-05T15:01:44Z</time>
      </trkpt>
      <trkpt lat="44.50599" lon="0.99998">
        <ele>101.56</ele>
        <time>2014-04-05T15:01:57Z</time>
      </trkpt>
      <trkpt lat="44.50559" lon="0.9997">
        <ele>101.08</ele>
        <time>2014-04-05T15:02:10Z</time>
      </trkpt>
      <trkpt lat="44.50555" lon="0.99967">
        <ele>100.6</ele>
        <time>2014-04-05T15:02:11Z</time>
      </trkpt>
      <trkpt lat="44.50552" lon="0.99964">
        <ele>100.6</ele>
        <time>2014-04-05T15:02:12Z</time>
      </trkpt>
      <trkpt lat="44.50544" lon="0.99955">
        <ele>100.11</ele>
        <time>2014-04-05T15:02:14Z</time>
      </trkpt>
      <trkpt lat="44.5054" lon="0.99949">
        <ele>99.63</ele>
        <time>2014-04-05T15:02:15Z</time>
      </trkpt>
      <trkpt lat="44.5049" lon="0.99866">
        <ele>92.9</ele>
        <time>2014-04-05T15:02:26Z</time>
      </trkpt>
      <trkpt lat="44.50484" lon="0.9986">
        <ele>91.94</ele>
        <time>2014-04-05T15:02:27Z</time>
      </trkpt>
      <trkpt lat="44.50478" lon="0.99856">
        <ele>90.98</ele>
        <time>2014-04-05T15:02:28Z</time>
      </trkpt>
      <trkpt lat="44.50471" lon="0.99852">
        <ele>90.02</ele>
        <time>2014-04-05T15:02:29Z</time>
      </trkpt>
      <trkpt lat="44.50463" lon="0.99849">
        <ele>89.06</ele>
        <time>2014-04-05T15:02:30Z</time>
      </trkpt>
      <trkpt lat="44.50455" lon="0.99846">
        <ele>88.58</ele>
        <time>2014-04-05T15:02:31Z</time>
      </trkpt>
      <trkpt lat="44.50448" lon="0.99845">
        <ele>88.1</ele>
        <time>2014-04-05T15:02:32Z</time>
      </trkpt>
      <trkpt lat="44.5044" lon="0.99844">
        <ele>87.14</ele>
        <time>2014-04-05T15:02:33Z</time>
      </trkpt>
      <trkpt lat="44.50432" lon="0.99844">
        <ele>86.66</ele>
        <time>2014-04-05T15:02:34Z</time>
      </trkpt>
      <trkpt lat="44.50351" lon="0.99852">
        <ele>83.29</ele>
        <time>2014-04-05T15:02:46Z</time>
      </trkpt>
      <trkpt lat="44.50301" lon="0.99831">
        <ele>85.21</ele>
        <time>2014-04-05T15:02:57Z</time>
      </trkpt>
      <trkpt lat="44.50293" lon="0.99825">
        <ele>85.69</ele>
        <time>2014-04-05T15:02:59Z</time>
      </trkpt>
      <trkpt lat="44.50239" lon="0.9979">
        <ele>86.18</ele>
        <time>2014-04-05T15:03:09Z</time>
      </trkpt>
      <trkpt lat="44.5022" lon="0.99773">
        <ele>86.66</ele>
        <time>2014-04-05T15:03:13Z</time>
      </trkpt>
      <trkpt lat="44.50215" lon="0.99769">
        <ele>87.14</ele>
        <time>2014-04-05T15:03:14Z</time>
      </trkpt>
      <trkpt lat="44.50212" lon="0.99765">
        <ele>87.14</ele>
        <time>2014-04-05T15:03:15Z</time>
      </trkpt>
      <trkpt lat="44.50208" lon="0.99762">
        <ele>87.62</ele>
        <time>2014-04-05T15:03:16Z</time>
      </trkpt>
      <trkpt lat="44.50205" lon="0.99759">
        <ele>88.1</ele>
        <time>2014-04-05T15:03:17Z</time>
      </trkpt>
      <trkpt lat="44.50202" lon="0.99755">
        <ele>88.58</ele>
        <time>2014-04-05T15:03:18Z</time>
      </trkpt>
      <trkpt lat="44.50177" lon="0.99725">
        <ele>90.02</ele>
        <time>2014-04-05T15:03:26Z</time>
      </trkpt>
      <trkpt lat="44.50147" lon="0.99679">
        <ele>87.62</ele>
        <time>2014-04-05T15:03:33Z</time>
      </trkpt>
      <trkpt lat="44.50111" lon="0.996">
        <ele>83.77</ele>
        <time>2014-04-05T15:03:43Z</time>
      </trkpt>
      <trkpt lat="44.50088" lon="0.9955">
        <ele>81.85</ele>
        <time>2014-04-05T15:03:51Z</time>
      </trkpt>
      <trkpt lat="44.50083" lon="0.99537">
        <ele>80.89</ele>
        <time>2014-04-05T15:03:53Z</time>
      </trkpt>
      <trkpt lat="44.50079" lon="0.99518">
        <ele>80.41</ele>
        <time>2014-04-05T15:03:56Z</time>
      </trkpt>
      <trkpt lat="44.50077" lon="0.99511">
        <ele>79.93</ele>
        <time>2014-04-05T15:03:57Z</time>
      </trkpt>
      <trkpt lat="44.50074" lon="0.99496">
        <ele>79.45</ele>
        <time>2014-04-05T15:03:59Z</time>
      </trkpt>
      <trkpt lat="44.50073" lon="0.99482">
        <ele>79.45</ele>
        <time>2014-04-05T15:04:01Z</time>
      </trkpt>
      <trkpt lat="44.50071" lon="0.99474">
        <ele>79.93</ele>
        <time>2014-04-05T15:04:02Z</time>
      </trkpt>
      <trkpt lat="44.50068" lon="0.99453">
        <ele>81.85</ele>
        <time>2014-04-05T15:04:05Z</time>
      </trkpt>
      <trkpt lat="44.50059" lon="0.99426">
        <ele>84.73</ele>
        <time>2014-04-05T15:04:09Z</time>
      </trkpt>
      <trkpt lat="44.50055" lon="0.99413">
        <ele>86.18</ele>
        <time>2014-04-05T15:04:11Z</time>
      </trkpt>
      <trkpt lat="44.50052" lon="0.99407">
        <ele>86.66</ele>
        <time>2014-04-05T15:04:12Z</time>
      </trkpt>
      <trkpt lat="44.50049" lon="0.99401">
        <ele>87.14</ele>
        <time>2014-04-05T15:04:13Z</time>
      </trkpt>
      <trkpt lat="44.50046" lon="0.99394">
        <ele>87.62</ele>
        <time>2014-04-05T15:04:14Z</time>
      </trkpt>
      <trkpt lat="44.50043" lon="0.99389">
        <ele>88.1</ele>
        <time>2014-04-05T15:04:15Z</time>
      </trkpt>
      <trkpt lat="44.50032" lon="0.99365">
        <ele>89.54</ele>
        <time>2014-04-05T15:04:20Z</time>
      </trkpt>
      <trkpt lat="44.5003" lon="0.99361">
        <ele>89.54</ele>
        <time>2014-04-05T15:04:21Z</time>
      </trkpt>
      <trkpt lat="44.50028" lon="0.99358">
        <ele>89.54</ele>
        <time>2014-04-05T15:04:22Z</time>
      </trkpt>
      <trkpt lat="44.50025" lon="0.99355">
        <ele>89.54</ele>
        <time>2014-04-05T15:04:23Z</time>
      </trkpt>
      <trkpt lat="44.50023" lon="0.99352">
        <ele>89.54</ele>
        <time>2014-04-05T15:04:24Z</time>
      </trkpt>
      <trkpt lat="44.5002" lon="0.99349">
        <ele>89.54</ele>
        <time>2014-04-05T15:04:25Z</time>
      </trkpt>
      <trkpt lat="44.50017" lon="0.99347">
        <ele>89.54</ele>
        <time>2014-04-05T15:04:26Z</time>
      </trkpt>
      <trkpt lat="44.49983" lon="0.99317">
        <ele>88.1</ele>
        <time>2014-04-05T15:04:38Z</time>
      </trkpt>
      <trkpt lat="44.49953" lon="0.993">
        <ele>86.66</ele>
        <time>2014-04-05T15:04:51Z</time>
      </trkpt>
      <trkpt lat="44.49952" lon="0.99299">
        <ele>86.66</ele>
        <time>2014-04-05T15:04:53Z</time>
      </trkpt>
      <trkpt lat="44.49951" lon="0.99297">
        <ele>86.66</ele>
        <time>2014-04-05T15:04:54Z</time>
      </trkpt>
      <trkpt lat="44.49949" lon="0.9929">
        <ele>85.69</ele>
        <time>2014-04-05T15:04:56Z</time>
      </trkpt>
      <trkpt lat="44.49949" lon="0.99285">
        <ele>85.69</ele>
        <time>2014-04-05T15:04:57Z</time>
      </trkpt>
      <trkpt lat="44.49948" lon="0.9928">
        <ele>85.21</ele>
        <time>2014-04-05T15:04:58Z</time>
      </trkpt>
      <trkpt lat="44.49946" lon="0.99257">
        <ele>84.73</ele>
        <time>2014-04-05T15:05:02Z</time>
      </trkpt>
      <trkpt lat="44.49941" lon="0.99209">
        <ele>82.81</ele>
        <time>2014-04-05T15:05:09Z</time>
      </trkpt>
      <trkpt lat="44.49939" lon="0.99195">
        <ele>82.81</ele>
        <time>2014-04-05T15:05:11Z</time>
      </trkpt>
      <trkpt lat="44.49938" lon="0.99187">
        <ele>82.81</ele>
        <time>2014-04-05T15:05:12Z</time>
      </trkpt>
      <trkpt lat="44.49928" lon="0.99078">
        <ele>81.85</ele>
        <time>2014-04-05T15:05:26Z</time>
      </trkpt>
      <trkpt lat="44.49928" lon="0.9907">
        <ele>81.85</ele>
        <time>2014-04-05T15:05:27Z</time>
      </trkpt>
      <trkpt lat="44.49927" lon="0.99062">
        <ele>81.85</ele>
        <time>2014-04-05T15:05:28Z</time>
      </trkpt>
      <trkpt lat="44.49924" lon="0.99019">
        <ele>81.37</ele>
        <time>2014-04-05T15:05:33Z</time>
      </trkpt>
      <trkpt lat="44.49924" lon="0.98968">
        <ele>81.37</ele>
        <time>2014-04-05T15:05:39Z</time>
      </trkpt>
      <trkpt lat="44.49925" lon="0.98961">
        <ele>81.37</ele>
        <time>2014-04-05T15:05:40Z</time>
      </trkpt>
      <trkpt lat="44.49924" lon="0.98954">
        <ele>81.37</ele>
        <time>2014-04-05T15:05:41Z</time>
      </trkpt>
      <trkpt lat="44.49922" lon="0.98948">
        <ele>81.85</ele>
        <time>2014-04-05T15:05:42Z</time>
      </trkpt>
      <trkpt lat="44.49918" lon="0.98944">
        <ele>81.37</ele>
        <time>2014-04-05T15:05:43Z</time>
      </trkpt>
      <trkpt lat="44.49914" lon="0.98941">
        <ele>81.37</ele>
        <time>2014-04-05T15:05:44Z</time>
      </trkpt>
      <trkpt lat="44.49909" lon="0.98938">
        <ele>81.85</ele>
        <time>2014-04-05T15:05:45Z</time>
      </trkpt>
      <trkpt lat="44.49836" lon="0.98894">
        <ele>80.41</ele>
        <time>2014-04-05T15:06:00Z</time>
      </trkpt>
      <trkpt lat="44.49832" lon="0.98892">
        <ele>80.89</ele>
        <time>2014-04-05T15:06:01Z</time>
      </trkpt>
      <trkpt lat="44.49829" lon="0.98889">
        <ele>80.89</ele>
        <time>2014-04-05T15:06:02Z</time>
      </trkpt>
      <trkpt lat="44.49827" lon="0.98886">
        <ele>80.89</ele>
        <time>2014-04-05T15:06:03Z</time>
      </trkpt>
      <trkpt lat="44.49825" lon="0.98881">
        <ele>81.37</ele>
        <time>2014-04-05T15:06:05Z</time>
      </trkpt>
      <trkpt lat="44.49823" lon="0.9888">
        <ele>81.37</ele>
        <time>2014-04-05T15:06:06Z</time>
      </trkpt>
      <trkpt lat="44.49821" lon="0.98879">
        <ele>81.37</ele>
        <time>2014-04-05T15:06:07Z</time>
      </trkpt>
      <trkpt lat="44.49818" lon="0.98878">
        <ele>81.37</ele>
        <time>2014-04-05T15:06:08Z</time>
      </trkpt>
      <trkpt lat="44.49814" lon="0.98878">
        <ele>81.37</ele>
        <time>2014-04-05T15:06:09Z</time>
      </trkpt>
      <trkpt lat="44.49811" lon="0.98878">
        <ele>81.37</ele>
        <time>2014-04-05T15:06:10Z</time>
      </trkpt>
      <trkpt lat="44.49807" lon="0.98878">
        <ele>80.89</ele>
        <time>2014-04-05T15:06:11Z</time>
      </trkpt>
      <trkpt lat="44.49802" lon="0.98877">
        <ele>80.89</ele>
        <time>2014-04-05T15:06:12Z</time>
      </trkpt>
      <trkpt lat="44.49798" lon="0.98876">
        <ele>80.89</ele>
        <time>2014-04-05T15:06:13Z</time>
      </trkpt>
      <trkpt lat="44.49793" lon="0.98873">
        <ele>80.89</ele>
        <time>2014-04-05T15:06:14Z</time>
      </trkpt>
      <trkpt lat="44.49785" lon="0.98867">
        <ele>80.41</ele>
        <time>2014-04-05T15:06:16Z</time>
      </trkpt>
      <trkpt lat="44.49781" lon="0.98863">
        <ele>80.41</ele>
        <time>2014-04-05T15:06:17Z</time>
      </trkpt>
      <trkpt lat="44.49778" lon="0.98858">
        <ele>80.41</ele>
        <time>2014-04-05T15:06:18Z</time>
      </trkpt>
      <trkpt lat="44.49775" lon="0.98854">
        <ele>79.93</ele>
        <time>2014-04-05T15:06:19Z</time>
      </trkpt>
      <trkpt lat="44.49773" lon="0.98848">
        <ele>79.93</ele>
        <time>2014-04-05T15:06:20Z</time>
      </trkpt>
      <trkpt lat="44.49771" lon="0.98843">
        <ele>79.93</ele>
        <time>2014-04-05T15:06:21Z</time>
      </trkpt>
      <trkpt lat="44.49769" lon="0.98839">
        <ele>79.93</ele>
        <time>2014-04-05T15:06:22Z</time>
      </trkpt>
      <trkpt lat="44.49766" lon="0.98825">
        <ele>81.37</ele>
        <time>2014-04-05T15:06:32Z</time>
      </trkpt>
      <trkpt lat="44.49764" lon="0.98819">
        <ele>80.89</ele>
        <time>2014-04-05T15:06:34Z</time>
      </trkpt>
      <trkpt lat="44.49763" lon="0.98817">
        <ele>80.41</ele>
        <time>2014-04-05T15:06:35Z</time>
      </trkpt>
      <trkpt lat="44.49761" lon="0.98815">
        <ele>79.93</ele>
        <time>2014-04-05T15:06:36Z</time>
      </trkpt>
      <trkpt lat="44.49758" lon="0.98813">
        <ele>79.93</ele>
        <time>2014-04-05T15:06:37Z</time>
      </trkpt>
      <trkpt lat="44.49754" lon="0.98812">
        <ele>79.45</ele>
        <time>2014-04-05T15:06:38Z</time>
      </trkpt>
      <trkpt lat="44.49745" lon="0.98809">
        <ele>79.45</ele>
        <time>2014-04-05T15:06:40Z</time>
      </trkpt>
      <trkpt lat="44.49706" lon="0.98793">
        <ele>78.97</ele>
        <time>2014-04-05T15:06:49Z</time>
      </trkpt>
      <trkpt lat="44.49705" lon="0.9879">
        <ele>78.48</ele>
        <time>2014-04-05T15:06:50Z</time>
      </trkpt>
      <trkpt lat="44.49704" lon="0.98786">
        <ele>78.48</ele>
        <time>2014-04-05T15:06:51Z</time>
      </trkpt>
      <trkpt lat="44.49701" lon="0.98761">
        <ele>77.52</ele>
        <time>2014-04-05T15:06:55Z</time>
      </trkpt>
      <trkpt lat="44.49702" lon="0.98755">
        <ele>78</ele>
        <time>2014-04-05T15:06:56Z</time>
      </trkpt>
      <trkpt lat="44.49703" lon="0.98749">
        <ele>78</ele>
        <time>2014-04-05T15:06:57Z</time>
      </trkpt>
      <trkpt lat="44.49705" lon="0.98738">
        <ele>78</ele>
        <time>2014-04-05T15:06:59Z</time>
      </trkpt>
      <trkpt lat="44.49707" lon="0.9872">
        <ele>78.48</ele>
        <time>2014-04-05T15:07:02Z</time>
      </trkpt>
      <trkpt lat="44.49715" lon="0.98663">
        <ele>78.48</ele>
        <time>2014-04-05T15:07:12Z</time>
      </trkpt>
      <trkpt lat="44.49716" lon="0.98657">
        <ele>78.97</ele>
        <time>2014-04-05T15:07:13Z</time>
      </trkpt>
      <trkpt lat="44.49724" lon="0.986">
        <ele>77.52</ele>
        <time>2014-04-05T15:07:24Z</time>
      </trkpt>
      <trkpt lat="44.49726" lon="0.98582">
        <ele>77.04</ele>
        <time>2014-04-05T15:07:27Z</time>
      </trkpt>
      <trkpt lat="44.49727" lon="0.98576">
        <ele>77.04</ele>
        <time>2014-04-05T15:07:28Z</time>
      </trkpt>
      <trkpt lat="44.49728" lon="0.9857">
        <ele>76.56</ele>
        <time>2014-04-05T15:07:29Z</time>
      </trkpt>
      <trkpt lat="44.49732" lon="0.98545">
        <ele>77.04</ele>
        <time>2014-04-05T15:07:33Z</time>
      </trkpt>
      <trkpt lat="44.49743" lon="0.98486">
        <ele>75.6</ele>
        <time>2014-04-05T15:07:42Z</time>
      </trkpt>
      <trkpt lat="44.49745" lon="0.98481">
        <ele>76.08</ele>
        <time>2014-04-05T15:07:43Z</time>
      </trkpt>
      <trkpt lat="44.49747" lon="0.98475">
        <ele>76.08</ele>
        <time>2014-04-05T15:07:44Z</time>
      </trkpt>
      <trkpt lat="44.49748" lon="0.98469">
        <ele>75.6</ele>
        <time>2014-04-05T15:07:45Z</time>
      </trkpt>
      <trkpt lat="44.4975" lon="0.98463">
        <ele>75.6</ele>
        <time>2014-04-05T15:07:46Z</time>
      </trkpt>
      <trkpt lat="44.49753" lon="0.98446">
        <ele>76.56</ele>
        <time>2014-04-05T15:07:49Z</time>
      </trkpt>
      <trkpt lat="44.49755" lon="0.9844">
        <ele>76.56</ele>
        <time>2014-04-05T15:07:50Z</time>
      </trkpt>
      <trkpt lat="44.49776" lon="0.98369">
        <ele>77.04</ele>
        <time>2014-04-05T15:08:04Z</time>
      </trkpt>
      <trkpt lat="44.49777" lon="0.98366">
        <ele>77.04</ele>
        <time>2014-04-05T15:08:05Z</time>
      </trkpt>
      <trkpt lat="44.49779" lon="0.98365">
        <ele>77.04</ele>
        <time>2014-04-05T15:08:06Z</time>
      </trkpt>
      <trkpt lat="44.49779" lon="0.98363">
        <ele>77.04</ele>
        <time>2014-04-05T15:08:07Z</time>
      </trkpt>
      <trkpt lat="44.49779" lon="0.98361">
        <ele>77.04</ele>
        <time>2014-04-05T15:08:08Z</time>
      </trkpt>
      <trkpt lat="44.49779" lon="0.98359">
        <ele>77.04</ele>
        <time>2014-04-05T15:08:09Z</time>
      </trkpt>
      <trkpt lat="44.4978" lon="0.98357">
        <ele>77.04</ele>
        <time>2014-04-05T15:08:19Z</time>
      </trkpt>
      <trkpt lat="44.49778" lon="0.98357">
        <ele>76.08</ele>
        <time>2014-04-05T15:08:40Z</time>
      </trkpt>
      <trkpt lat="44.49778" lon="0.98352">
        <ele>77.52</ele>
        <time>2014-04-05T15:08:51Z</time>
      </trkpt>
      <trkpt lat="44.49778" lon="0.98352">
        <ele>78</ele>
        <time>2014-04-05T15:09:05Z</time>
      </trkpt>
      <trkpt lat="44.49779" lon="0.98347">
        <ele>77.52</ele>
        <time>2014-04-05T15:09:24Z</time>
      </trkpt>
      <trkpt lat="44.4978" lon="0.98344">
        <ele>77.52</ele>
        <time>2014-04-05T15:09:25Z</time>
      </trkpt>
      <trkpt lat="44.49802" lon="0.98275">
        <ele>77.04</ele>
        <time>2014-04-05T15:09:39Z</time>
      </trkpt>
      <trkpt lat="44.49808" lon="0.98249">
        <ele>76.56</ele>
        <time>2014-04-05T15:09:44Z</time>
      </trkpt>
      <trkpt lat="44.4981" lon="0.98244">
        <ele>76.56</ele>
        <time>2014-04-05T15:09:45Z</time>
      </trkpt>
      <trkpt lat="44.49814" lon="0.98233">
        <ele>76.08</ele>
        <time>2014-04-05T15:09:47Z</time>
      </trkpt>
      <trkpt lat="44.4983" lon="0.98175">
        <ele>76.08</ele>
        <time>2014-04-05T15:10:00Z</time>
      </trkpt>
      <trkpt lat="44.49841" lon="0.98131">
        <ele>75.6</ele>
        <time>2014-04-05T15:10:12Z</time>
      </trkpt>
      <trkpt lat="44.49852" lon="0.98056">
        <ele>74.64</ele>
        <time>2014-04-05T15:10:28Z</time>
      </trkpt>
      <trkpt lat="44.49852" lon="0.98031">
        <ele>73.68</ele>
        <time>2014-04-05T15:10:32Z</time>
      </trkpt>
      <trkpt lat="44.49851" lon="0.97961">
        <ele>73.2</ele>
        <time>2014-04-05T15:10:42Z</time>
      </trkpt>
      <trkpt lat="44.49851" lon="0.97953">
        <ele>73.2</ele>
        <time>2014-04-05T15:10:43Z</time>
      </trkpt>
      <trkpt lat="44.4985" lon="0.97946">
        <ele>73.2</ele>
        <time>2014-04-05T15:10:44Z</time>
      </trkpt>
      <trkpt lat="44.4984" lon="0.97828">
        <ele>73.68</ele>
        <time>2014-04-05T15:10:59Z</time>
      </trkpt>
      <trkpt lat="44.49824" lon="0.97718">
        <ele>74.16</ele>
        <time>2014-04-05T15:11:13Z</time>
      </trkpt>
      <trkpt lat="44.49801" lon="0.97621">
        <ele>75.12</ele>
        <time>2014-04-05T15:11:26Z</time>
      </trkpt>
      <trkpt lat="44.49772" lon="0.97511">
        <ele>75.12</ele>
        <time>2014-04-05T15:11:41Z</time>
      </trkpt>
      <trkpt lat="44.49754" lon="0.97446">
        <ele>76.08</ele>
        <time>2014-04-05T15:11:50Z</time>
      </trkpt>
      <trkpt lat="44.49752" lon="0.97439">
        <ele>76.08</ele>
        <time>2014-04-05T15:11:51Z</time>
      </trkpt>
      <trkpt lat="44.49731" lon="0.97359">
        <ele>76.08</ele>
        <time>2014-04-05T15:12:03Z</time>
      </trkpt>
      <trkpt lat="44.49729" lon="0.97353">
        <ele>76.08</ele>
        <time>2014-04-05T15:12:04Z</time>
      </trkpt>
      <trkpt lat="44.49723" lon="0.97333">
        <ele>75.6</ele>
        <time>2014-04-05T15:12:07Z</time>
      </trkpt>
      <trkpt lat="44.49721" lon="0.97327">
        <ele>75.6</ele>
        <time>2014-04-05T15:12:08Z</time>
      </trkpt>
      <trkpt lat="44.49719" lon="0.9732">
        <ele>75.6</ele>
        <time>2014-04-05T15:12:09Z</time>
      </trkpt>
      <trkpt lat="44.49718" lon="0.97314">
        <ele>75.6</ele>
        <time>2014-04-05T15:12:10Z</time>
      </trkpt>
      <trkpt lat="44.49716" lon="0.97308">
        <ele>75.6</ele>
        <time>2014-04-05T15:12:11Z</time>
      </trkpt>
      <trkpt lat="44.49712" lon="0.97296">
        <ele>75.6</ele>
        <time>2014-04-05T15:12:13Z</time>
      </trkpt>
      <trkpt lat="44.49706" lon="0.97275">
        <ele>76.08</ele>
        <time>2014-04-05T15:12:17Z</time>
      </trkpt>
      <trkpt lat="44.49695" lon="0.97243">
        <ele>76.08</ele>
        <time>2014-04-05T15:12:25Z</time>
      </trkpt>
      <trkpt lat="44.49693" lon="0.97239">
        <ele>77.04</ele>
        <time>2014-04-05T15:12:35Z</time>
      </trkpt>
      <trkpt lat="44.49691" lon="0.97237">
        <ele>78</ele>
        <time>2014-04-05T15:12:49Z</time>
      </trkpt>
      <trkpt lat="44.49688" lon="0.97236">
        <ele>78.48</ele>
        <time>2014-04-05T15:13:03Z</time>
      </trkpt>
      <trkpt lat="44.49688" lon="0.97232">
        <ele>78</ele>
        <time>2014-04-05T15:13:17Z</time>
      </trkpt>
      <trkpt lat="44.49689" lon="0.97233">
        <ele>78</ele>
        <time>2014-04-05T15:13:36Z</time>
      </trkpt>
      <trkpt lat="44.49689" lon="0.97233">
        <ele>78.48</ele>
        <time>2014-04-05T15:13:55Z</time>
      </trkpt>
      <trkpt lat="44.49689" lon="0.97233">
        <ele>79.45</ele>
        <time>2014-04-05T15:14:13Z</time>
      </trkpt>
      <trkpt lat="44.49688" lon="0.97233">
        <ele>79.93</ele>
        <time>2014-04-05T15:14:31Z</time>
      </trkpt>
      <trkpt lat="44.49684" lon="0.97218">
        <ele>79.45</ele>
        <time>2014-04-05T15:14:48Z</time>
      </trkpt>
      <trkpt lat="44.49662" lon="0.9715">
        <ele>78</ele>
        <time>2014-04-05T15:15:00Z</time>
      </trkpt>
      <trkpt lat="44.49649" lon="0.97113">
        <ele>77.04</ele>
        <time>2014-04-05T15:15:06Z</time>
      </trkpt>
      <trkpt lat="44.49646" lon="0.97107">
        <ele>77.04</ele>
        <time>2014-04-05T15:15:07Z</time>
      </trkpt>
      <trkpt lat="44.4961" lon="0.9701">
        <ele>75.6</ele>
        <time>2014-04-05T15:15:22Z</time>
      </trkpt>
      <trkpt lat="44.49574" lon="0.96914">
        <ele>73.68</ele>
        <time>2014-04-05T15:15:36Z</time>
      </trkpt>
      <trkpt lat="44.49539" lon="0.96825">
        <ele>74.64</ele>
        <time>2014-04-05T15:15:49Z</time>
      </trkpt>
      <trkpt lat="44.49538" lon="0.96817">
        <ele>74.64</ele>
        <time>2014-04-05T15:15:50Z</time>
      </trkpt>
      <trkpt lat="44.49534" lon="0.96801">
        <ele>74.16</ele>
        <time>2014-04-05T15:15:52Z</time>
      </trkpt>
      <trkpt lat="44.49489" lon="0.96686">
        <ele>75.6</ele>
        <time>2014-04-05T15:16:08Z</time>
      </trkpt>
      <trkpt lat="44.49444" lon="0.96577">
        <ele>76.56</ele>
        <time>2014-04-05T15:16:24Z</time>
      </trkpt>
      <trkpt lat="44.49405" lon="0.96491">
        <ele>77.04</ele>
        <time>2014-04-05T15:16:38Z</time>
      </trkpt>
      <trkpt lat="44.49398" lon="0.96473">
        <ele>77.52</ele>
        <time>2014-04-05T15:16:42Z</time>
      </trkpt>
      <trkpt lat="44.49401" lon="0.96465">
        <ele>77.52</ele>
        <time>2014-04-05T15:16:44Z</time>
      </trkpt>
      <trkpt lat="44.49403" lon="0.96463">
        <ele>77.52</ele>
        <time>2014-04-05T15:16:45Z</time>
      </trkpt>
      <trkpt lat="44.49407" lon="0.96461">
        <ele>78</ele>
        <time>2014-04-05T15:16:46Z</time>
      </trkpt>
      <trkpt lat="44.49409" lon="0.96459">
        <ele>78.48</ele>
        <time>2014-04-05T15:16:47Z</time>
      </trkpt>
      <trkpt lat="44.49411" lon="0.96456">
        <ele>78.97</ele>
        <time>2014-04-05T15:16:48Z</time>
      </trkpt>
      <trkpt lat="44.49417" lon="0.96448">
        <ele>79.93</ele>
        <time>2014-04-05T15:16:52Z</time>
      </trkpt>
      <trkpt lat="44.49418" lon="0.96449">
        <ele>81.37</ele>
        <time>2014-04-05T15:17:04Z</time>
      </trkpt>
      <trkpt lat="44.49419" lon="0.96446">
        <ele>81.37</ele>
        <time>2014-04-05T15:17:09Z</time>
      </trkpt>
      <trkpt lat="44.49418" lon="0.96442">
        <ele>81.37</ele>
        <time>2014-04-05T15:17:10Z</time>
      </trkpt>
      <trkpt lat="44.49416" lon="0.96439">
        <ele>81.37</ele>
        <time>2014-04-05T15:17:11Z</time>
      </trkpt>
      <trkpt lat="44.49414" lon="0.96435">
        <ele>80.89</ele>
        <time>2014-04-05T15:17:12Z</time>
      </trkpt>
      <trkpt lat="44.49412" lon="0.96432">
        <ele>80.89</ele>
        <time>2014-04-05T15:17:13Z</time>
      </trkpt>
      <trkpt lat="44.49391" lon="0.96395">
        <ele>81.37</ele>
        <time>2014-04-05T15:17:21Z</time>
      </trkpt>
      <trkpt lat="44.49389" lon="0.9639">
        <ele>81.37</ele>
        <time>2014-04-05T15:17:22Z</time>
      </trkpt>
      <trkpt lat="44.49386" lon="0.96386">
        <ele>81.85</ele>
        <time>2014-04-05T15:17:23Z</time>
      </trkpt>
      <trkpt lat="44.49383" lon="0.96382">
        <ele>81.85</ele>
        <time>2014-04-05T15:17:24Z</time>
      </trkpt>
      <trkpt lat="44.4938" lon="0.96378">
        <ele>82.33</ele>
        <time>2014-04-05T15:17:25Z</time>
      </trkpt>
      <trkpt lat="44.49359" lon="0.96347">
        <ele>84.25</ele>
        <time>2014-04-05T15:17:33Z</time>
      </trkpt>
      <trkpt lat="44.49355" lon="0.96345">
        <ele>84.25</ele>
        <time>2014-04-05T15:17:34Z</time>
      </trkpt>
      <trkpt lat="44.4935" lon="0.96345">
        <ele>84.25</ele>
        <time>2014-04-05T15:17:35Z</time>
      </trkpt>
      <trkpt lat="44.49347" lon="0.96348">
        <ele>84.25</ele>
        <time>2014-04-05T15:17:36Z</time>
      </trkpt>
      <trkpt lat="44.49344" lon="0.96353">
        <ele>83.77</ele>
        <time>2014-04-05T15:17:37Z</time>
      </trkpt>
      <trkpt lat="44.49341" lon="0.96359">
        <ele>83.29</ele>
        <time>2014-04-05T15:17:38Z</time>
      </trkpt>
      <trkpt lat="44.49338" lon="0.96365">
        <ele>83.29</ele>
        <time>2014-04-05T15:17:39Z</time>
      </trkpt>
      <trkpt lat="44.49334" lon="0.9637">
        <ele>82.81</ele>
        <time>2014-04-05T15:17:40Z</time>
      </trkpt>
      <trkpt lat="44.49262" lon="0.96456">
        <ele>79.93</ele>
        <time>2014-04-05T15:17:55Z</time>
      </trkpt>
      <trkpt lat="44.49177" lon="0.96555">
        <ele>76.56</ele>
        <time>2014-04-05T15:18:10Z</time>
      </trkpt>
      <trkpt lat="44.49171" lon="0.96562">
        <ele>76.08</ele>
        <time>2014-04-05T15:18:11Z</time>
      </trkpt>
      <trkpt lat="44.4911" lon="0.96634">
        <ele>76.56</ele>
        <time>2014-04-05T15:18:24Z</time>
      </trkpt>
      <trkpt lat="44.49105" lon="0.96638">
        <ele>77.04</ele>
        <time>2014-04-05T15:18:25Z</time>
      </trkpt>
      <trkpt lat="44.49101" lon="0.96641">
        <ele>77.04</ele>
        <time>2014-04-05T15:18:26Z</time>
      </trkpt>
      <trkpt lat="44.49096" lon="0.96643">
        <ele>77.52</ele>
        <time>2014-04-05T15:18:27Z</time>
      </trkpt>
      <trkpt lat="44.49092" lon="0.96646">
        <ele>77.52</ele>
        <time>2014-04-05T15:18:28Z</time>
      </trkpt>
      <trkpt lat="44.49087" lon="0.9665">
        <ele>77.52</ele>
        <time>2014-04-05T15:18:29Z</time>
      </trkpt>
      <trkpt lat="44.49071" lon="0.96662">
        <ele>78.48</ele>
        <time>2014-04-05T15:18:33Z</time>
      </trkpt>
      <trkpt lat="44.49058" lon="0.96673">
        <ele>78.48</ele>
        <time>2014-04-05T15:18:36Z</time>
      </trkpt>
      <trkpt lat="44.49054" lon="0.96677">
        <ele>78.48</ele>
        <time>2014-04-05T15:18:37Z</time>
      </trkpt>
      <trkpt lat="44.4905" lon="0.96681">
        <ele>78.97</ele>
        <time>2014-04-05T15:18:38Z</time>
      </trkpt>
      <trkpt lat="44.49038" lon="0.96692">
        <ele>78.97</ele>
        <time>2014-04-05T15:18:41Z</time>
      </trkpt>
      <trkpt lat="44.49026" lon="0.96701">
        <ele>79.93</ele>
        <time>2014-04-05T15:18:45Z</time>
      </trkpt>
      <trkpt lat="44.49024" lon="0.967">
        <ele>79.93</ele>
        <time>2014-04-05T15:18:46Z</time>
      </trkpt>
      <trkpt lat="44.49024" lon="0.96698">
        <ele>79.93</ele>
        <time>2014-04-05T15:18:47Z</time>
      </trkpt>
      <trkpt lat="44.49023" lon="0.96696">
        <ele>79.45</ele>
        <time>2014-04-05T15:18:48Z</time>
      </trkpt>
      <trkpt lat="44.49022" lon="0.96694">
        <ele>79.45</ele>
        <time>2014-04-05T15:18:49Z</time>
      </trkpt>
      <trkpt lat="44.49021" lon="0.96692">
        <ele>79.45</ele>
        <time>2014-04-05T15:18:50Z</time>
      </trkpt>
      <trkpt lat="44.49021" lon="0.96689">
        <ele>79.45</ele>
        <time>2014-04-05T15:18:51Z</time>
      </trkpt>
      <trkpt lat="44.4902" lon="0.96685">
        <ele>79.45</ele>
        <time>2014-04-05T15:18:52Z</time>
      </trkpt>
      <trkpt lat="44.49018" lon="0.96681">
        <ele>79.45</ele>
        <time>2014-04-05T15:18:53Z</time>
      </trkpt>
      <trkpt lat="44.49016" lon="0.96676">
        <ele>79.45</ele>
        <time>2014-04-05T15:18:54Z</time>
      </trkpt>
      <trkpt lat="44.49014" lon="0.96671">
        <ele>79.45</ele>
        <time>2014-04-05T15:18:55Z</time>
      </trkpt>
      <trkpt lat="44.4898" lon="0.96593">
        <ele>78.48</ele>
        <time>2014-04-05T15:19:08Z</time>
      </trkpt>
      <trkpt lat="44.48941" lon="0.96527">
        <ele>77.52</ele>
        <time>2014-04-05T15:19:21Z</time>
      </trkpt>
      <trkpt lat="44.48919" lon="0.96497">
        <ele>78</ele>
        <time>2014-04-05T15:19:27Z</time>
      </trkpt>
      <trkpt lat="44.48897" lon="0.96453">
        <ele>76.56</ele>
        <time>2014-04-05T15:19:34Z</time>
      </trkpt>
      <trkpt lat="44.48896" lon="0.96445">
        <ele>76.56</ele>
        <time>2014-04-05T15:19:35Z</time>
      </trkpt>
      <trkpt lat="44.48897" lon="0.96437">
        <ele>76.08</ele>
        <time>2014-04-05T15:19:36Z</time>
      </trkpt>
      <trkpt lat="44.489" lon="0.9643">
        <ele>75.6</ele>
        <time>2014-04-05T15:19:37Z</time>
      </trkpt>
      <trkpt lat="44.48905" lon="0.96424">
        <ele>75.6</ele>
        <time>2014-04-05T15:19:38Z</time>
      </trkpt>
      <trkpt lat="44.48911" lon="0.96419">
        <ele>75.6</ele>
        <time>2014-04-05T15:19:39Z</time>
      </trkpt>
      <trkpt lat="44.4893" lon="0.96397">
        <ele>75.12</ele>
        <time>2014-04-05T15:19:43Z</time>
      </trkpt>
      <trkpt lat="44.48965" lon="0.96354">
        <ele>75.12</ele>
        <time>2014-04-05T15:19:51Z</time>
      </trkpt>
      <trkpt lat="44.48969" lon="0.96349">
        <ele>75.12</ele>
        <time>2014-04-05T15:19:52Z</time>
      </trkpt>
      <trkpt lat="44.48976" lon="0.96335">
        <ele>75.12</ele>
        <time>2014-04-05T15:19:54Z</time>
      </trkpt>
      <trkpt lat="44.48969" lon="0.96305">
        <ele>73.2</ele>
        <time>2014-04-05T15:20:00Z</time>
      </trkpt>
      <trkpt lat="44.4894" lon="0.96292">
        <ele>71.76</ele>
        <time>2014-04-05T15:20:08Z</time>
      </trkpt>
      <trkpt lat="44.48932" lon="0.96277">
        <ele>72.72</ele>
        <time>2014-04-05T15:20:13Z</time>
      </trkpt>
      <trkpt lat="44.48914" lon="0.96254">
        <ele>72.72</ele>
        <time>2014-04-05T15:20:19Z</time>
      </trkpt>
      <trkpt lat="44.48893" lon="0.96233">
        <ele>74.16</ele>
        <time>2014-04-05T15:20:25Z</time>
      </trkpt>
      <trkpt lat="44.4888" lon="0.96224">
        <ele>75.12</ele>
        <time>2014-04-05T15:20:28Z</time>
      </trkpt>
      <trkpt lat="44.48872" lon="0.96219">
        <ele>75.6</ele>
        <time>2014-04-05T15:20:30Z</time>
      </trkpt>
      <trkpt lat="44.48852" lon="0.96216">
        <ele>77.04</ele>
        <time>2014-04-05T15:20:35Z</time>
      </trkpt>
      <trkpt lat="44.48816" lon="0.96172">
        <ele>75.6</ele>
        <time>2014-04-05T15:20:48Z</time>
      </trkpt>
      <trkpt lat="44.48809" lon="0.96161">
        <ele>76.08</ele>
        <time>2014-04-05T15:20:51Z</time>
      </trkpt>
      <trkpt lat="44.48806" lon="0.96139">
        <ele>73.68</ele>
        <time>2014-04-05T15:21:00Z</time>
      </trkpt>
      <trkpt lat="44.48805" lon="0.96136">
        <ele>72.24</ele>
        <time>2014-04-05T15:21:23Z</time>
      </trkpt>
      <trkpt lat="44.48804" lon="0.96134">
        <ele>70.79</ele>
        <time>2014-04-05T15:21:53Z</time>
      </trkpt>
      <trkpt lat="44.48805" lon="0.96135">
        <ele>71.76</ele>
        <time>2014-04-05T15:22:20Z</time>
      </trkpt>
      <trkpt lat="44.48791" lon="0.96126">
        <ele>72.72</ele>
        <time>2014-04-05T15:22:27Z</time>
      </trkpt>
      <trkpt lat="44.48787" lon="0.96125">
        <ele>73.68</ele>
        <time>2014-04-05T15:22:29Z</time>
      </trkpt>
      <trkpt lat="44.48781" lon="0.9612">
        <ele>75.12</ele>
        <time>2014-04-05T15:22:41Z</time>
      </trkpt>
      <trkpt lat="44.48768" lon="0.96111">
        <ele>75.6</ele>
        <time>2014-04-05T15:22:54Z</time>
      </trkpt>
      <trkpt lat="44.48766" lon="0.96109">
        <ele>75.6</ele>
        <time>2014-04-05T15:22:55Z</time>
      </trkpt>
      <trkpt lat="44.48751" lon="0.9611">
        <ele>76.56</ele>
        <time>2014-04-05T15:23:00Z</time>
      </trkpt>
      <trkpt lat="44.48728" lon="0.96085">
        <ele>78</ele>
        <time>2014-04-05T15:23:09Z</time>
      </trkpt>
      <trkpt lat="44.48724" lon="0.96079">
        <ele>77.52</ele>
        <time>2014-04-05T15:23:11Z</time>
      </trkpt>
      <trkpt lat="44.48723" lon="0.9606">
        <ele>76.56</ele>
        <time>2014-04-05T15:23:16Z</time>
      </trkpt>
      <trkpt lat="44.48715" lon="0.96042">
        <ele>74.16</ele>
        <time>2014-04-05T15:23:20Z</time>
      </trkpt>
      <trkpt lat="44.487" lon="0.9602">
        <ele>71.27</ele>
        <time>2014-04-05T15:23:25Z</time>
      </trkpt>
      <trkpt lat="44.4866" lon="0.95978">
        <ele>69.83</ele>
        <time>2014-04-05T15:23:35Z</time>
      </trkpt>
      <trkpt lat="44.4864" lon="0.95955">
        <ele>69.83</ele>
        <time>2014-04-05T15:23:40Z</time>
      </trkpt>
      <trkpt lat="44.48633" lon="0.95947">
        <ele>69.83</ele>
        <time>2014-04-05T15:23:42Z</time>
      </trkpt>
      <trkpt lat="44.48618" lon="0.9593">
        <ele>70.31</ele>
        <time>2014-04-05T15:23:46Z</time>
      </trkpt>
      <trkpt lat="44.48593" lon="0.95894">
        <ele>70.31</ele>
        <time>2014-04-05T15:23:53Z</time>
      </trkpt>
      <trkpt lat="44.48586" lon="0.95885">
        <ele>69.83</ele>
        <time>2014-04-05T15:23:55Z</time>
      </trkpt>
      <trkpt lat="44.48561" lon="0.95856">
        <ele>70.31</ele>
        <time>2014-04-05T15:24:01Z</time>
      </trkpt>
      <trkpt lat="44.48545" lon="0.95836">
        <ele>69.83</ele>
        <time>2014-04-05T15:24:05Z</time>
      </trkpt>
      <trkpt lat="44.48503" lon="0.95778">
        <ele>72.72</ele>
        <time>2014-04-05T15:24:19Z</time>
      </trkpt>
      <trkpt lat="44.48487" lon="0.95746">
        <ele>72.72</ele>
        <time>2014-04-05T15:24:26Z</time>
      </trkpt>
      <trkpt lat="44.48476" lon="0.9573">
        <ele>72.24</ele>
        <time>2014-04-05T15:24:29Z</time>
      </trkpt>
      <trkpt lat="44.4846" lon="0.95704">
        <ele>69.83</ele>
        <time>2014-04-05T15:24:33Z</time>
      </trkpt>
      <trkpt lat="44.4844" lon="0.95658">
        <ele>66.95</ele>
        <time>2014-04-05T15:24:38Z</time>
      </trkpt>
      <trkpt lat="44.4843" lon="0.95636">
        <ele>65.03</ele>
        <time>2014-04-05T15:24:41Z</time>
      </trkpt>
      <trkpt lat="44.48421" lon="0.95612">
        <ele>63.58</ele>
        <time>2014-04-05T15:24:45Z</time>
      </trkpt>
      <trkpt lat="44.48418" lon="0.956">
        <ele>63.58</ele>
        <time>2014-04-05T15:24:47Z</time>
      </trkpt>
      <trkpt lat="44.4841" lon="0.95568">
        <ele>63.58</ele>
        <time>2014-04-05T15:24:52Z</time>
      </trkpt>
      <trkpt lat="44.48407" lon="0.95555">
        <ele>64.07</ele>
        <time>2014-04-05T15:24:54Z</time>
      </trkpt>
      <trkpt lat="44.48388" lon="0.95509">
        <ele>63.58</ele>
        <time>2014-04-05T15:25:04Z</time>
      </trkpt>
      <trkpt lat="44.48371" lon="0.95458">
        <ele>64.07</ele>
        <time>2014-04-05T15:25:15Z</time>
      </trkpt>
      <trkpt lat="44.48354" lon="0.95408">
        <ele>62.14</ele>
        <time>2014-04-05T15:25:25Z</time>
      </trkpt>
      <trkpt lat="44.48347" lon="0.95396">
        <ele>61.66</ele>
        <time>2014-04-05T15:25:27Z</time>
      </trkpt>
      <trkpt lat="44.48325" lon="0.95368">
        <ele>60.22</ele>
        <time>2014-04-05T15:25:35Z</time>
      </trkpt>
      <trkpt lat="44.48316" lon="0.95355">
        <ele>60.22</ele>
        <time>2014-04-05T15:25:44Z</time>
      </trkpt>
      <trkpt lat="44.48313" lon="0.95344">
        <ele>65.51</ele>
        <time>2014-04-05T15:25:56Z</time>
      </trkpt>
      <trkpt lat="44.48308" lon="0.95337">
        <ele>67.91</ele>
        <time>2014-04-05T15:26:04Z</time>
      </trkpt>
      <trkpt lat="44.483" lon="0.95334">
        <ele>68.39</ele>
        <time>2014-04-05T15:26:10Z</time>
      </trkpt>
      <trkpt lat="44.48292" lon="0.95321">
        <ele>71.27</ele>
        <time>2014-04-05T15:26:22Z</time>
      </trkpt>
      <trkpt lat="44.48292" lon="0.9532">
        <ele>71.27</ele>
        <time>2014-04-05T15:26:23Z</time>
      </trkpt>
      <trkpt lat="44.48272" lon="0.95297">
        <ele>68.87</ele>
        <time>2014-04-05T15:26:35Z</time>
      </trkpt>
      <trkpt lat="44.48254" lon="0.95273">
        <ele>65.51</ele>
        <time>2014-04-05T15:26:41Z</time>
      </trkpt>
      <trkpt lat="44.48235" lon="0.95246">
        <ele>63.58</ele>
        <time>2014-04-05T15:26:47Z</time>
      </trkpt>
      <trkpt lat="44.48227" lon="0.9523">
        <ele>63.58</ele>
        <time>2014-04-05T15:26:50Z</time>
      </trkpt>
      <trkpt lat="44.48197" lon="0.95184">
        <ele>64.55</ele>
        <time>2014-04-05T15:27:01Z</time>
      </trkpt>
      <trkpt lat="44.48178" lon="0.9515">
        <ele>65.99</ele>
        <time>2014-04-05T15:27:09Z</time>
      </trkpt>
      <trkpt lat="44.48166" lon="0.95128">
        <ele>66.47</ele>
        <time>2014-04-05T15:27:13Z</time>
      </trkpt>
      <trkpt lat="44.48137" lon="0.95073">
        <ele>69.35</ele>
        <time>2014-04-05T15:27:25Z</time>
      </trkpt>
      <trkpt lat="44.48115" lon="0.95028">
        <ele>70.79</ele>
        <time>2014-04-05T15:27:37Z</time>
      </trkpt>
      <trkpt lat="44.48098" lon="0.9499">
        <ele>70.31</ele>
        <time>2014-04-05T15:27:46Z</time>
      </trkpt>
      <trkpt lat="44.48095" lon="0.94978">
        <ele>69.83</ele>
        <time>2014-04-05T15:27:48Z</time>
      </trkpt>
      <trkpt lat="44.48075" lon="0.94928">
        <ele>69.35</ele>
        <time>2014-04-05T15:27:59Z</time>
      </trkpt>
      <trkpt lat="44.48065" lon="0.94907">
        <ele>68.87</ele>
        <time>2014-04-05T15:28:04Z</time>
      </trkpt>
      <trkpt lat="44.48054" lon="0.94885">
        <ele>66.95</ele>
        <time>2014-04-05T15:28:08Z</time>
      </trkpt>
      <trkpt lat="44.48032" lon="0.94828">
        <ele>63.58</ele>
        <time>2014-04-05T15:28:18Z</time>
      </trkpt>
      <trkpt lat="44.48024" lon="0.94782">
        <ele>64.55</ele>
        <time>2014-04-05T15:28:25Z</time>
      </trkpt>
      <trkpt lat="44.48023" lon="0.94777">
        <ele>65.03</ele>
        <time>2014-04-05T15:28:26Z</time>
      </trkpt>
      <trkpt lat="44.48021" lon="0.94771">
        <ele>65.51</ele>
        <time>2014-04-05T15:28:27Z</time>
      </trkpt>
      <trkpt lat="44.48018" lon="0.94766">
        <ele>65.99</ele>
        <time>2014-04-05T15:28:28Z</time>
      </trkpt>
      <trkpt lat="44.48015" lon="0.94763">
        <ele>66.47</ele>
        <time>2014-04-05T15:28:29Z</time>
      </trkpt>
      <trkpt lat="44.48012" lon="0.94761">
        <ele>66.95</ele>
        <time>2014-04-05T15:28:30Z</time>
      </trkpt>
      <trkpt lat="44.48009" lon="0.94758">
        <ele>67.43</ele>
        <time>2014-04-05T15:28:31Z</time>
      </trkpt>
      <trkpt lat="44.48006" lon="0.94754">
        <ele>68.39</ele>
        <time>2014-04-05T15:28:32Z</time>
      </trkpt>
      <trkpt lat="44.47991" lon="0.94715">
        <ele>70.31</ele>
        <time>2014-04-05T15:28:40Z</time>
      </trkpt>
      <trkpt lat="44.47988" lon="0.9471">
        <ele>70.31</ele>
        <time>2014-04-05T15:28:41Z</time>
      </trkpt>
      <trkpt lat="44.47986" lon="0.94705">
        <ele>70.31</ele>
        <time>2014-04-05T15:28:42Z</time>
      </trkpt>
      <trkpt lat="44.47982" lon="0.94694">
        <ele>70.31</ele>
        <time>2014-04-05T15:28:44Z</time>
      </trkpt>
      <trkpt lat="44.4798" lon="0.94689">
        <ele>70.31</ele>
        <time>2014-04-05T15:28:45Z</time>
      </trkpt>
      <trkpt lat="44.47955" lon="0.94615">
        <ele>72.24</ele>
        <time>2014-04-05T15:28:59Z</time>
      </trkpt>
      <trkpt lat="44.47941" lon="0.94567">
        <ele>73.2</ele>
        <time>2014-04-05T15:29:08Z</time>
      </trkpt>
      <trkpt lat="44.4794" lon="0.9456">
        <ele>73.2</ele>
        <time>2014-04-05T15:29:09Z</time>
      </trkpt>
      <trkpt lat="44.47938" lon="0.94554">
        <ele>73.2</ele>
        <time>2014-04-05T15:29:10Z</time>
      </trkpt>
      <trkpt lat="44.47934" lon="0.94542">
        <ele>73.2</ele>
        <time>2014-04-05T15:29:12Z</time>
      </trkpt>
      <trkpt lat="44.47933" lon="0.94536">
        <ele>73.68</ele>
        <time>2014-04-05T15:29:13Z</time>
      </trkpt>
      <trkpt lat="44.47932" lon="0.9453">
        <ele>73.2</ele>
        <time>2014-04-05T15:29:14Z</time>
      </trkpt>
      <trkpt lat="44.4793" lon="0.94524">
        <ele>73.2</ele>
        <time>2014-04-05T15:29:15Z</time>
      </trkpt>
      <trkpt lat="44.47927" lon="0.94518">
        <ele>73.2</ele>
        <time>2014-04-05T15:29:16Z</time>
      </trkpt>
      <trkpt lat="44.47917" lon="0.94489">
        <ele>72.72</ele>
        <time>2014-04-05T15:29:21Z</time>
      </trkpt>
      <trkpt lat="44.47894" lon="0.94409">
        <ele>72.72</ele>
        <time>2014-04-05T15:29:35Z</time>
      </trkpt>
      <trkpt lat="44.47881" lon="0.94376">
        <ele>73.2</ele>
        <time>2014-04-05T15:29:41Z</time>
      </trkpt>
      <trkpt lat="44.47845" lon="0.94287">
        <ele>72.24</ele>
        <time>2014-04-05T15:29:56Z</time>
      </trkpt>
      <trkpt lat="44.47836" lon="0.94254">
        <ele>71.76</ele>
        <time>2014-04-05T15:30:01Z</time>
      </trkpt>
      <trkpt lat="44.47816" lon="0.94224">
        <ele>71.76</ele>
        <time>2014-04-05T15:30:07Z</time>
      </trkpt>
      <trkpt lat="44.47797" lon="0.94189">
        <ele>70.31</ele>
        <time>2014-04-05T15:30:15Z</time>
      </trkpt>
      <trkpt lat="44.47746" lon="0.94122">
        <ele>70.31</ele>
        <time>2014-04-05T15:30:30Z</time>
      </trkpt>
      <trkpt lat="44.47692" lon="0.94073">
        <ele>70.79</ele>
        <time>2014-04-05T15:30:43Z</time>
      </trkpt>
      <trkpt lat="44.47642" lon="0.94041">
        <ele>70.79</ele>
        <time>2014-04-05T15:30:56Z</time>
      </trkpt>
      <trkpt lat="44.4763" lon="0.94033">
        <ele>71.27</ele>
        <time>2014-04-05T15:30:59Z</time>
      </trkpt>
      <trkpt lat="44.47596" lon="0.94007">
        <ele>70.31</ele>
        <time>2014-04-05T15:31:07Z</time>
      </trkpt>
      <trkpt lat="44.47579" lon="0.93994">
        <ele>71.27</ele>
        <time>2014-04-05T15:31:11Z</time>
      </trkpt>
      <trkpt lat="44.47575" lon="0.93989">
        <ele>70.79</ele>
        <time>2014-04-05T15:31:12Z</time>
      </trkpt>
      <trkpt lat="44.47571" lon="0.93985">
        <ele>71.27</ele>
        <time>2014-04-05T15:31:13Z</time>
      </trkpt>
      <trkpt lat="44.47551" lon="0.93966">
        <ele>71.27</ele>
        <time>2014-04-05T15:31:18Z</time>
      </trkpt>
      <trkpt lat="44.47547" lon="0.93964">
        <ele>71.27</ele>
        <time>2014-04-05T15:31:19Z</time>
      </trkpt>
      <trkpt lat="44.47542" lon="0.93962">
        <ele>71.27</ele>
        <time>2014-04-05T15:31:20Z</time>
      </trkpt>
      <trkpt lat="44.47537" lon="0.93961">
        <ele>71.27</ele>
        <time>2014-04-05T15:31:21Z</time>
      </trkpt>
      <trkpt lat="44.47533" lon="0.9396">
        <ele>71.27</ele>
        <time>2014-04-05T15:31:22Z</time>
      </trkpt>
      <trkpt lat="44.47519" lon="0.9395">
        <ele>72.24</ele>
        <time>2014-04-05T15:31:26Z</time>
      </trkpt>
      <trkpt lat="44.47517" lon="0.93946">
        <ele>72.72</ele>
        <time>2014-04-05T15:31:27Z</time>
      </trkpt>
      <trkpt lat="44.47514" lon="0.93942">
        <ele>72.72</ele>
        <time>2014-04-05T15:31:28Z</time>
      </trkpt>
      <trkpt lat="44.47495" lon="0.93901">
        <ele>72.72</ele>
        <time>2014-04-05T15:31:35Z</time>
      </trkpt>
      <trkpt lat="44.47491" lon="0.93898">
        <ele>72.72</ele>
        <time>2014-04-05T15:31:36Z</time>
      </trkpt>
      <trkpt lat="44.47487" lon="0.93896">
        <ele>72.72</ele>
        <time>2014-04-05T15:31:37Z</time>
      </trkpt>
      <trkpt lat="44.47483" lon="0.93897">
        <ele>72.72</ele>
        <time>2014-04-05T15:31:38Z</time>
      </trkpt>
      <trkpt lat="44.4748" lon="0.939">
        <ele>73.2</ele>
        <time>2014-04-05T15:31:39Z</time>
      </trkpt>
      <trkpt lat="44.47431" lon="0.93934">
        <ele>73.68</ele>
        <time>2014-04-05T15:31:54Z</time>
      </trkpt>
      <trkpt lat="44.47401" lon="0.93954">
        <ele>76.56</ele>
        <time>2014-04-05T15:32:04Z</time>
      </trkpt>
      <trkpt lat="44.47395" lon="0.93958">
        <ele>77.52</ele>
        <time>2014-04-05T15:32:07Z</time>
      </trkpt>
      <trkpt lat="44.47394" lon="0.93957">
        <ele>77.52</ele>
        <time>2014-04-05T15:32:08Z</time>
      </trkpt>
      <trkpt lat="44.47393" lon="0.93956">
        <ele>78</ele>
        <time>2014-04-05T15:32:09Z</time>
      </trkpt>
      <trkpt lat="44.47392" lon="0.93953">
        <ele>78</ele>
        <time>2014-04-05T15:32:10Z</time>
      </trkpt>
      <trkpt lat="44.47392" lon="0.93949">
        <ele>78</ele>
        <time>2014-04-05T15:32:11Z</time>
      </trkpt>
      <trkpt lat="44.4739" lon="0.93944">
        <ele>78</ele>
        <time>2014-04-05T15:32:12Z</time>
      </trkpt>
      <trkpt lat="44.47377" lon="0.93874">
        <ele>77.52</ele>
        <time>2014-04-05T15:32:25Z</time>
      </trkpt>
      <trkpt lat="44.47373" lon="0.93851">
        <ele>76.56</ele>
        <time>2014-04-05T15:32:29Z</time>
      </trkpt>
      <trkpt lat="44.47372" lon="0.93845">
        <ele>76.56</ele>
        <time>2014-04-05T15:32:30Z</time>
      </trkpt>
      <trkpt lat="44.4737" lon="0.9384">
        <ele>76.56</ele>
        <time>2014-04-05T15:32:31Z</time>
      </trkpt>
      <trkpt lat="44.47368" lon="0.93836">
        <ele>76.56</ele>
        <time>2014-04-05T15:32:32Z</time>
      </trkpt>
      <trkpt lat="44.47366" lon="0.93833">
        <ele>76.56</ele>
        <time>2014-04-05T15:32:33Z</time>
      </trkpt>
      <trkpt lat="44.47364" lon="0.93829">
        <ele>77.04</ele>
        <time>2014-04-05T15:32:34Z</time>
      </trkpt>
      <trkpt lat="44.47363" lon="0.93825">
        <ele>76.56</ele>
        <time>2014-04-05T15:32:35Z</time>
      </trkpt>
      <trkpt lat="44.47362" lon="0.93823">
        <ele>77.04</ele>
        <time>2014-04-05T15:32:36Z</time>
      </trkpt>
      <trkpt lat="44.4736" lon="0.93821">
        <ele>77.52</ele>
        <time>2014-04-05T15:32:37Z</time>
      </trkpt>
      <trkpt lat="44.47358" lon="0.93819">
        <ele>77.52</ele>
        <time>2014-04-05T15:32:38Z</time>
      </trkpt>
      <trkpt lat="44.47356" lon="0.93818">
        <ele>78</ele>
        <time>2014-04-05T15:32:39Z</time>
      </trkpt>
      <trkpt lat="44.47354" lon="0.93815">
        <ele>78.48</ele>
        <time>2014-04-05T15:32:40Z</time>
      </trkpt>
      <trkpt lat="44.47352" lon="0.93812">
        <ele>78.97</ele>
        <time>2014-04-05T15:32:41Z</time>
      </trkpt>
      <trkpt lat="44.4735" lon="0.93808">
        <ele>78.97</ele>
        <time>2014-04-05T15:32:42Z</time>
      </trkpt>
      <trkpt lat="44.47333" lon="0.93757">
        <ele>79.93</ele>
        <time>2014-04-05T15:32:52Z</time>
      </trkpt>
      <trkpt lat="44.4733" lon="0.93752">
        <ele>80.41</ele>
        <time>2014-04-05T15:32:53Z</time>
      </trkpt>
      <trkpt lat="44.4732" lon="0.93739">
        <ele>80.89</ele>
        <time>2014-04-05T15:32:56Z</time>
      </trkpt>
      <trkpt lat="44.47314" lon="0.9373">
        <ele>80.89</ele>
        <time>2014-04-05T15:32:58Z</time>
      </trkpt>
      <trkpt lat="44.47298" lon="0.93688">
        <ele>79.45</ele>
        <time>2014-04-05T15:33:06Z</time>
      </trkpt>
      <trkpt lat="44.47294" lon="0.93681">
        <ele>79.45</ele>
        <time>2014-04-05T15:33:07Z</time>
      </trkpt>
      <trkpt lat="44.4729" lon="0.93676">
        <ele>78.97</ele>
        <time>2014-04-05T15:33:08Z</time>
      </trkpt>
      <trkpt lat="44.47284" lon="0.93665">
        <ele>78.97</ele>
        <time>2014-04-05T15:33:10Z</time>
      </trkpt>
      <trkpt lat="44.4728" lon="0.93651">
        <ele>78.48</ele>
        <time>2014-04-05T15:33:12Z</time>
      </trkpt>
      <trkpt lat="44.47276" lon="0.93646">
        <ele>78.48</ele>
        <time>2014-04-05T15:33:13Z</time>
      </trkpt>
      <trkpt lat="44.47272" lon="0.93641">
        <ele>78.48</ele>
        <time>2014-04-05T15:33:14Z</time>
      </trkpt>
      <trkpt lat="44.47252" lon="0.9362">
        <ele>78</ele>
        <time>2014-04-05T15:33:19Z</time>
      </trkpt>
      <trkpt lat="44.47249" lon="0.93614">
        <ele>78</ele>
        <time>2014-04-05T15:33:20Z</time>
      </trkpt>
      <trkpt lat="44.47246" lon="0.93609">
        <ele>78</ele>
        <time>2014-04-05T15:33:21Z</time>
      </trkpt>
      <trkpt lat="44.47229" lon="0.93562">
        <ele>78</ele>
        <time>2014-04-05T15:33:29Z</time>
      </trkpt>
      <trkpt lat="44.47229" lon="0.93556">
        <ele>78</ele>
        <time>2014-04-05T15:33:30Z</time>
      </trkpt>
      <trkpt lat="44.47231" lon="0.93544">
        <ele>78</ele>
        <time>2014-04-05T15:33:32Z</time>
      </trkpt>
      <trkpt lat="44.4723" lon="0.93537">
        <ele>77.52</ele>
        <time>2014-04-05T15:33:33Z</time>
      </trkpt>
      <trkpt lat="44.47222" lon="0.93467">
        <ele>76.56</ele>
        <time>2014-04-05T15:33:44Z</time>
      </trkpt>
      <trkpt lat="44.47221" lon="0.93462">
        <ele>76.56</ele>
        <time>2014-04-05T15:33:45Z</time>
      </trkpt>
      <trkpt lat="44.47219" lon="0.93456">
        <ele>76.08</ele>
        <time>2014-04-05T15:33:46Z</time>
      </trkpt>
      <trkpt lat="44.47218" lon="0.93451">
        <ele>76.08</ele>
        <time>2014-04-05T15:33:47Z</time>
      </trkpt>
      <trkpt lat="44.47217" lon="0.93445">
        <ele>76.08</ele>
        <time>2014-04-05T15:33:48Z</time>
      </trkpt>
      <trkpt lat="44.47215" lon="0.9344">
        <ele>76.08</ele>
        <time>2014-04-05T15:33:49Z</time>
      </trkpt>
      <trkpt lat="44.47213" lon="0.93435">
        <ele>76.08</ele>
        <time>2014-04-05T15:33:50Z</time>
      </trkpt>
      <trkpt lat="44.47212" lon="0.93431">
        <ele>76.08</ele>
        <time>2014-04-05T15:33:51Z</time>
      </trkpt>
      <trkpt lat="44.47211" lon="0.93427">
        <ele>76.08</ele>
        <time>2014-04-05T15:33:52Z</time>
      </trkpt>
      <trkpt lat="44.4721" lon="0.93424">
        <ele>75.6</ele>
        <time>2014-04-05T15:33:53Z</time>
      </trkpt>
      <trkpt lat="44.47208" lon="0.93419">
        <ele>75.6</ele>
        <time>2014-04-05T15:34:01Z</time>
      </trkpt>
      <trkpt lat="44.47211" lon="0.93418">
        <ele>76.08</ele>
        <time>2014-04-05T15:34:09Z</time>
      </trkpt>
      <trkpt lat="44.47212" lon="0.93418">
        <ele>77.04</ele>
        <time>2014-04-05T15:34:19Z</time>
      </trkpt>
      <trkpt lat="44.47212" lon="0.93417">
        <ele>77.04</ele>
        <time>2014-04-05T15:34:41Z</time>
      </trkpt>
      <trkpt lat="44.47211" lon="0.93416">
        <ele>77.52</ele>
        <time>2014-04-05T15:34:59Z</time>
      </trkpt>
      <trkpt lat="44.47211" lon="0.93416">
        <ele>78</ele>
        <time>2014-04-05T15:35:27Z</time>
      </trkpt>
      <trkpt lat="44.47211" lon="0.93416">
        <ele>78.97</ele>
        <time>2014-04-05T15:35:59Z</time>
      </trkpt>
      <trkpt lat="44.47212" lon="0.93416">
        <ele>79.93</ele>
        <time>2014-04-05T15:36:22Z</time>
      </trkpt>
      <trkpt lat="44.47212" lon="0.93418">
        <ele>79.93</ele>
        <time>2014-04-05T15:36:42Z</time>
      </trkpt>
      <trkpt lat="44.47213" lon="0.93418">
        <ele>79.93</ele>
        <time>2014-04-05T15:37:04Z</time>
      </trkpt>
      <trkpt lat="44.47214" lon="0.93418">
        <ele>79.93</ele>
        <time>2014-04-05T15:37:32Z</time>
      </trkpt>
      <trkpt lat="44.47213" lon="0.93418">
        <ele>79.93</ele>
        <time>2014-04-05T15:37:54Z</time>
      </trkpt>
      <trkpt lat="44.47212" lon="0.93417">
        <ele>78.97</ele>
        <time>2014-04-05T15:38:26Z</time>
      </trkpt>
      <trkpt lat="44.47212" lon="0.93417">
        <ele>77.04</ele>
        <time>2014-04-05T15:38:57Z</time>
      </trkpt>
      <trkpt lat="44.47212" lon="0.93417">
        <ele>76.56</ele>
        <time>2014-04-05T15:39:27Z</time>
      </trkpt>
      <trkpt lat="44.47212" lon="0.93417">
        <ele>77.04</ele>
        <time>2014-04-05T15:39:54Z</time>
      </trkpt>
      <trkpt lat="44.47212" lon="0.93416">
        <ele>78</ele>
        <time>2014-04-05T15:40:25Z</time>
      </trkpt>
      <trkpt lat="44.4721" lon="0.93415">
        <ele>78.97</ele>
        <time>2014-04-05T15:41:03Z</time>
      </trkpt>
      <trkpt lat="44.47209" lon="0.93415">
        <ele>78.97</ele>
        <time>2014-04-05T15:41:38Z</time>
      </trkpt>
      <trkpt lat="44.47208" lon="0.93415">
        <ele>79.45</ele>
        <time>2014-04-05T15:42:13Z</time>
      </trkpt>
      <trkpt lat="44.47208" lon="0.93415">
        <ele>78.97</ele>
        <time>2014-04-05T15:42:51Z</time>
      </trkpt>
      <trkpt lat="44.47208" lon="0.93415">
        <ele>79.45</ele>
        <time>2014-04-05T15:43:17Z</time>
      </trkpt>
      <trkpt lat="44.47208" lon="0.93415">
        <ele>79.45</ele>
        <time>2014-04-05T15:43:46Z</time>
      </trkpt>
      <trkpt lat="44.47207" lon="0.93416">
        <ele>79.45</ele>
        <time>2014-04-05T15:44:14Z</time>
      </trkpt>
      <trkpt lat="44.47206" lon="0.93416">
        <ele>78.97</ele>
        <time>2014-04-05T15:44:41Z</time>
      </trkpt>
      <trkpt lat="44.47206" lon="0.93416">
        <ele>78.97</ele>
        <time>2014-04-05T15:45:14Z</time>
      </trkpt>
      <trkpt lat="44.47206" lon="0.93415">
        <ele>78.97</ele>
        <time>2014-04-05T15:45:48Z</time>
      </trkpt>
      <trkpt lat="44.47206" lon="0.93415">
        <ele>78.97</ele>
        <time>2014-04-05T15:46:19Z</time>
      </trkpt>
      <trkpt lat="44.47206" lon="0.93415">
        <ele>78.97</ele>
        <time>2014-04-05T15:46:35Z</time>
      </trkpt>
      <trkpt lat="44.45424" lon="0.92898">
        <ele>90.02</ele>
        <time>2014-04-05T19:33:52Z</time>
      </trkpt>
      <trkpt lat="44.45421" lon="0.92898">
        <ele>87.62</ele>
        <time>2014-04-05T19:34:18Z</time>
      </trkpt>
    </trkseg>
  </trk>
</gpx>